[[{"header":{"parameterUnit":"m.s-1","parameterCategory":1,"la1":30.6,"la2":29.2853,"lo1":-89.7004,"lo2":-87.6739,"dy":0.0162,"dx":0.0183,"nx":112,"ny":82,"refTime":"2024-04-27T06:00:00:Z","depth":0,"parameterNumber":2,"parameterNumberName":"U-component_of_WINDS"},"data":[0.0,0.0,0.0,0.0,0.0,0.0,0.0,0.0,0.0,0.0,0.0,0.0,0.0,0.0,0.0,0.0,0.0,0.0,0.0,0.0,0.0,0.0,0.0,0.0,0.0,0.0,0.0,0.0,0.0,0.0,0.0,0.0,0.0,0.0,0.0,0.0,0.0,0.0,0.0,0.0,0.0,0.0,0.0,0.0,0.0,0.0,0.0,0.0,0.0,0.0,0.0,0.0,0.0,0.0,0.0,0.0,0.0,0.0,0.0,0.0,0.0,0.0,0.0,0.0,0.0,0.0,0.0,0.0,0.0,0.0,0.0,0.0,0.0,0.0,0.0,0.0,0.0,0.0,0.0,0.0,0.0,0.0,0.0,0.0,0.0,0.0,0.0,0.0,0.0,0.0,-4.0915,-4.1074,-4.1087,-4.1109,-4.1109,-4.1109,-4.1109,-4.1109,0.0,0.0,0.0,0.0,0.0,0.0,0.0,0.0,0.0,0.0,0.0,0.0,0.0,0.0,0.0,0.0,0.0,0.0,0.0,0.0,0.0,0.0,0.0,0.0,0.0,0.0,0.0,0.0,0.0,0.0,0.0,0.0,0.0,0.0,0.0,0.0,0.0,0.0,0.0,0.0,0.0,0.0,0.0,0.0,0.0,0.0,0.0,0.0,0.0,0.0,0.0,0.0,0.0,0.0,0.0,0.0,0.0,0.0,0.0,0.0,0.0,0.0,0.0,0.0,0.0,0.0,0.0,0.0,0.0,0.0,0.0,0.0,0.0,0.0,0.0,0.0,0.0,0.0,0.0,0.0,0.0,0.0,0.0,0.0,0.0,0.0,0.0,0.0,0.0,0.0,0.0,0.0,0.0,0.0,0.0,0.0,0.0,0.0,0.0,0.0,0.0,0.0,0.0,0.0,-4.074,-4.0994,-4.1068,-4.1109,-4.1109,-4.1109,-4.1109,-4.1109,0.0,0.0,0.0,0.0,0.0,0.0,0.0,0.0,0.0,0.0,0.0,0.0,0.0,0.0,0.0,0.0,0.0,0.0,0.0,0.0,0.0,0.0,0.0,0.0,0.0,0.0,0.0,0.0,0.0,0.0,0.0,0.0,0.0,0.0,0.0,0.0,0.0,0.0,0.0,0.0,0.0,0.0,0.0,0.0,0.0,0.0,0.0,0.0,0.0,0.0,0.0,0.0,0.0,0.0,0.0,0.0,0.0,0.0,0.0,0.0,0.0,0.0,0.0,0.0,0.0,0.0,0.0,0.0,0.0,0.0,0.0,0.0,0.0,0.0,0.0,0.0,0.0,0.0,0.0,0.0,0.0,0.0,0.0,0.0,0.0,0.0,0.0,0.0,0.0,0.0,0.0,0.0,0.0,0.0,0.0,0.0,0.0,0.0,0.0,0.0,0.0,0.0,0.0,-4.0635,-4.0761,-4.0882,-4.098,-4.1054,-4.1054,-4.1078,-4.1109,-4.1109,-4.1109,0.0,0.0,0.0,0.0,0.0,0.0,0.0,0.0,0.0,0.0,0.0,0.0,0.0,0.0,0.0,0.0,0.0,0.0,0.0,0.0,0.0,0.0,0.0,0.0,0.0,0.0,0.0,0.0,0.0,0.0,0.0,0.0,0.0,0.0,0.0,0.0,0.0,0.0,0.0,0.0,0.0,0.0,0.0,0.0,0.0,0.0,0.0,0.0,0.0,0.0,0.0,0.0,0.0,0.0,0.0,0.0,0.0,0.0,0.0,0.0,0.0,0.0,0.0,0.0,0.0,0.0,0.0,0.0,0.0,0.0,0.0,0.0,0.0,0.0,0.0,0.0,0.0,0.0,0.0,0.0,0.0,0.0,0.0,0.0,0.0,0.0,0.0,0.0,0.0,0.0,0.0,0.0,0.0,0.0,0.0,0.0,0.0,0.0,0.0,0.0,0.0,0.0,-4.0635,-4.0742,-4.0742,-4.0874,-4.0948,-4.0948,-4.1028,-4.1076,-4.1076,-4.1085,0.0,0.0,0.0,0.0,0.0,0.0,0.0,0.0,0.0,0.0,0.0,0.0,0.0,0.0,0.0,0.0,0.0,0.0,0.0,0.0,0.0,0.0,0.0,0.0,0.0,0.0,0.0,0.0,0.0,0.0,0.0,0.0,0.0,0.0,0.0,0.0,0.0,0.0,0.0,0.0,0.0,0.0,0.0,0.0,0.0,0.0,0.0,0.0,0.0,0.0,0.0,0.0,0.0,0.0,0.0,0.0,0.0,0.0,0.0,0.0,0.0,0.0,0.0,0.0,0.0,0.0,0.0,0.0,0.0,0.0,0.0,0.0,0.0,0.0,0.0,0.0,0.0,0.0,0.0,0.0,0.0,0.0,0.0,0.0,0.0,0.0,0.0,0.0,0.0,0.0,0.0,0.0,0.0,0.0,0.0,0.0,0.0,0.0,0.0,0.0,0.0,0.0,-4.0477,-4.0617,-4.0617,-4.0721,-4.082,-4.082,-4.0937,-4.1019,-4.1019,-4.1068,0.0,0.0,0.0,0.0,0.0,0.0,0.0,0.0,0.0,0.0,0.0,0.0,0.0,0.0,0.0,0.0,0.0,0.0,0.0,0.0,0.0,0.0,0.0,0.0,0.0,0.0,0.0,0.0,0.0,0.0,0.0,0.0,0.0,0.0,0.0,0.0,0.0,0.0,0.0,0.0,0.0,0.0,0.0,0.0,0.0,0.0,0.0,0.0,0.0,0.0,0.0,0.0,0.0,0.0,0.0,0.0,0.0,0.0,0.0,0.0,0.0,0.0,0.0,0.0,0.0,0.0,0.0,0.0,0.0,0.0,0.0,0.0,0.0,0.0,0.0,0.0,0.0,0.0,0.0,0.0,0.0,0.0,0.0,0.0,0.0,0.0,0.0,0.0,0.0,0.0,0.0,0.0,0.0,0.0,0.0,0.0,0.0,0.0,0.0,0.0,0.0,0.0,-4.04,-4.0489,-4.0531,-4.063,-4.0684,-4.0726,-4.0815,-4.091,-4.0987,0.0,0.0,0.0,0.0,0.0,0.0,0.0,0.0,0.0,0.0,0.0,0.0,0.0,0.0,0.0,0.0,0.0,0.0,0.0,0.0,0.0,0.0,0.0,0.0,0.0,0.0,0.0,0.0,0.0,0.0,0.0,0.0,0.0,0.0,0.0,0.0,0.0,0.0,0.0,0.0,0.0,0.0,0.0,0.0,0.0,0.0,0.0,0.0,0.0,0.0,0.0,0.0,0.0,0.0,0.0,0.0,0.0,0.0,0.0,0.0,0.0,0.0,0.0,0.0,0.0,0.0,0.0,0.0,0.0,0.0,0.0,0.0,0.0,0.0,0.0,0.0,0.0,0.0,0.0,0.0,0.0,0.0,0.0,0.0,0.0,0.0,0.0,0.0,0.0,0.0,0.0,0.0,0.0,0.0,0.0,0.0,0.0,0.0,0.0,0.0,0.0,0.0,-4.0299,-4.0344,-4.0379,-4.0441,-4.0496,-4.0566,-4.0628,-4.0699,-4.078,-4.0861,0.0,0.0,0.0,0.0,0.0,0.0,0.0,0.0,0.0,0.0,0.0,0.0,0.0,0.0,0.0,0.0,0.0,0.0,0.0,0.0,0.0,0.0,0.0,0.0,0.0,0.0,0.0,0.0,0.0,0.0,0.0,0.0,0.0,0.0,0.0,0.0,0.0,0.0,0.0,0.0,0.0,0.0,0.0,0.0,0.0,0.0,0.0,0.0,0.0,0.0,0.0,0.0,0.0,0.0,0.0,0.0,0.0,0.0,0.0,0.0,0.0,0.0,0.0,0.0,0.0,0.0,0.0,0.0,0.0,0.0,0.0,0.0,0.0,0.0,0.0,0.0,0.0,0.0,0.0,0.0,0.0,0.0,0.0,0.0,0.0,0.0,0.0,0.0,0.0,0.0,0.0,0.0,0.0,0.0,0.0,0.0,0.0,0.0,0.0,0.0,0.0,0.0,-4.0301,-4.029,-4.0307,-4.0307,-4.0362,-4.0424,-4.0502,-4.0552,-4.0597,0.0,0.0,0.0,0.0,0.0,0.0,0.0,0.0,0.0,0.0,0.0,0.0,0.0,0.0,0.0,0.0,0.0,0.0,0.0,0.0,0.0,0.0,0.0,0.0,0.0,0.0,0.0,0.0,0.0,0.0,0.0,0.0,0.0,0.0,0.0,0.0,0.0,0.0,0.0,0.0,0.0,0.0,0.0,0.0,0.0,0.0,0.0,0.0,0.0,0.0,0.0,0.0,0.0,0.0,0.0,0.0,0.0,0.0,0.0,0.0,0.0,0.0,0.0,0.0,0.0,0.0,0.0,0.0,0.0,0.0,0.0,0.0,0.0,0.0,0.0,0.0,0.0,0.0,0.0,0.0,0.0,0.0,0.0,0.0,0.0,0.0,0.0,0.0,0.0,0.0,0.0,0.0,0.0,0.0,0.0,0.0,0.0,0.0,0.0,0.0,0.0,0.0,0.0,-4.0301,-4.0301,-4.03,-4.0307,-4.0316,-4.0362,-4.0424,-4.0392,-4.0434,-4.0518,0.0,0.0,0.0,0.0,0.0,0.0,0.0,0.0,0.0,0.0,0.0,0.0,0.0,0.0,0.0,0.0,0.0,0.0,0.0,0.0,0.0,0.0,0.0,0.0,0.0,0.0,0.0,0.0,0.0,0.0,0.0,0.0,0.0,0.0,0.0,0.0,0.0,0.0,0.0,0.0,0.0,0.0,0.0,0.0,0.0,0.0,0.0,0.0,0.0,0.0,0.0,0.0,0.0,0.0,0.0,0.0,0.0,0.0,0.0,0.0,0.0,0.0,0.0,0.0,0.0,0.0,0.0,0.0,0.0,0.0,0.0,0.0,0.0,0.0,0.0,0.0,0.0,0.0,0.0,0.0,0.0,0.0,0.0,0.0,0.0,0.0,0.0,0.0,0.0,0.0,0.0,0.0,0.0,0.0,0.0,0.0,0.0,0.0,0.0,0.0,0.0,0.0,-4.0301,-4.0301,-4.0301,-4.029,-4.029,-4.0317,-4.0362,-4.0325,-4.033,-4.0423,0.0,0.0,0.0,0.0,0.0,0.0,0.0,0.0,0.0,0.0,0.0,0.0,0.0,0.0,0.0,0.0,0.0,0.0,0.0,0.0,0.0,0.0,0.0,0.0,0.0,0.0,0.0,0.0,0.0,0.0,0.0,0.0,0.0,0.0,0.0,0.0,0.0,0.0,0.0,0.0,0.0,0.0,0.0,0.0,0.0,0.0,0.0,0.0,0.0,0.0,0.0,0.0,0.0,0.0,0.0,0.0,0.0,0.0,0.0,0.0,0.0,0.0,0.0,0.0,0.0,0.0,0.0,0.0,0.0,0.0,0.0,0.0,0.0,0.0,0.0,0.0,0.0,0.0,0.0,0.0,0.0,0.0,0.0,0.0,0.0,0.0,0.0,0.0,0.0,0.0,0.0,0.0,0.0,0.0,0.0,0.0,0.0,0.0,0.0,0.0,0.0,0.0,-4.0301,-4.0301,-4.0301,-4.0301,-4.0301,-4.0301,-4.0298,-4.0298,-4.0298,-4.0298,0.0,0.0,0.0,0.0,0.0,0.0,0.0,0.0,0.0,0.0,0.0,0.0,0.0,0.0,0.0,0.0,0.0,0.0,0.0,0.0,0.0,0.0,0.0,0.0,0.0,0.0,0.0,0.0,0.0,0.0,0.0,0.0,0.0,0.0,0.0,0.0,0.0,0.0,0.0,0.0,0.0,0.0,0.0,0.0,0.0,0.0,0.0,0.0,0.0,0.0,0.0,0.0,0.0,0.0,0.0,0.0,0.0,0.0,0.0,0.0,-3.9405,-3.9134,0.0,0.0,0.0,0.0,0.0,0.0,0.0,0.0,0.0,0.0,0.0,0.0,0.0,0.0,0.0,0.0,0.0,0.0,0.0,0.0,0.0,0.0,0.0,0.0,0.0,0.0,0.0,0.0,0.0,0.0,0.0,0.0,0.0,0.0,0.0,0.0,0.0,0.0,0.0,0.0,-4.0301,-4.0301,-4.0301,-4.0301,-4.0301,-4.031,-4.0301,-4.0301,-4.0301,-4.0301,-4.031,0.0,0.0,0.0,0.0,0.0,0.0,0.0,0.0,0.0,0.0,0.0,0.0,0.0,0.0,0.0,0.0,0.0,0.0,0.0,0.0,0.0,0.0,0.0,0.0,0.0,0.0,0.0,0.0,0.0,0.0,0.0,0.0,0.0,0.0,0.0,0.0,0.0,0.0,0.0,0.0,0.0,0.0,0.0,0.0,0.0,0.0,0.0,0.0,0.0,0.0,0.0,0.0,0.0,0.0,0.0,0.0,0.0,0.0,0.0,-4.033,-3.993,0.0,0.0,0.0,0.0,0.0,0.0,0.0,0.0,0.0,0.0,0.0,0.0,0.0,0.0,0.0,0.0,0.0,0.0,0.0,0.0,0.0,0.0,0.0,0.0,0.0,0.0,0.0,0.0,0.0,0.0,0.0,0.0,0.0,0.0,0.0,0.0,0.0,0.0,0.0,0.0,-4.0272,-4.0186,-4.0166,-4.0291,-4.0301,-4.0301,-4.0301,-4.0301,-4.0301,-4.0301,-4.0301,0.0,0.0,0.0,0.0,0.0,0.0,0.0,0.0,0.0,0.0,0.0,0.0,0.0,0.0,0.0,0.0,0.0,0.0,0.0,0.0,0.0,0.0,0.0,0.0,0.0,0.0,0.0,0.0,0.0,0.0,0.0,0.0,0.0,0.0,0.0,0.0,0.0,0.0,0.0,0.0,0.0,0.0,0.0,0.0,0.0,0.0,0.0,0.0,0.0,0.0,0.0,0.0,0.0,-4.1751,-4.1751,-4.1773,-4.1952,-4.2235,-4.2557,-4.1699,-4.1089,-4.0691,-4.0546,0.0,0.0,0.0,0.0,0.0,0.0,0.0,0.0,0.0,0.0,0.0,0.0,0.0,0.0,0.0,0.0,0.0,0.0,0.0,0.0,0.0,0.0,-3.8807,0.0,-3.9192,-3.9087,-3.9311,0.0,0.0,0.0,0.0,0.0,0.0,0.0,0.0,0.0,0.0,0.0,-4.0137,-3.9975,-3.9914,-4.0147,-4.0157,-4.0157,-4.0157,-4.0157,-4.0176,-4.0234,-4.0234,-3.9929,0.0,0.0,0.0,0.0,0.0,0.0,0.0,0.0,0.0,0.0,0.0,0.0,0.0,0.0,0.0,0.0,0.0,0.0,0.0,0.0,0.0,0.0,0.0,0.0,0.0,0.0,0.0,0.0,0.0,0.0,0.0,0.0,-4.0096,-4.0096,0.0,0.0,0.0,0.0,0.0,0.0,0.0,0.0,0.0,0.0,0.0,0.0,0.0,-4.0791,-4.1847,-4.1433,-4.1775,-4.28,-4.28,-4.28,-4.2825,-4.3729,-4.4128,-4.4214,-4.4529,0.0,-4.1488,-4.0782,0.0,0.0,0.0,0.0,0.0,0.0,0.0,0.0,0.0,0.0,0.0,0.0,0.0,0.0,0.0,0.0,0.0,0.0,0.0,0.0,0.0,0.0,-3.8723,-3.8795,-3.878,-3.8765,0.0,-3.9165,-3.9495,-3.9551,-3.9544,-3.9647,0.0,0.0,0.0,0.0,0.0,0.0,-3.9599,-3.9568,-3.9575,-3.9599,-3.9611,-3.9611,-3.9611,-3.9611,-3.9705,-3.9935,-3.9946,-4.001,-4.0129,-3.9298,0.0,0.0,0.0,0.0,0.0,0.0,0.0,0.0,0.0,0.0,0.0,0.0,0.0,0.0,0.0,0.0,0.0,0.0,0.0,0.0,0.0,0.0,0.0,0.0,0.0,0.0,0.0,0.0,0.0,-4.0096,-4.0096,-4.0096,-4.0096,-4.0096,0.0,0.0,0.0,0.0,0.0,0.0,0.0,0.0,0.0,-4.1331,-4.1348,-4.1587,-4.2125,-4.1927,-4.2096,-4.2611,-4.2611,-4.2611,-4.262,-4.3069,-4.3419,-4.3681,-4.3914,-4.373,-4.3232,-4.2732,-4.2266,-4.1796,0.0,0.0,0.0,0.0,-4.0492,-4.0438,-4.013,-4.0021,-3.9967,-3.9604,0.0,0.0,0.0,0.0,0.0,0.0,0.0,-3.982,0.0,0.0,-3.9258,-3.8817,-3.8707,-3.8707,-3.8707,-3.8877,-3.9101,-3.9245,-3.9272,-3.9363,-3.9635,-3.9587,0.0,0.0,0.0,-3.9337,-3.9489,-3.9376,-3.9337,-3.9471,-3.9514,-3.9514,-3.9514,-3.9514,-3.9544,-3.967,-3.9682,-3.9728,-3.9848,-3.8695,-3.765,0.0,0.0,0.0,0.0,0.0,0.0,0.0,0.0,0.0,0.0,0.0,0.0,0.0,0.0,0.0,0.0,0.0,0.0,0.0,0.0,0.0,0.0,0.0,0.0,0.0,0.0,0.0,0.0,-4.0096,-4.0096,-4.0096,-4.0096,-4.018,0.0,0.0,0.0,0.0,0.0,0.0,-4.1457,-4.1474,-4.1728,-4.2269,-4.2286,-4.2388,-4.2574,-4.2574,-4.2675,-4.2905,-4.2905,-4.2905,-4.2905,-4.3005,-4.3262,-4.3605,-4.3731,-4.4106,-4.4592,-4.4312,-4.3817,-4.3136,-4.2556,-4.2175,-4.1922,-4.1343,-4.1126,-4.1089,-4.0872,-4.08,-4.0764,-4.0564,-4.0492,-4.051,-4.0546,0.0,0.0,0.0,0.0,-4.0813,-4.0193,-4.013,-4.0065,-3.946,-3.9313,-3.9313,-3.9313,-3.9148,-3.9022,-3.9001,-3.9007,-3.9087,-3.935,-3.935,0.0,-3.9401,-3.9183,-3.9073,-3.9272,-3.9129,-3.9073,-3.9272,-3.9298,-3.9298,-3.9298,-3.9298,-3.9324,-3.9383,-3.9401,-3.9346,-3.9195,-3.8143,-3.7173,-3.6378,0.0,0.0,0.0,0.0,0.0,0.0,0.0,0.0,0.0,0.0,0.0,0.0,0.0,0.0,0.0,0.0,0.0,0.0,0.0,0.0,0.0,0.0,0.0,0.0,0.0,0.0,0.0,0.0,0.0,-4.0096,-4.0096,0.0,0.0,0.0,0.0,-4.2134,-4.2185,-4.2202,-4.2236,-4.2236,-4.2252,-4.2286,-4.2286,-4.2642,-4.3325,-4.3325,-4.3741,-4.4479,-4.4479,-4.4479,-4.4496,-4.4942,-4.5173,-4.5208,-4.572,-4.5547,-4.4841,-4.4587,-4.4309,-4.4023,-4.3987,-4.3498,-4.2828,-4.2792,-4.2792,-4.2665,-4.1886,-4.1632,-4.1506,-4.0745,-4.0492,-4.051,-4.0652,-4.074,0.0,0.0,-4.0944,-4.1079,-4.0958,-4.0991,-4.1022,-4.0985,-4.0967,-4.0967,-4.0967,-4.0377,-3.9622,0.0,-3.8723,-3.881,-3.9073,0.0,-3.884,-3.9087,-3.8896,-3.8719,-3.8753,-3.8738,-3.8738,-3.8735,-3.8735,-3.8735,-3.8735,-3.8735,-3.8851,-3.9101,-3.9129,-3.8896,-3.8387,-3.8298,-3.7103,-3.4677,-3.4518,0.0,0.0,0.0,0.0,0.0,0.0,0.0,0.0,0.0,0.0,0.0,0.0,0.0,0.0,0.0,0.0,0.0,0.0,0.0,0.0,0.0,0.0,0.0,0.0,0.0,0.0,0.0,0.0,-4.0798,-4.1221,0.0,-4.188,-4.1914,-4.2016,-4.2269,-4.2286,-4.2506,-4.298,-4.3014,-4.325,-4.3768,-4.3785,-4.3893,-4.4164,-4.4164,-4.4316,-4.4615,-4.4615,-4.4615,-4.4615,-4.4759,-4.4852,-4.4852,-4.5052,-4.5129,-4.5155,-4.5035,-4.4542,-4.3872,-4.4231,-4.4175,-4.3912,-4.3745,-4.3661,-4.3552,-4.2755,-4.2466,-4.2411,-4.214,-4.2104,-4.2177,-4.2232,-4.2304,-4.234,-4.234,-4.2464,-4.2459,-4.1912,-4.1815,-4.1754,-4.1224,-4.1095,-4.1095,-4.1095,-4.0857,-4.0598,-4.0288,-3.9407,-3.8719,-3.884,-3.8765,-3.8719,-3.8822,-3.8765,-3.8707,-3.8707,-3.8707,-3.8707,-3.8707,-3.8707,-3.8707,-3.8707,-3.8707,-3.8735,-3.8837,-3.8354,-3.7987,-3.7803,-3.6918,-3.5932,-3.4851,-3.4487,-3.4011,0.0,0.0,0.0,0.0,0.0,0.0,0.0,0.0,0.0,0.0,0.0,0.0,0.0,0.0,0.0,0.0,0.0,0.0,0.0,0.0,0.0,0.0,0.0,0.0,0.0,-4.051,-4.1288,-4.1542,-4.1999,-4.2388,-4.2642,-4.2675,-4.2777,-4.3047,-4.3091,-4.3386,-4.4147,-4.417,-4.4536,-4.5326,-4.5359,-4.5359,-4.5359,-4.5359,-4.5359,-4.5359,-4.5077,-4.4959,-4.4942,-4.4716,-4.4615,-4.4615,-4.4615,-4.4786,-4.5045,-4.5045,-4.4629,-4.4044,-4.466,-4.4745,-4.4503,-4.4498,-4.4494,-4.4385,-4.357,-4.3299,-4.3263,-4.2992,-4.2957,-4.303,-4.303,-4.3105,-4.316,-4.3196,-4.3305,-4.3284,-4.277,-4.2657,-4.2561,-4.2047,-4.1919,-4.1919,-4.1919,-4.1699,-4.1515,-4.1515,-4.0212,-3.9093,-3.9093,-3.8891,-3.8707,-3.8707,-3.8707,-3.8707,-3.8707,-3.8707,-3.8707,-3.8707,-3.8707,-3.8707,-3.8707,-3.8707,-3.8707,-3.8707,-3.7936,-3.7382,-3.7107,-3.5915,-3.5043,-3.4601,-3.4249,-3.4111,-3.4197,0.0,0.0,0.0,0.0,0.0,0.0,0.0,0.0,0.0,0.0,0.0,0.0,0.0,0.0,0.0,0.0,0.0,0.0,0.0,0.0,0.0,0.0,0.0,-4.0155,-4.0809,-4.1499,-4.2209,-4.2337,-4.2642,-4.3386,-4.3443,-4.3809,-4.4581,-4.4666,-4.4976,-4.5703,-4.5737,-4.6058,-4.6769,-4.6786,-4.6786,-4.6786,-4.6786,-4.6786,-4.6786,-4.6075,-4.572,-4.5686,-4.4942,-4.4632,-4.4615,-4.4615,-4.4615,-4.4615,-4.4615,-4.4615,-4.468,-4.5387,-4.5218,-4.4585,-4.5106,-4.5307,-4.5182,-4.4403,-4.4132,-4.4005,-4.3226,-4.2955,-4.2955,-4.2955,-4.3012,-4.3123,-4.3196,-4.3286,-4.3429,-4.348,-4.3515,-4.3515,-4.3515,-4.3515,-4.3515,-4.3515,-4.2892,-4.2341,-4.2341,-4.1056,-3.9955,-3.9937,-3.9276,-3.8744,-3.8744,-3.8726,0.0,-3.8707,-3.8707,-3.8707,-3.8707,-3.8707,-3.8707,-3.8707,-3.8707,-3.8707,-3.8707,-3.7918,-3.7107,-3.6321,-3.5445,-3.4601,-3.3825,-3.3807,-3.3921,-3.4185,0.0,0.0,0.0,0.0,0.0,0.0,0.0,0.0,0.0,0.0,0.0,0.0,0.0,0.0,0.0,0.0,0.0,0.0,0.0,0.0,0.0,-3.8874,-3.9288,-3.8958,-4.075,-4.2137,-4.2365,-4.334,-4.4056,-4.4231,-4.4756,-4.5162,-4.5382,-4.5889,-4.6278,-4.6481,-4.6498,-4.6583,-4.6786,-4.6786,-4.6786,-4.6786,-4.6786,-4.6786,-4.6786,-4.6583,-4.621,-4.5703,-4.55,-4.5094,-4.4615,-4.4615,-4.4615,-4.4615,-4.4615,-4.4615,-4.4648,-4.52,-4.5289,-4.5127,-4.5454,-4.5474,-4.5273,-4.5037,-4.4965,-4.4928,-4.4711,-4.4337,-4.3979,-4.3979,-4.3707,-4.3393,-4.341,-4.3445,-4.348,-4.3497,-4.3515,-4.3515,-4.3515,-4.3515,-4.3515,-4.3515,-4.3331,-4.3167,-4.3167,-4.2341,-4.146,-4.0873,-4.0102,-3.957,-3.957,-3.9074,0.0,-3.8707,-3.8707,-3.8707,-3.8707,-3.8707,-3.8707,-3.8707,-3.8707,-3.8707,-3.8707,-3.7404,-3.6523,-3.6303,-3.4908,-3.4027,-3.3807,-3.3807,-3.3847,0.0,0.0,0.0,0.0,0.0,0.0,0.0,0.0,0.0,0.0,0.0,0.0,0.0,0.0,0.0,0.0,0.0,0.0,0.0,0.0,0.0,0.0,-3.9222,-3.9293,-3.8919,-4.0662,-4.22,-4.2791,-4.3919,-4.474,-4.5043,-4.572,-4.616,-4.616,-4.6549,-4.6921,-4.7242,-4.7259,-4.7394,-4.7716,-4.7716,-4.7716,-4.7716,-4.7716,-4.7716,-4.7716,-4.7411,-4.7039,-4.6616,-4.5991,-4.5466,-4.5026,-4.475,-4.4615,-4.4615,-4.4615,-4.4615,0.0,0.0,0.0,0.0,0.0,-4.5905,-4.5924,-4.5662,-4.5658,-4.5761,-4.5477,-4.5119,-4.4723,-4.4377,-4.4071,-4.3779,-4.3467,-4.341,-4.3463,-4.3497,-4.3515,-4.3515,-4.3515,-4.3515,-4.3515,-4.3515,-4.3515,-4.3515,-4.3515,-4.3112,0.0,-4.2194,-4.1167,-4.0396,-4.0396,-3.9717,-3.9203,-3.9203,-3.8909,-3.8707,-3.8707,-3.8707,-3.8707,-3.8707,-3.8707,0.0,0.0,0.0,-3.6486,-3.5789,-3.4504,0.0,0.0,0.0,-3.3807,-3.3807,0.0,0.0,0.0,-3.3955,-3.3535,0.0,0.0,0.0,0.0,0.0,0.0,0.0,0.0,0.0,0.0,0.0,0.0,0.0,0.0,0.0,0.0,-3.9598,-3.9598,-3.9598,-4.0656,-4.1923,-4.3246,-4.4106,-4.4873,-4.563,-4.6364,-4.6815,-4.6921,-4.6989,-4.7327,-4.7973,-4.8007,0.0,0.0,0.0,-4.9001,-4.9001,-4.9001,-4.9001,-4.9001,-4.8359,-4.7973,-4.7838,-4.6464,-4.5788,-4.5669,-4.4936,-4.4615,-4.4615,-4.4615,-4.4615,-4.4654,-4.5062,-4.5267,-4.5355,-4.5825,-4.6358,-4.6733,-4.6128,0.0,0.0,-4.5856,-4.5566,-4.5329,-4.4604,-4.4355,-4.416,-4.3506,-4.336,-4.3394,-4.3463,-4.3497,-4.3497,-4.3497,-4.3515,-4.3515,-4.3515,-4.3515,-4.3515,-4.3515,-4.3515,-4.3515,-4.3515,-4.2249,-4.1242,-4.1242,-4.0561,-3.9992,-3.9916,-3.9276,-3.8799,-3.8707,0.0,0.0,-3.8707,-3.8707,-3.8707,-3.8707,-3.7936,-3.6743,-3.5078,-3.4307,-3.3899,-3.3807,-3.3807,-3.3807,-3.3807,-3.3807,-3.3752,-3.3655,-3.3512,-3.3067,0.0,0.0,0.0,0.0,0.0,0.0,0.0,0.0,0.0,0.0,0.0,0.0,0.0,0.0,0.0,-4.0305,-4.0305,-4.0305,-4.0305,-4.1024,-4.1844,-4.2679,-4.3396,-4.4311,-4.559,-4.6352,-4.7051,-4.7639,-4.824,-4.8646,-4.8781,-4.8798,-4.8849,-4.9001,-4.9001,-4.9001,-4.9001,-4.9001,-4.9001,-4.9001,-4.8866,0.0,-4.7855,-4.6989,-4.6261,-4.5669,-4.4936,-4.4615,-4.4615,-4.4615,-4.4615,-4.4598,-4.4692,-4.4971,-4.5303,-4.5407,-4.58,-4.6244,-4.611,-4.6406,-4.6793,-4.6673,-4.6527,-4.639,-4.6246,-4.536,0.0,-4.4217,-4.3707,-4.3269,-4.3394,-4.3411,-4.3429,-4.3497,-4.3515,-4.3515,-4.3515,-4.3515,-4.3515,-4.3515,-4.3515,-4.3515,-4.3515,-4.269,-4.2066,-4.2066,-4.1387,-4.0634,-3.9974,-3.9753,-3.9423,-3.8781,-3.8707,-3.8707,-3.8707,-3.8707,-3.8707,-3.8707,-3.7936,-3.6743,-3.5078,-3.4857,-3.4454,-3.3807,-3.3807,-3.3807,-3.3807,-3.3807,-3.3476,-3.2852,-3.3493,-3.3474,0.0,0.0,0.0,0.0,0.0,0.0,0.0,0.0,0.0,0.0,0.0,-4.0489,-4.0489,0.0,-4.0489,-4.0489,-4.0489,-4.0612,-4.1016,-4.137,-4.1992,-4.3034,-4.4073,-4.526,-4.6653,-4.7479,-4.8039,-4.843,-4.8798,-4.9001,-4.9001,-4.9001,-4.9001,-4.9001,-4.9001,-4.9001,-4.9001,-4.9001,-4.9001,-4.9001,-4.9001,-4.8815,-4.8443,-4.7699,-4.6955,-4.621,-4.5466,-4.4925,-4.4615,-4.4615,-4.4615,-4.4615,-4.4615,-4.4731,-4.4944,-4.4944,-4.5284,-4.5699,-4.5792,-4.6116,-4.6501,-4.659,-4.6509,-4.636,-4.6241,-4.5745,-4.5093,-4.4562,-4.4163,-4.3816,-4.3504,-4.3394,-4.3412,-4.3446,-4.348,-4.3515,-4.3515,-4.3515,-4.3515,-4.3515,-4.3515,-4.3515,-4.3515,-4.3167,-4.2892,-4.2892,-4.2213,-4.157,-4.1148,-4.0396,-3.9753,-3.9331,-3.8946,-3.8707,-3.8707,-3.8707,-3.8707,-3.8707,-3.7936,-3.7125,-3.6285,-3.5862,-3.5261,-3.4417,-3.4399,-3.4197,-3.3807,-3.3807,-3.3587,-3.322,-3.4054,-3.3663,0.0,0.0,0.0,0.0,0.0,0.0,0.0,-4.0489,-4.0489,-4.0489,-4.0489,-4.0489,-4.0489,-4.0489,-4.0489,-4.0489,-4.0612,-4.0905,-4.1524,-4.1817,-4.2455,-4.3733,-4.4896,-4.6142,-4.7548,-4.8351,-4.8861,-4.9001,-4.9001,-4.9001,-4.9001,-4.9001,-4.9001,-4.9001,-4.9001,-4.9001,-4.9001,-4.9001,-4.9001,-4.9001,-4.9001,-4.9001,-4.8984,-4.8257,-4.7581,-4.6955,-4.6075,-4.528,-4.4615,-4.4615,-4.4615,-4.4615,-4.4615,-4.4615,-4.4615,-4.4615,-4.4824,-4.5178,-4.5294,-4.5588,-4.595,-4.6074,-4.6098,-4.6066,-4.585,-4.578,-4.5627,-4.4892,-4.4542,-4.4272,-4.3761,-4.3504,-4.3358,-4.3394,-4.3464,-4.348,-4.3497,-4.3515,-4.3515,-4.3515,-4.3515,-4.3515,-4.3515,-4.3515,-4.3515,-4.3515,-4.2947,-4.2488,-4.2323,-4.1167,-4.0249,-3.9918,-3.9313,-3.8872,-3.8707,-3.8707,-3.8707,-3.8707,-3.8083,-3.7658,-3.7511,-3.6886,-3.6138,-3.5261,-3.5261,-3.4931,-3.4284,-3.4284,-3.4284,-3.4302,-3.4949,-3.4151,-3.7323,-3.8385,-3.9477,-4.0197,-4.0443,-4.0489,0.0,-4.0489,-4.0489,-4.0489,-4.0489,-4.0489,-4.0489,-4.0489,-4.0489,-4.0489,-4.1063,-4.1509,-4.1586,-4.2617,-4.3692,-4.4503,-4.4735,-4.5384,-4.677,-4.7572,-4.8306,-4.894,-4.9001,-4.9001,-4.9001,-4.9001,-4.9001,-4.9001,-4.9001,-4.9001,-4.9001,-4.9001,-4.9001,-4.9001,-4.9001,-4.9001,-4.8984,-4.8257,-4.7838,-4.7686,-4.6312,-4.528,-4.4615,-4.4615,-4.4615,-4.4615,-4.4615,-4.4615,-4.4615,-4.4615,-4.4626,-4.4665,-4.4709,-4.4981,-4.5381,-4.5407,-4.5724,-4.6081,-4.6042,-4.5556,-4.5117,-4.5605,-4.4716,-4.3744,-4.4327,-4.3853,-4.3269,-4.3445,-4.3464,-4.3429,-4.3497,-4.3515,-4.3515,-4.3515,-4.3515,-4.3515,-4.3515,-4.3515,-4.3515,-4.3515,-4.3423,-4.3112,-4.2396,-4.2139,-4.1479,-4.0047,-3.9808,-3.9478,-3.8762,-3.8707,-3.8707,-3.8707,-3.8615,-3.8248,-3.7529,-3.7419,-3.6978,-3.6174,-3.6156,-3.6101,-3.6009,-3.6009,-3.6009,-3.6009,-3.6101,-3.5652,-3.683,-3.7908,-3.9,-3.9277,-3.9905,-4.0489,-4.0489,-4.0489,-4.0489,-4.0489,-4.0489,-4.0489,-4.0489,-4.0489,-4.0628,-4.1078,-4.1401,-4.1863,-4.2633,-4.3254,-4.4028,-4.5151,-4.5646,-4.6316,-4.7356,-4.8096,-4.8656,-4.897,-4.9001,-4.9001,-4.9001,-4.9001,-4.9001,-4.9001,-4.9001,-4.9001,-4.9001,-4.9001,-4.9001,-4.9001,-4.9001,-4.9001,-4.8984,-4.8697,-4.8071,-4.7208,-4.616,-4.528,-4.4615,-4.4615,-4.4615,-4.4615,-4.4615,-4.4615,-4.4615,-4.4615,-4.4615,-4.4615,-4.4615,-4.472,-4.4906,-4.4906,-4.5052,-4.5275,-4.5537,-4.5447,-4.5274,-4.5411,-4.5183,-4.4874,-4.4757,-4.4303,-4.3944,-4.4089,-4.3759,-4.3429,-4.348,-4.3463,-4.3464,-4.3497,-4.3515,-4.3515,-4.3515,-4.3515,-4.3515,-4.3515,-4.3515,-4.3386,-4.3039,-4.2598,-4.168,-4.0065,-3.99,-3.957,-3.8781,-3.8707,-3.8707,-3.8707,-3.8707,-3.856,-3.8212,-3.8193,-3.7808,-3.7015,-3.6997,-3.6776,-3.6303,-3.6303,-3.6303,-3.6303,-3.6795,-3.6828,-3.6999,-3.7908,-3.8831,-3.9016,-3.9767,-4.0489,-4.0489,-4.0489,-4.0489,-4.0489,-4.0489,-4.0489,-4.0489,-4.0489,-4.0735,-4.1478,-4.1755,-4.2279,-4.3454,-4.3762,-4.4242,-4.53,-4.604,-4.6777,-4.7522,-4.845,-4.9001,-4.9001,-4.9001,-4.9001,-4.9001,-4.9001,-4.9001,-4.9001,-4.9001,-4.9001,-4.9001,-4.9001,-4.9001,-4.9001,-4.9001,-4.9001,-4.9001,-4.9001,-4.8308,-4.7056,-4.6329,-4.5585,-4.4902,-4.4682,-4.4615,-4.4615,-4.4615,-4.4615,-4.4615,-4.4615,-4.4615,-4.4615,-4.4615,-4.4615,-4.4615,-4.4615,-4.4615,-4.4654,-4.5008,-4.5178,-4.5269,-4.5236,-4.5329,-4.5369,-4.5011,-4.4625,-4.4366,-4.4653,-4.429,-4.3926,-4.4123,-4.394,-4.3776,-4.381,-4.3662,-4.3515,-4.3515,-4.3515,-4.3515,-4.3515,-4.3515,-4.3515,-4.3515,-4.28,-4.1846,-4.0689,-4.0157,-3.9662,-3.9074,-3.8836,-3.8707,-3.8707,-3.8707,-3.8707,-3.8707,-3.8707,-3.8432,-3.7841,-3.7841,-3.7547,-3.6964,-3.6964,-3.6964,-3.6982,-3.7551,-3.7841,-3.8262,-3.8954,-3.9613,-4.0274,-4.0459,-4.0489,-4.0489,-4.0489,-4.0489,-4.0489,-4.0489,-4.0489,-4.0489,-4.0489,-4.0735,-4.1478,-4.2155,-4.2817,-4.3516,-4.4178,-4.4594,-4.4648,-4.5274,-4.6005,-4.6777,-4.8145,-4.9001,-4.9001,-4.9001,-4.9001,-4.9001,-4.9001,-4.9001,-4.9001,-4.9001,-4.9001,-4.9001,-4.9001,-4.9001,-4.9001,-4.9001,-4.9001,-4.9001,-4.9001,-4.8595,-4.7821,-4.709,-4.6346,-4.5618,-4.4874,-4.4615,-4.4615,-4.4615,-4.4615,-4.4615,-4.4615,-4.4615,-4.4615,-4.4615,-4.4615,-4.4615,-4.4615,-4.4615,-4.4598,-4.4626,-4.4626,-4.4748,-4.5312,-4.4931,-4.4468,-4.5041,-4.4632,-4.4259,-4.4841,-4.5021,-4.52,-4.57,-4.5223,-4.4654,-4.4654,-4.403,-4.3515,-4.3515,-4.3515,-4.3515,-4.3515,-4.3515,-4.3515,-4.3515,-4.28,-4.2286,-4.2231,-4.0818,-3.9882,-3.9863,-3.9148,-3.8707,-3.8707,-3.8707,-3.8707,-3.8707,-3.8707,-3.8689,-3.867,-3.867,-3.8652,-3.8634,-3.8634,-3.8634,-3.8634,-3.8652,-3.867,-3.7784,-3.8662,-3.9536,-3.9767,-4.0166,-4.0489,-4.0489,-4.0489,-4.0489,-4.0489,-4.0489,-4.0489,-4.0489,-4.0489,-4.0874,-4.2078,-4.2463,-4.2987,-4.4117,-4.4471,-4.4799,-4.5274,-4.5567,-4.6182,-4.7406,-4.7967,-4.8482,-4.897,-4.9001,-4.9001,-4.9001,-4.9001,-4.9001,-4.9001,-4.9001,-4.9001,-4.9001,-4.9001,-4.9001,-4.9001,-4.9001,-4.9001,-4.9001,-4.9001,-4.8612,-4.7838,-4.7124,-4.638,-4.5652,-4.4919,-4.4615,-4.4615,-4.4615,-4.4615,-4.4615,-4.4615,-4.4615,-4.4615,-4.4615,-4.4615,-4.4615,-4.4615,-4.4615,-4.4615,-4.4615,-4.4615,-4.4654,-4.4841,-4.4927,-4.5027,-4.5324,-4.5085,-4.4926,-4.5626,-4.5335,-4.5059,-4.5698,-4.5553,-4.5184,-4.484,-4.4471,-4.4126,-4.3757,-4.3597,-4.3515,-4.3515,-4.3515,-4.3515,-4.3515,-4.3259,-4.2892,-4.2359,-4.1827,-4.1056,-3.9989,-3.9643,-3.9276,-3.8726,-3.8707,-3.8707,-3.8707,-3.8707,-3.8707,-3.8707,-3.8707,-3.8707,-3.8707,-3.8707,-3.8707,-3.8707,-3.8707,-3.8707,-3.8154,-3.9031,-3.9844,-3.9844,-4.0166,-4.0489,-4.0489,-4.0489,-4.0489,-4.0489,-4.0489,-4.0489,-4.0489,-4.0489,-4.0951,-4.2386,-4.2602,-4.3063,-4.4387,-4.461,-4.4799,-4.5237,-4.5311,-4.5897,-4.7339,-4.7522,-4.7934,-4.8923,-4.8767,-4.8719,-4.9001,-4.9001,-4.9001,-4.9001,-4.9001,-4.9001,-4.9001,-4.9001,-4.9001,-4.9001,-4.9001,-4.9001,-4.9001,-4.9001,-4.8748,-4.8257,-4.7225,-4.6532,-4.6024,-4.5021,-4.4615,-4.4615,-4.4615,-4.4615,-4.4615,-4.4615,-4.4615,-4.4615,-4.4615,-4.4615,-4.4615,-4.4615,-4.4615,-4.4615,-4.4615,-4.4615,-4.4615,-4.4615,-4.4814,-4.5089,-4.5169,-4.5087,-4.5142,-4.5792,-4.5538,-4.5342,-4.6188,-4.603,-4.5711,-4.561,-4.5116,-4.4686,-4.4534,-4.42,-4.3828,-4.3551,-4.3515,-4.3515,-4.3515,-4.3515,-4.3313,-4.2782,-4.247,-4.1882,-4.0836,-4.023,-3.968,-3.9166,-3.8854,-3.8707,-3.8707,-3.8707,-3.8707,-3.8707,-3.8707,-3.8707,-3.8707,-3.8707,-3.8707,-3.8707,-3.8707,-3.8707,-3.9339,-3.9982,-4.0489,-4.0489,-4.0489,-4.0489,-4.0489,-4.0489,-4.0489,-4.0489,-4.0489,-4.0489,-4.0489,-4.0489,-4.0951,-4.2386,-4.2602,-4.3063,-4.4387,-4.461,-4.461,-4.461,-4.4648,-4.5216,-4.6673,-4.6777,-4.7355,-4.8909,-4.8338,-4.8274,-4.897,-4.9001,-4.9001,-4.9001,-4.9001,-4.9001,-4.9001,-4.9001,-4.9001,-4.9001,-4.9001,-4.9001,-4.9001,-4.9001,-4.9001,-4.8917,-4.7479,-4.6819,-4.6684,-4.5258,-4.4632,-4.4615,-4.4615,-4.4615,-4.4615,-4.4615,-4.4615,-4.4615,-4.4615,-4.4615,-4.4615,-4.4615,-4.4615,-4.4615,-4.4615,-4.4615,-4.4615,-4.4615,-4.4615,-4.4615,-4.4615,-4.4709,-4.4923,-4.5399,-4.5614,-4.5982,-4.7106,-4.6661,-4.6221,-4.6802,-4.5852,-4.5132,-4.5659,-4.515,-4.4398,-4.3663,-4.3533,-4.3515,-4.3515,-4.3515,-4.3515,-4.3515,-4.2818,-4.2341,-4.2304,-4.0891,-4.001,-3.9955,-3.9203,-3.8762,-3.8762,-3.8726,-3.8707,-3.8707,-3.8744,-3.8762,-3.8762,-3.8799,-3.8836,-3.8836,-3.8836,-3.8836,-3.9428,-3.9982,-4.0489,-4.0489,-4.0489,-4.0489,-4.0489,-4.0489,-4.0489,-4.0489,-4.0489,-4.0489,-4.0489,-4.0489,-4.0951,-4.2386,-4.2602,-4.3063,-4.4387,-4.461,-4.461,-4.461,-4.5104,-4.5769,-4.6708,-4.6288,-4.683,-4.8829,-4.8829,-4.8798,-4.9001,-4.9001,-4.9001,-4.9001,-4.9001,-4.9001,-4.9001,-4.9001,-4.9001,-4.9001,-4.9001,-4.9001,-4.9001,-4.9001,-4.9001,-4.8951,-4.8037,-4.731,-4.6718,-4.5805,-4.5094,-4.4615,-4.4615,-4.4615,-4.4615,-4.4615,-4.4615,-4.4615,-4.4615,-4.4615,-4.4615,-4.4615,-4.4615,-4.4615,-4.4615,-4.4615,-4.4615,-4.4615,-4.4615,-4.4615,-4.4615,-4.4643,-4.4786,-4.5355,-4.5537,-4.5749,-4.6436,-4.6707,-4.661,-4.5855,-4.512,-4.4746,-4.5147,-4.4625,-4.4234,-4.4362,-4.3883,-4.3515,-4.3515,-4.3515,-4.3515,-4.3515,-4.3331,-4.2947,-4.2359,-4.1919,-4.1442,-4.082,-4.0047,-3.9588,-3.9588,-3.9019,-3.8707,-3.8707,-3.9294,-3.9588,-3.9588,-4.0212,-4.049,-4.049,-4.049,-4.049,-3.9844,-4.0197,-4.0489,-4.0489,-4.0489,-4.0489,-4.0489,-4.0489,-4.0489,-4.0489,-4.0489,-4.0489,-4.0489,-4.0489,-4.0843,-4.1986,-4.2417,-4.2971,-4.4024,-4.4425,-4.461,-4.461,-4.4971,-4.575,-4.7144,-4.6606,-4.7097,-4.9316,-4.857,-4.8322,-4.897,-4.9001,-4.9001,-4.9001,-4.9001,-4.9001,-4.9001,-4.9001,-4.9001,-4.9001,-4.9001,-4.9001,-4.9001,-4.9001,-4.9001,-4.8968,-4.824,-4.7479,-4.6735,-4.6007,-4.5263,-4.4615,-4.4615,-4.4615,-4.4615,-4.4615,-4.4615,-4.4615,-4.4615,-4.4615,-4.4615,-4.4615,-4.4615,-4.4615,-4.4615,-4.4615,-4.4615,-4.4615,-4.4615,-4.4615,-4.4615,-4.4615,-4.4709,-4.5025,-4.5115,-4.5258,-4.5843,-4.6123,-4.614,-4.5554,-4.536,-4.5196,-4.4915,-4.4746,-4.4597,-4.4417,-4.3776,-4.3302,-4.3251,-4.3392,-4.3427,-4.3268,-4.3392,-4.3331,-4.2873,-4.2506,-4.2121,-4.1645,-4.0873,-4.0432,-4.0432,-3.9992,-3.9753,-3.9753,-4.0194,-4.0432,-4.0432,-4.0875,-4.1095,-4.1095,-4.1095,-4.1095,-4.0336,-4.0489,-4.0489,-4.0489,-4.0489,-4.0489,-4.0489,-4.0489,-4.0489,-4.0489,-4.0489,-4.0489,-4.0489,-4.0489,-4.0735,-4.1478,-4.2171,-4.2833,-4.3516,-4.4194,-4.461,-4.461,-4.4763,-4.5649,-4.7535,-4.7359,-4.793,-4.9946,-4.8215,-4.7637,-4.894,-4.9001,-4.9001,-4.9001,-4.9001,-4.9001,-4.9001,-4.9001,-4.9001,-4.9001,-4.9001,-4.9001,-4.9001,-4.9001,-4.9001,-4.8968,-4.8342,-4.7581,-4.6735,-4.6109,-4.5348,-4.4615,-4.4615,-4.4615,-4.4615,-4.4615,-4.4615,-4.4615,-4.4615,-4.4615,-4.4615,-4.4615,-4.4615,-4.4615,-4.4615,-4.4615,-4.4615,-4.4615,-4.4615,-4.4615,-4.4615,-4.4615,-4.4615,-4.4615,-4.4615,-4.4748,-4.5284,-4.5294,-4.5284,-4.5511,-4.5835,-4.5832,-4.4945,-4.5123,-4.5098,-4.4309,-4.357,-4.303,-4.2868,-4.3123,-4.3196,-4.292,-4.3214,-4.3427,-4.3497,-4.2855,-4.2451,-4.2451,-4.1699,-4.126,-4.126,-4.115,-4.1095,-4.1095,-4.1187,-4.126,-4.126,-4.137,-4.1407,-4.1407,-4.1407,-4.1407,-4.0459,-4.0489,-4.0489,-4.0489,-4.0489,-4.0489,-4.0489,-4.0489,-4.0489,-4.0489,-4.0489,-4.0489,-4.0489,-4.0489,-4.0735,-4.1478,-4.2171,-4.2833,-4.3516,-4.4194,-4.461,-4.461,-4.5641,-4.6502,-4.6856,-4.7891,-4.8963,-4.994,-4.9143,-4.8712,-4.9004,-4.9001,-4.9001,-4.9001,-4.9001,-4.9001,-4.9001,-4.9001,-4.9001,-4.9001,-4.9001,-4.9001,-4.9001,-4.9001,-4.9001,-4.9001,-4.8866,0.0,-4.6786,-4.665,-4.5833,-4.4615,-4.4615,-4.4615,-4.4615,-4.4615,-4.4615,-4.4615,-4.4615,-4.4615,-4.4615,-4.4615,-4.4615,-4.4615,-4.4615,-4.4615,-4.4615,-4.4615,-4.4615,-4.4615,-4.4615,-4.4615,-4.4615,-4.4615,-4.4615,-4.4626,-4.4748,-4.4748,-4.4841,-4.5267,-4.5196,-4.5108,-4.5329,-4.4978,-4.4798,-4.5183,-4.3926,-4.2842,-4.2594,-4.2384,-4.2422,-4.2863,-4.2957,-4.3124,-4.3462,-4.3369,-4.3277,-4.3277,-4.2543,-4.2084,-4.2084,-4.1444,-4.1095,-4.1095,-4.1754,-4.2084,-4.2084,-4.2763,-4.3075,-4.3075,-4.3075,-4.3075,-4.1024,-4.0783,-4.0489,-4.0489,-4.0489,-4.0489,-4.0489,-4.0489,-4.0489,-4.0489,-4.0489,-4.0489,-4.0489,-4.0489,-4.0612,-4.0986,-4.1925,-4.2709,-4.3017,-4.3941,-4.461,-4.461,-4.5485,-4.6448,-4.7192,-4.7882,-4.8917,-5.0446,-4.9557,-4.9143,-4.9562,-4.9204,-4.9001,-4.9001,-4.9001,-4.9001,-4.9001,-4.9001,-4.9001,-4.9001,-4.9001,-4.9001,-4.9001,-4.9001,-4.9001,-4.9001,-4.9001,-4.8156,-4.6786,-4.6786,-4.5923,-4.4615,-4.4615,-4.4615,-4.4615,-4.4615,-4.4615,-4.4615,-4.4615,-4.4615,-4.4615,-4.4615,-4.4615,-4.4615,-4.4615,-4.4615,-4.4615,-4.4615,-4.4615,-4.4615,-4.4615,-4.4615,-4.4615,-4.4615,-4.4615,-4.4615,-4.4615,-4.4615,-4.4682,-4.4906,-4.4814,-4.4803,-4.5079,-4.4877,-4.4716,-4.4955,-4.4032,-4.3072,-4.2474,-4.1975,-4.1876,-4.2376,-4.2655,-4.2995,-4.3444,-4.3515,-4.3515,-4.3515,-4.313,-4.291,-4.291,-4.2543,-4.2359,-4.2359,-4.2727,-4.291,-4.2928,-4.3296,-4.3515,-4.3515,-4.3515,-4.3515,-4.1445,-4.1024,-4.0489,-4.0489,-4.0489,-4.0489,-4.0489,-4.0489,-4.0489,-4.0489,-4.0489,-4.0489,-4.0489,-4.0489,-4.0489,-4.0489,-4.1694,-4.2602,-4.2602,-4.3741,-4.461,-4.461,-4.5172,-4.6106,-4.7437,-4.7779,-4.8733,-5.0694,-4.9781,-4.9343,-4.9833,-4.9306,-4.9001,-4.9001,-4.9001,-4.9001,-4.9001,-4.9001,-4.9001,-4.9001,-4.9001,-4.9001,-4.9001,-4.9001,-4.9001,-4.9001,-4.9001,-4.8156,-4.6786,-4.6786,-4.5923,-4.4615,-4.4615,-4.4615,-4.4615,-4.4615,-4.4615,-4.4615,-4.4615,-4.4615,-4.4615,-4.4615,-4.4615,-4.4615,-4.4615,-4.4615,-4.4615,-4.4615,-4.4615,-4.4615,-4.4615,-4.4615,-4.4615,-4.4615,-4.4615,-4.4615,-4.4615,-4.4615,-4.4615,-4.4615,-4.4615,-4.4626,-4.4737,-4.4765,-4.4719,-4.4595,-4.4015,-4.3388,-4.2694,-4.1867,-4.1521,-4.1978,-4.2249,-4.2637,-4.3268,-4.3357,-4.341,-4.3479,-4.341,-4.341,-4.3497,-4.341,-4.341,-4.3515,-4.3515,-4.3515,-4.3515,-4.3515,-4.3515,-4.3515,-4.3515,-4.3515,-4.1319,-4.1024,-4.0489,-4.0489,-4.0489,-4.0489,-4.0489,-4.0489,-4.0489,-4.0489,-4.0489,-4.0489,-4.0489,-4.0489,-4.0489,-4.0489,-4.1694,-4.2602,-4.2602,-4.3741,-4.461,-4.461,-4.5172,-4.5888,-4.6645,-4.7911,-4.9061,-4.9946,-4.9935,-4.9676,-4.914,-4.9035,-4.9001,-4.9001,-4.9001,-4.9001,-4.9001,-4.9001,-4.9001,-4.9001,-4.9001,-4.9001,-4.9001,-4.9001,-4.9001,-4.9001,-4.9001,-4.8156,0.0,-4.6786,-4.5923,-4.4615,-4.4615,-4.4615,-4.4615,-4.4615,-4.4615,-4.4615,-4.4615,-4.4615,-4.4615,-4.4615,-4.4615,-4.4615,-4.4615,-4.4615,-4.4615,-4.4615,-4.4615,-4.4615,-4.4615,-4.4615,-4.4615,-4.4615,-4.4615,-4.4615,-4.4615,-4.4615,-4.4615,-4.4615,-4.4615,-4.4598,-4.4615,-4.4626,-4.4648,-4.4756,-4.3997,-4.3467,-4.3564,-4.2181,-4.1435,-4.2029,-4.1695,-4.1807,-4.2693,-4.2901,-4.3105,-4.348,-4.316,-4.3105,-4.3479,-4.316,-4.3142,-4.3479,-4.3515,-4.3515,-4.3515,-4.3515,-4.3515,-4.3515,-4.3515,-4.3515,-4.1483,-4.1274,-4.099,-4.0593,-4.0489,-4.0489,-4.0489,-4.0489,-4.0489,-4.0489,-4.0489,-4.0489,-4.0489,-4.0489,-4.0489,-4.0489,-4.1355,-4.214,-4.254,-4.3402,-4.4163,-4.4564,-4.5172,-4.5849,-4.6526,-4.7508,-4.8396,-4.9175,-4.9723,-4.9726,-4.9055,-4.9001,-4.9001,-4.9001,-4.9001,-4.9001,-4.9001,-4.9001,-4.9001,-4.9001,-4.9001,-4.9001,-4.9001,-4.9001,-4.9001,-4.9001,-4.9001,-4.8426,0.0,-4.6972,-4.6177,-4.5213,-4.4784,-4.4615,-4.4615,-4.4615,-4.4615,-4.4615,-4.4615,-4.4615,-4.4615,-4.4615,-4.4615,-4.4615,-4.4615,-4.4615,-4.4615,-4.4615,-4.4615,-4.4615,-4.4615,-4.4615,-4.4615,-4.4615,-4.4615,-4.4615,-4.4615,-4.4615,-4.4615,-4.4615,-4.4615,-4.4615,-4.4615,-4.4615,-4.4626,-4.4682,-4.4372,-4.3988,-4.3586,-4.2939,-4.2264,-4.163,-4.1263,-4.138,-4.2203,-4.2596,-4.2864,-4.3124,-4.3214,-4.3214,-4.3142,-4.3214,-4.3214,-4.3124,-4.3375,-4.3515,-4.3515,-4.3515,-4.3515,-4.3515,-4.3515,-4.3515,-4.1232,-4.1006,-4.0776,-4.0341,-4.0197,-4.0243,-4.0443,-4.0489,-4.0489,-4.0489,-4.0489,-4.0489,-4.0489,-4.0489,-4.0489,-4.0489,-4.1124,-4.1832,-4.2509,-4.3156,-4.3855,-4.4533,-4.5041,-4.5557,-4.6234,-4.6911,-4.7621,-4.8434,-4.881,-4.8923,-4.8692,-4.8688,-4.875,-4.9001,-4.9001,-4.9001,-4.9001,-4.9001,-4.9001,-4.9001,-4.9001,-4.9001,-4.9001,-4.9001,-4.9001,-4.9001,-4.9001,-4.8595,0.0,-4.7107,-4.6363,-4.5635,-4.4902,-4.4615,-4.4615,-4.4615,-4.4615,-4.4615,-4.4615,-4.4615,-4.4615,-4.4615,-4.4615,-4.4615,-4.4615,-4.4615,-4.4615,-4.4615,-4.4615,-4.4615,-4.4615,-4.4615,-4.4615,-4.4615,-4.4615,-4.4615,-4.4615,-4.4615,-4.4615,-4.4615,-4.4615,-4.4615,-4.4615,-4.4615,-4.4615,-4.4615,-4.4615,-4.4412,-4.3826,-4.3555,-4.2987,-4.1965,-4.1322,-4.1186,-4.17,-4.2183,-4.2616,-4.2882,-4.3178,-4.325,-4.3069,-4.325,-4.325,-4.3069,-4.3357,-4.3515,-4.3515,-4.3515,-4.3515,-4.3515,-4.3515,-4.3515,-4.0372,-3.9919,-3.9456,-3.9506,-3.949,-3.9674,-4.0336,-4.0489,-4.0489,-4.0489,-4.0489,-4.0489,-4.0489,-4.0489,-4.0489,-4.0489,-4.1124,-4.1832,-4.2509,-4.3156,-4.3855,-4.4533,-4.4625,-4.4849,-4.5541,-4.6203,-4.6943,-4.7669,-4.7097,-4.7061,-4.7852,-4.7917,-4.8242,-4.897,-4.9001,-4.9001,-4.9001,-4.9001,-4.9001,-4.9001,-4.9001,-4.9001,-4.9001,-4.9001,-4.9001,-4.9001,-4.9001,-4.8595,0.0,-4.7107,-4.6363,-4.5635,-4.4902,-4.4615,-4.4615,-4.4615,-4.4615,-4.4615,-4.4615,-4.4615,-4.4615,-4.4615,-4.4615,-4.4615,-4.4615,-4.4615,-4.4615,-4.4615,-4.4615,-4.4615,-4.4615,-4.4615,-4.4615,-4.4615,-4.4615,-4.4615,-4.4615,-4.4615,-4.4615,-4.4615,-4.4615,-4.4615,-4.4615,-4.4615,-4.4615,-4.4615,-4.4615,-4.4615,-4.4598,-4.3893,-4.3375,-4.3375,-4.2066,-4.1179,-4.1123,-4.166,-4.2244,-4.2863,-4.2901,-4.3069,-4.348,-4.3123,-4.3087,-4.3497,-4.3497,-4.3515,-4.3515,-4.3515,-4.3515,-4.3515,-4.3515,-4.3515,-4.0397,-4.0161,-3.9998,-3.9534,-3.9129,-3.9,-3.9644,-3.9797,-3.9936,-4.0397,-4.0489,-4.0489,-4.0489,-4.0489,-4.0489,-4.0489,-4.0689,-4.1278,-4.2432,-4.2786,-4.3325,-4.4486,-4.4987,-4.5357,-4.5572,-4.6203,-4.6741,-4.6991,-4.6829,-4.6809,-4.7118,-4.7622,-4.8242,-4.897,-4.9001,-4.9001,-4.9001,-4.9001,-4.9001,-4.9001,-4.9001,-4.9001,-4.9001,-4.9001,-4.9001,-4.9001,-4.9001,-4.8595,-4.7821,-4.7107,-4.6363,-4.5635,-4.4902,-4.4615,-4.4615,-4.4615,-4.4615,-4.4615,-4.4615,-4.4615,-4.4615,-4.4615,-4.4615,-4.4615,-4.4615,-4.4615,-4.4615,-4.4615,-4.4615,-4.4615,-4.4615,-4.4615,-4.4615,-4.4615,-4.4615,-4.4615,-4.4615,-4.4615,-4.4615,-4.4615,-4.4615,-4.4615,-4.4615,-4.4615,-4.4615,-4.4615,-4.4615,-4.4615,-4.4615,-4.4395,-4.4012,-4.3443,-4.297,-4.2317,-4.138,-4.1366,-4.1525,-4.1785,-4.248,-4.2807,-4.2635,-4.305,-4.325,-4.3087,-4.3357,-4.3515,-4.3515,-4.3515,-4.3515,-4.3515,-4.3515,-4.3515,-3.9993,-3.9895,-3.9803,-3.9167,-3.8732,-3.8584,-3.9018,-3.9105,-3.929,-3.9967,-4.0105,-4.0197,-4.0443,-4.0489,-4.0489,-4.0489,-4.0489,-4.0889,-4.2063,-4.2448,-4.3094,-4.4456,-4.4979,-4.5311,-4.5572,-4.5741,-4.599,-4.6285,-4.6072,-4.6045,-4.6391,-4.7069,-4.7819,-4.8545,-4.8861,-4.9001,-4.9001,-4.9001,-4.9001,-4.9001,-4.9001,-4.9001,-4.9001,-4.9001,-4.9001,-4.9001,-4.9001,-4.8595,0.0,-4.7107,-4.6363,-4.5635,-4.4902,-4.4615,-4.4615,-4.4615,-4.4615,-4.4615,-4.4615,-4.4615,-4.4615,-4.4615,-4.4615,-4.4615,-4.4615,-4.4615,-4.4615,-4.4615,-4.4615,-4.4615,-4.4615,-4.4615,-4.4615,-4.4615,-4.4615,-4.4615,-4.4615,-4.4615,-4.4615,-4.4615,-4.4615,-4.4615,-4.4615,-4.4615,-4.4615,-4.4615,-4.4615,-4.4615,-4.4615,-4.4615,-4.4429,-4.391,-4.3589,-4.3058,-4.2232,-4.198,-4.1847,-4.177,-4.2706,-4.3018,-4.2496,-4.3124,-4.3375,-4.3124,-4.3375,-4.3515,-4.3515,-4.3515,-4.3515,-4.3515,-4.3515,-4.3515,0.0,-3.9232,-3.9084,-3.8521,-3.8365,-3.8355,-3.8407,-3.8431,0.0,-3.9308,-3.9493,-3.9674,-4.0305,-4.0459,-4.0489,-4.0489,-4.0489,-4.0751,-4.1494,-4.2217,-4.3156,-4.4471,-4.461,-4.4818,-4.5449,-4.4979,-4.4849,-4.5464,-4.4926,-4.4896,-4.5604,-4.6324,-4.7051,-4.7787,-4.8545,-4.894,-4.9001,-4.9001,-4.9001,-4.9001,-4.9001,-4.9001,-4.9001,-4.9001,-4.9001,-4.9001,-4.9001,-4.8562,-4.7753,-4.7073,-4.6329,-4.5551,-4.4886,-4.4615,-4.4615,-4.4615,-4.4615,-4.4615,-4.4615,-4.4615,-4.4615,-4.4615,-4.4615,-4.4615,-4.4615,-4.4615,-4.4615,-4.4615,-4.4615,-4.4615,-4.4615,-4.4615,-4.4615,-4.4615,-4.4615,-4.4615,-4.4615,-4.4615,-4.4615,-4.4615,-4.4615,-4.4615,-4.4615,-4.4615,-4.4615,-4.4615,-4.4615,-4.4615,-4.4615,-4.4615,-4.4615,-4.4615,-4.3927,-4.3504,-4.3504,-4.3289,-4.2964,-4.2526,-4.3319,-4.3534,-4.3024,-4.3397,-4.3645,-4.3663,-4.3608,-4.357,-4.3515,-4.3515,-4.3515,-4.3515,-4.3515,-4.3515,-3.9944,0.0,-3.9077,-3.8476,-3.7993,-3.7663,0.0,-3.7738,-3.7938,-3.8616,-3.9154,-3.9536,-3.969,-4.0136,-4.0489,-4.0489,-4.0489,-4.0751,-4.1494,-4.2602,-4.3685,-4.4517,-4.461,-4.4671,-4.4803,-4.4702,-4.4687,-4.4803,-4.4702,-4.4685,-4.4858,-4.5567,-4.6288,-4.7051,-4.7754,-4.845,-4.9001,-4.9001,-4.9001,-4.9001,-4.9001,-4.9001,-4.9001,-4.9001,-4.9001,-4.9001,-4.9001,-4.8257,-4.7056,-4.687,-4.6024,-4.4852,-4.4682,-4.4615,-4.4615,-4.4615,-4.4615,-4.4615,-4.4615,-4.4615,-4.4615,-4.4615,-4.4615,-4.4615,-4.4615,-4.4615,-4.4615,-4.4615,-4.4615,-4.4615,-4.4615,-4.4615,-4.4615,-4.4615,-4.4615,-4.4615,-4.4615,-4.4615,-4.4615,-4.4615,-4.4615,-4.4615,-4.4615,-4.4615,-4.4615,-4.4615,-4.4615,-4.4615,-4.4615,-4.4615,-4.4615,-4.4615,-4.4418,-4.4316,-4.4316,-4.3306,-4.2612,-4.2518,-4.3217,-4.3744,-4.3946,-4.4498,-4.4964,-4.5333,-4.4727,-4.4121,-4.3515,-4.3515,-4.3515,-4.3515,-4.3515,-4.3515,-4.0096,-3.967,-3.9055,-3.8446,-3.7854,-3.7333,-3.711,-3.703,-3.723,-3.7908,-3.8585,-3.9154,-3.9428,-4.0043,-4.0489,-4.0489,-4.0489,-4.0843,-4.1925,-4.2679,-4.3494,-4.4502,-4.461,-4.461,-4.461,-4.461,-4.461,-4.461,-4.461,-4.461,-4.461,-4.5311,-4.5861,-4.6288,-4.7001,-4.7754,-4.8482,-4.8829,-4.8829,-4.8513,-4.8829,-4.9001,-4.9001,-4.9001,-4.9001,-4.9001,-4.9001,-4.8156,-4.6786,-4.6786,-4.5923,-4.4615,-4.4615,-4.4615,-4.4615,-4.4615,-4.4615,-4.4615,-4.4615,-4.4615,-4.4615,-4.4615,-4.4615,-4.4615,-4.4615,-4.4615,-4.4615,-4.4615,-4.4615,-4.4615,-4.4615,-4.4615,-4.4615,-4.4615,-4.4615,-4.4615,-4.4615,-4.4615,-4.4615,-4.4615,-4.4615,-4.4615,-4.4615,-4.4615,-4.4615,-4.4615,-4.4615,-4.4615,-4.4615,-4.4615,-4.4615,-4.4615,-4.4615,-4.4615,-4.4615,-4.3908,-4.3335,-4.3015,-4.357,-4.394,-4.3978,-4.4728,-4.5276,-4.5567,-4.509,-4.4653,-4.4272,-4.4272,-4.4401,-4.458,-4.4213,-4.4048,-4.0096,-3.967,-3.9082,-3.8574,-3.7982,-3.7387,-3.6769,-3.6585,-3.6676,-3.7353,-3.8046,-3.8708,-3.94,-4.0043,-4.0489,-4.0489,-4.0489,-4.0981,-4.2417,-4.2602,-4.3094,-4.4456,-4.461,-4.461,-4.461,-4.461,-4.461,-4.461,-4.461,-4.461,-4.461,-4.5179,-4.5588,-4.5697,-4.6288,-4.6932,-4.7539,-4.8306,-4.8354,-4.7754,-4.8482,-4.8829,-4.8829,-4.8829,-4.8829,-4.8829,-4.8711,0.0,-4.6621,-4.6638,-4.5821,-4.4615,-4.4615,-4.4615,-4.4615,-4.4615,-4.4615,-4.4615,-4.4615,-4.4615,-4.4615,-4.4615,-4.4615,-4.4615,-4.4615,-4.4615,-4.4615,-4.4615,-4.4615,-4.4615,-4.4615,-4.4615,-4.4615,-4.4615,-4.4615,-4.4615,-4.4615,-4.4615,-4.4615,-4.4615,-4.4615,-4.4615,-4.4615,-4.4615,-4.4615,-4.4615,-4.4615,-4.4615,-4.4615,-4.4615,-4.4615,-4.4615,-4.4615,-4.4615,-4.4615,-4.4615,-4.4355,-4.3786,-4.4146,-4.4248,-4.3934,-4.4835,-4.5346,-4.5317,-4.5217,-4.5224,-4.5294,-4.5234,-4.5451,-4.5883,-4.5204,-4.4892,-4.0096,-3.967,-3.9179,-3.9082,-3.8601,-3.801,-3.7401,-3.6861,-3.6676,-3.7353,-3.8046,-3.8708,-3.94,-4.0043,-4.0489,-4.0489,-4.0489,-4.0981,-4.2417,-4.2602,-4.3094,-4.4456,-4.461,-4.461,-4.461,-4.461,-4.461,-4.461,-4.461,-4.461,-4.461,-4.4723,-4.5067,-4.566,-4.5805,-4.5897,-4.604,-4.6777,-4.7085,-4.6983,-4.7721,-4.8064,-4.8064,-4.8064,-4.8064,-4.8031,0.0,-4.6636,-4.5868,-4.5858,-4.5365,-4.4615,-4.4615,-4.4615,-4.4615,-4.4615,-4.4615,-4.4615,-4.4615,-4.4615,-4.4615,-4.4615,-4.4615,-4.4615,-4.4615,-4.4615,-4.4615,-4.4615,-4.4615,-4.4615,-4.4615,-4.4615,-4.4615,-4.4615,-4.4615,-4.4615,-4.4615,-4.4615,-4.4615,-4.4615,-4.4615,-4.4615,-4.4615,-4.4615,-4.4615,-4.4615,-4.4615,-4.4615,-4.4615,-4.4615,-4.4615,-4.4615,-4.4615,-4.4615,-4.4615,-4.4615,-4.4564,-4.4456,-4.4633,-4.4936,-4.5368,-4.6326,-4.655,-4.5885,-4.5969,-4.5906,-4.5697,-4.5372,-4.5451,-4.5902,-4.5773,-4.5718,-4.0096,-3.9918,-3.9696,-3.9696,-3.8739,-3.7738,-3.746,-3.6922,-3.6676,-3.7353,-3.8046,-3.8708,-3.94,-4.0043,-4.0489,-4.0489,-4.0489,-4.0981,-4.2417,-4.2602,-4.3094,-4.4456,-4.461,-4.461,-4.461,-4.461,-4.461,-4.461,-4.461,-4.461,-4.461,-4.461,-4.4761,-4.5104,-4.5104,-4.5104,-4.5104,-4.5458,-4.5805,-4.6218,-4.6932,-4.7522,-4.7885,-4.7489,-4.7522,-4.7852,0.0,-4.6362,-4.5696,-4.5711,-4.5263,-4.4615,-4.4615,-4.4615,-4.4615,-4.4615,-4.4615,-4.4615,-4.4615,-4.4615,-4.4615,-4.4615,-4.4615,-4.4615,-4.4615,-4.4615,-4.4615,-4.4615,-4.4615,-4.4615,-4.4615,-4.4615,-4.4615,-4.4615,-4.4615,-4.4615,-4.4615,-4.4615,-4.4615,-4.4615,-4.4615,-4.4615,-4.4615,-4.4615,-4.4615,-4.4615,-4.4615,-4.4615,-4.4615,-4.4615,-4.4615,-4.4615,-4.4615,-4.4615,-4.4615,-4.4615,-4.4615,-4.4615,-4.4737,-4.5042,-4.5563,-4.6074,-4.6307,-4.6274,-4.6252,-4.627,-4.6293,-4.6374,-4.6561,-4.6805,-4.6634,-4.6562,-4.0037,-4.0062,-4.0062,-4.007,-3.8947,-3.7767,-3.7637,-3.7274,-3.7095,-3.7632,-3.8277,-3.8954,-3.9598,-4.0136,-4.0489,-4.0489,-4.0489,-4.092,-4.2202,-4.2509,-4.3048,-4.424,-4.4517,-4.461,-4.461,-4.461,-4.461,-4.461,-4.461,-4.461,-4.461,-4.461,-4.461,-4.461,-4.461,-4.461,-4.461,-4.461,-4.4896,-4.5458,-4.6182,-4.6846,-4.7372,-4.6811,-4.6749,-4.7111,-4.6373,-4.5732,-4.5199,-4.5189,-4.4963,-4.4615,-4.4615,-4.4615,-4.4615,-4.4615,-4.4615,-4.4615,-4.4615,-4.4615,-4.4615,-4.4615,-4.4615,-4.4615,-4.4615,-4.4615,-4.4615,-4.4615,-4.4615,-4.4615,-4.4615,-4.4615,-4.4615,-4.4615,-4.4615,-4.4615,-4.4615,-4.4615,-4.4615,-4.4615,-4.4615,-4.4615,-4.4615,-4.4615,-4.4615,-4.4615,-4.4615,-4.4615,-4.4615,-4.4615,-4.4615,-4.4615,-4.4615,-4.4615,-4.4615,-4.4615,-4.4615,-4.4615,-4.4709,-4.4906,-4.5267,-4.5442,-4.5751,-4.6213,-4.6286,-4.6406,-4.666,-4.7107,-4.7349,-4.7424,-4.7296,-4.7218,-3.9901,-3.9926,-3.9935,-4.0087,-3.9575,-3.892,-3.8379,-3.8232,-3.8293,-3.8422,-3.897,-3.9613,-4.029,-4.0459,-4.0489,-4.0489,-4.0489,-4.0751,-4.1571,-4.2217,-4.2863,-4.3593,-4.424,-4.461,-4.461,-4.461,-4.461,-4.461,-4.461,-4.461,-4.461,-4.461,-4.461,-4.461,-4.461,-4.461,-4.461,-4.461,-4.461,-4.4685,-4.5421,-4.5805,-4.5877,-4.5805,-4.5492,-4.4913,-4.4145,-4.3786,-4.3766,-4.3682,-4.4023,-4.4615,-4.4615,-4.4615,-4.4615,-4.4615,-4.4615,-4.4615,-4.4615,-4.4615,-4.4615,-4.4615,-4.4615,-4.4615,-4.4615,-4.4615,-4.4615,-4.4615,-4.4615,-4.4615,-4.4615,-4.4615,-4.4615,-4.4615,-4.4615,-4.4615,-4.4615,-4.4615,-4.4615,-4.4615,-4.4615,-4.4615,-4.4615,-4.4615,-4.4615,-4.4615,-4.4615,-4.4615,-4.4615,-4.4615,-4.4615,-4.4615,-4.4615,-4.4615,-4.4615,-4.4615,-4.4615,-4.4615,-4.4598,-4.4626,-4.4654,-4.5089,-4.5329,-4.5381,-4.5975,-4.6382,-4.6501,-4.6683,-4.6822,-4.6976,-4.7388,-4.7563,-3.9781,-3.991,-4.0011,-3.9986,-4.022,-4.0181,-3.9141,-3.8642,-3.8529,-3.904,-3.9305,-3.969,-4.0366,-4.0489,-4.0489,-4.0489,-4.0489,-4.0751,-4.1494,-4.1817,-4.2371,-4.347,-4.3824,-4.4148,-4.4579,-4.461,-4.461,-4.461,-4.461,-4.461,-4.461,-4.461,-4.461,-4.461,-4.461,-4.461,-4.461,-4.461,-4.461,-4.461,-4.4896,-4.5253,-4.5681,-4.4799,-4.4507,-4.4642,-4.35,-4.3223,-4.3573,-4.3525,-4.3943,-4.4615,-4.4615,-4.4615,-4.4615,-4.4615,-4.4615,-4.4615,-4.4615,-4.4615,-4.4615,-4.4615,-4.4615,-4.4615,-4.4615,-4.4615,-4.4615,-4.4615,-4.4615,-4.4615,-4.4615,-4.4615,-4.4615,-4.4615,-4.4615,-4.4615,-4.4615,-4.4615,-4.4615,-4.4615,-4.4615,-4.4615,-4.4615,-4.4615,-4.4615,-4.4615,-4.4615,-4.4615,-4.4615,-4.4615,-4.4615,-4.4615,-4.4615,-4.4615,-4.4615,-4.4615,-4.4615,-4.4615,-4.4615,-4.4615,-4.4615,-4.4759,-4.5008,-4.5303,-4.5893,-4.6238,-4.6382,-4.6753,-4.6886,-4.6776,-4.7168,-4.7446,-3.9668,-3.9807,-3.9961,-3.9858,-4.0517,-4.0922,-3.9812,-3.9466,-3.936,-3.9475,-3.9659,-3.9951,-4.0413,-4.0489,-4.0489,-4.0489,-4.0489,-4.0674,-4.1186,-4.1447,-4.194,-4.2869,-4.3177,-4.3562,-4.424,-4.4302,-4.4379,-4.4594,-4.461,-4.461,-4.461,-4.4409,-4.4302,-4.4302,-4.4101,-4.3956,-4.3956,-4.3956,-4.3956,-4.3956,-4.3956,-4.4332,-4.5003,-4.3815,-4.3454,-4.3674,-4.2698,-4.2523,-4.2928,-4.2888,-4.341,-4.4281,-4.4514,-4.4615,-4.4615,-4.4615,-4.4615,-4.4615,-4.4615,-4.4615,-4.4615,-4.4615,-4.4615,-4.4615,-4.4615,-4.4615,-4.4615,-4.4615,-4.4615,-4.4615,-4.4615,-4.4615,-4.4615,-4.4615,-4.4615,-4.4615,-4.4615,-4.4615,-4.4615,-4.4615,-4.4615,-4.4615,-4.4615,-4.4615,-4.4615,-4.4615,-4.4615,-4.4615,-4.4615,-4.4615,-4.4615,-4.4615,-4.4615,-4.4615,-4.4615,-4.4615,-4.4615,-4.4615,-4.4615,-4.4615,-4.4615,-4.4615,-4.4759,-4.5072,-4.5588,-4.5843,-4.5835,-4.6352,-4.6465,-4.6182,-4.656,-4.6927,-3.9475,-3.959,-3.9703,-3.9703,-4.0456,-4.1003,-4.0286,-4.077,-4.1052,-3.9776,-4.0028,-4.0489,-4.0489,-4.0489,-4.0489,-4.0489,-4.0489,-4.0489,-4.0489,-4.114,-4.1586,-4.1601,-4.2186,-4.2848,-4.3531,-4.3593,-4.387,-4.4548,-4.4594,-4.4594,-4.4594,-4.3963,-4.3593,-4.3593,-4.294,-4.2602,-4.2602,-4.2602,-4.2602,-4.2602,-4.2602,-4.294,-4.3578,-4.2894,-4.2232,-4.1601,-4.1586,-4.1572,-4.1492,-4.1525,-4.23,-4.3571,-4.431,-4.4598,-4.4615,-4.4598,-4.4598,-4.4615,-4.4615,-4.4615,-4.4598,-4.4615,-4.4615,-4.4598,-4.4615,-4.4615,-4.4615,-4.4615,-4.4615,-4.4615,-4.4615,-4.4615,-4.4615,-4.4615,-4.4615,-4.4615,-4.4615,-4.4615,-4.4615,-4.4615,-4.4615,-4.4615,-4.4615,-4.4615,-4.4615,-4.4615,-4.4615,-4.4615,-4.4615,-4.4615,-4.4615,-4.4615,-4.4615,-4.4615,-4.4615,-4.4615,-4.4615,-4.4615,-4.4615,-4.4615,-4.4615,-4.4615,-4.4615,-4.4615,-4.5062,-4.5125,-4.4803,-4.5336,-4.5372,-4.5005,-4.5477,-4.5975,-3.9379,-3.9537,-3.9677,-3.959,-4.0648,-4.1411,-4.034,-4.077,-4.1165,-4.038,-4.0351,-4.0489,-4.0489,-4.0489,-4.0489,-4.0489,-4.0489,-4.0489,-4.0489,-4.0674,-4.1032,-4.154,-4.1786,-4.2155,-4.2833,-4.2894,-4.2971,-4.3171,-4.3187,-4.3187,-4.3187,-4.3002,-4.2894,-4.2894,-4.2709,-4.2602,-4.2602,-4.2602,-4.2602,-4.2602,-4.2125,-4.2248,-4.2863,-4.2202,-4.1786,-4.1571,-4.1063,-4.1072,-4.1575,-4.252,-4.3136,-4.3512,-4.3735,-4.4133,-4.4542,-4.4001,-4.4133,-4.4615,-4.4615,-4.4265,-4.3914,-4.444,-4.4236,-4.3914,-4.444,-4.4615,-4.4615,-4.4615,-4.4615,-4.4615,-4.4615,-4.4615,-4.4615,-4.4615,-4.4615,-4.4615,-4.4615,-4.4615,-4.4615,-4.4615,-4.4615,-4.4615,-4.4615,-4.4615,-4.4615,-4.4615,-4.4615,-4.4615,-4.4615,-4.4615,-4.4615,-4.4615,-4.4615,-4.4615,-4.4615,-4.4615,-4.4615,-4.4615,-4.4615,-4.4615,-4.4615,-4.4615,-4.4615,-4.4615,-4.5062,-4.5241,-4.5152,-4.5311,-4.5407,-4.5424,-4.5425,-4.5597,-3.9325,-3.9458,-3.959,-3.9458,-4.0681,-4.1732,-4.1023,-4.0944,-4.0938,-4.0569,-4.0489,-4.0489,-4.0489,-4.0489,-4.0489,-4.0489,-4.0489,-4.0489,-4.0489,-4.0489,-4.0659,-4.1124,-4.117,-4.1447,-4.214,-4.2202,-4.2309,-4.2586,-4.2602,-4.2602,-4.2602,-4.2355,-4.2202,-4.2202,-4.194,-4.1786,-4.1786,-4.1786,-4.1786,-4.1771,-4.137,-4.1351,-4.1664,-4.132,-4.117,-4.1155,-4.0674,-4.0715,-4.1176,-4.2269,-4.2707,-4.2738,-4.3015,-4.3363,-4.3739,-4.3588,-4.3781,-4.4179,-4.4179,-4.3869,-4.3512,-4.3693,-4.3663,-4.3571,-4.4047,-4.4384,-4.4615,-4.4615,-4.4615,-4.4615,-4.4615,-4.4615,-4.4615,-4.4615,-4.4615,-4.4615,-4.4615,-4.4615,-4.4615,-4.4615,-4.4615,-4.4615,-4.4615,-4.4615,-4.4615,-4.4615,-4.4615,-4.4615,-4.4615,-4.4615,-4.4615,-4.4615,-4.4615,-4.4615,-4.4615,-4.4615,-4.4615,-4.4615,-4.4615,-4.4615,-4.4615,-4.4615,-4.4615,-4.4615,-4.4879,-4.5008,-4.5008,-4.5008,-4.5079,-4.5203,-4.5079,-4.5205,-3.9299,-3.9395,-3.9432,-3.9325,-4.0573,-4.1818,-4.1947,-4.1227,-4.0558,-4.0489,-4.0489,-4.0489,-4.0489,-4.0489,-4.0489,-4.0489,-4.0489,-4.0489,-4.0489,-4.0489,-4.0505,-4.0489,-4.0489,-4.0751,-4.1412,-4.1509,-4.1755,-4.2371,-4.2381,-4.2381,-4.2417,-4.1797,-4.1474,-4.1474,-4.0808,-4.0455,-4.0455,-4.0455,-4.0455,-4.0455,-4.0455,-4.0401,-4.0277,-4.0436,-4.0489,-4.0489,-4.0489,-4.0489,-4.0558,-4.1209,-4.1492,-4.1558,-4.2173,-4.2458,-4.2552,-4.3106,-4.3363,-4.3376,-4.3406,-4.3363,-4.3227,-4.2676,-4.2892,-4.3347,-4.3453,-4.3972,-4.4514,-4.457,-4.4542,-4.4514,-4.457,-4.4542,-4.4514,-4.457,-4.4615,-4.4615,-4.4615,-4.4615,-4.4615,-4.4615,-4.4615,-4.4615,-4.4615,-4.4615,-4.4615,-4.4615,-4.4615,-4.4615,-4.4615,-4.4615,-4.4615,-4.4615,-4.4615,-4.4615,-4.4615,-4.4615,-4.4615,-4.4615,-4.4615,-4.4615,-4.4615,-4.4615,-4.4615,-4.4615,-4.4615,-4.4615,-4.4615,-4.4615,-4.4615,-4.4615,-4.4615,-4.4841,-3.9299,-3.9325,-3.9342,-3.9299,-4.0143,-4.1121,-4.1694,-4.1491,-4.0987,-4.047,-4.0436,-4.0489,-4.0489,-4.0401,-4.0331,-4.0331,-4.0331,-4.0331,-4.0331,-4.0436,-4.047,-4.0381,-4.0436,-4.0532,-4.0581,-4.065,-4.0782,-4.0935,-4.0846,-4.0846,-4.0935,-4.0567,-4.0436,-4.0561,-4.0283,-4.0101,-4.0101,-4.0101,-4.0101,-4.0101,-4.0101,-4.0101,-4.0066,-4.0277,-4.0331,-4.0347,-4.0455,-4.0489,-4.0558,-4.1209,-4.1492,-4.1525,-4.1641,-4.1981,-4.23,-4.2013,-4.2205,-4.2583,-4.2676,-4.2363,-4.1981,-4.2363,-4.2237,-4.2141,-4.3166,-4.3601,-4.3869,-4.444,-4.4179,-4.3869,-4.444,-4.4179,-4.3869,-4.4468,-4.4615,-4.4615,-4.4615,-4.4615,-4.4615,-4.4615,-4.4615,-4.4615,-4.4615,-4.4615,-4.4615,-4.4615,-4.4615,-4.4615,-4.4615,-4.4615,-4.4615,-4.4615,-4.4615,-4.4615,-4.4615,-4.4615,-4.4615,-4.4615,-4.4615,-4.4615,-4.4615,-4.4615,-4.4615,-4.4615,-4.4615,-4.4615,-4.4615,-4.4615,-4.4615,-4.4615,-4.4615,-4.4654,-3.9299,-3.9299,-3.9464,-4.0133,-4.075,-4.1269,-4.1565,-4.1656,-4.1343,-4.0246,-4.0226,-4.0366,-4.0261,-4.0207,-4.0172,-4.0172,-4.0172,-4.0172,-4.0172,-4.0242,-4.0226,-4.0172,-4.0242,-4.0261,-4.0312,-4.0277,-4.0296,-4.0401,-4.0242,-4.0172,-4.0261,-4.0101,-4.0046,-4.0137,-4.0031,-4.0011,-4.0011,-4.0011,-4.0011,-4.0011,-4.0011,-3.996,-3.9854,-4.0066,-4.0172,-4.0172,-4.0226,-4.0261,-4.0296,-4.0646,-4.0836,-4.0938,-4.0836,-4.1024,-4.1343,-4.1294,-4.1492,-4.1836,-4.1788,-4.1608,-4.1393,-4.1426,-4.1426,-4.1558,-4.23,-4.2769,-4.3106,-4.3469,-4.3303,-4.3106,-4.3499,-4.3558,-4.3617,-4.3972,-4.4338,-4.4615,-4.4615,-4.4615,-4.4615,-4.4615,-4.4615,-4.4615,-4.4615,-4.4615,-4.4615,-4.4615,-4.4615,-4.4615,-4.4615,-4.4615,-4.4615,-4.4615,-4.4615,-4.4615,-4.4615,-4.4615,-4.4615,-4.4615,-4.4615,-4.4615,-4.4615,-4.4615,-4.4615,-4.4615,-4.4615,-4.4615,-4.4615,-4.4615,-4.4615,-4.4615,-4.4615,-4.4615,-3.9299,-3.9299,-3.9587,-4.0739,-4.1269,-4.144,-4.1213,-4.148,-4.1362,-3.995,-3.998,-4.0207,-4.0031,-3.996,-3.996,-3.996,-3.996,-3.996,-3.996,-3.996,-3.9996,-3.996,-3.996,-4.0031,-4.0156,-4.0066,-4.0066,-4.0242,-4.0066,-3.996,-4.0011,-3.9925,-3.9889,-3.996,-3.9889,-3.9889,-3.9889,-3.9889,-3.9889,-3.9889,-3.9889,-3.9818,-3.9646,-3.9818,-3.994,-3.996,-3.996,-4.0011,-4.0011,-4.0011,-4.0101,-4.0242,-4.0066,-4.0066,-4.0261,-4.0665,-4.0907,-4.1008,-4.0873,-4.0956,-4.099,-4.0436,-4.0612,-4.1109,-4.1393,-4.1868,-4.2332,-4.2458,-4.2426,-4.2363,-4.2458,-4.2831,-4.3196,-4.3436,-4.3972,-4.444,-4.457,-4.4615,-4.4615,-4.4615,-4.4615,-4.4615,-4.4615,-4.4615,-4.4615,-4.4615,-4.4615,-4.4615,-4.4615,-4.4615,-4.4615,-4.4615,-4.4615,-4.4615,-4.4615,-4.4615,-4.4615,-4.4615,-4.4615,-4.4615,-4.4615,-4.4615,-4.4615,-4.4615,-4.4615,-4.4615,-4.4615,-4.4615,-4.4615,-4.4615,-4.4615,-4.4615,-3.9299,-3.9299,-3.9346,-3.9618,-4.0112,-4.0418,-3.9882,-4.0337,-4.06,-3.9646,-3.9747,-4.0031,-3.9996,-3.9854,-3.9732,-3.9732,-3.9732,-3.9732,-3.9732,-3.9889,-3.9925,-3.9768,-3.9889,-3.996,-3.9788,-3.9925,-4.0011,-4.0046,-3.9839,-3.9803,-3.9996,-3.9676,-3.9553,-3.9732,-3.9553,-3.9496,-3.9496,-3.9496,-3.9496,-3.9496,-3.9496,-3.946,-3.946,-3.946,-3.9604,-3.9768,-3.9925,-4.0011,-4.0011,-4.0011,-4.0011,-4.0046,-4.0011,-3.9925,-3.9803,-4.0051,-4.0051,-3.9915,-4.0086,-4.0156,-4.0172,-4.0066,-4.0101,-4.0331,-4.1075,-4.1393,-4.1624,-4.23,-4.2078,-4.1771,-4.2363,-4.2141,-4.2046,-4.3227,-4.3588,-4.381,-4.4468,-4.4615,-4.4615,-4.4615,-4.4615,-4.4615,-4.4615,-4.4615,-4.4615,-4.4615,-4.4615,-4.4615,-4.4615,-4.4615,-4.4615,-4.4615,-4.4615,-4.4615,-4.4615,-4.4615,-4.4615,-4.4615,-4.4615,-4.4615,-4.4615,-4.4615,-4.4615,-4.4615,-4.4615,-4.4615,-4.4615,-4.4615,-4.4615,-4.4615,-4.4615,-4.4615,-3.8339,-3.8226,-3.833,-3.8777,-3.9104,-3.9276,-3.9001,-3.9483,-3.9806,-3.9003,-3.9298,-3.9676,-3.9676,-3.9589,-3.9517,-3.9517,-3.9517,-3.9517,-3.9517,-3.9604,-3.964,-3.9553,-3.9604,-3.9661,-3.9696,-3.9676,-3.9711,-3.9803,-3.9661,-3.9553,-3.9676,-3.9496,-3.946,-3.9517,-3.946,-3.9388,-3.9388,-3.9388,-3.9388,-3.9388,-3.9388,-3.9388,-3.9388,-3.9388,-3.946,-3.9553,-3.964,-3.9676,-3.9676,-3.9676,-3.9747,-3.9803,-3.9711,-3.9661,-3.9696,-3.9661,-3.9661,-3.9696,-3.9661,-3.9747,-3.9839,-3.9839,-3.9839,-3.991,-4.0405,-4.0646,-4.0802,-4.1176,-4.1057,-4.0904,-4.1176,-4.1343,-4.1525,-4.2141,-4.2614,-4.3015,-4.3259,-4.4006,-4.4615,-4.4615,-4.4615,-4.4615,-4.4615,-4.4615,-4.4615,-4.4615,-4.4615,-4.4615,-4.4615,-4.4615,-4.4615,-4.4615,-4.4615,-4.4615,-4.4615,-4.4615,-4.4615,-4.4615,-4.4615,-4.4615,-4.4615,-4.4615,-4.4615,-4.4615,-4.4615,-4.4615,-4.4615,-4.4615,-4.4615,-4.4615,-4.4615,-4.4615,-3.7501,-3.7399,-3.7496,-3.7866,-3.8103,-3.8185,-3.8027,-3.8506,-3.8811,-3.8277,-3.8676,-3.9155,-3.9155,-3.9305,-3.9388,-3.9388,-3.9388,-3.9388,-3.9388,-3.9388,-3.9388,-3.9388,-3.9388,-3.9445,-3.9625,-3.9481,-3.9445,-3.9625,-3.9481,-3.9388,-3.9388,-3.9388,-3.9388,-3.9388,-3.9388,-3.9388,-3.9388,-3.9388,-3.9388,-3.9388,-3.9388,-3.9388,-3.9388,-3.9388,-3.9388,-3.9388,-3.9388,-3.9388,-3.9388,-3.9388,-3.9481,-3.9625,-3.9445,-3.9481,-3.9625,-3.946,-3.9481,-3.9589,-3.9445,-3.9481,-3.961,-3.961,-3.961,-3.9661,-3.9854,-4.0031,-4.0172,-4.0207,-4.0242,-4.0242,-4.0242,-4.0578,-4.1024,-4.1176,-4.1673,-4.2205,-4.2552,-4.3486,-4.4327,-4.4542,-4.4542,-4.4542,-4.4542,-4.4542,-4.4542,-4.4542,-4.457,-4.4615,-4.4615,-4.4615,-4.4615,-4.4615,-4.4615,-4.4615,-4.4615,-4.4615,-4.4615,-4.4615,-4.4615,-4.4615,-4.4615,-4.4615,-4.4615,-4.4615,-4.4615,-4.4615,-4.4615,-4.4615,-4.4615,-4.4615,-4.4615,-4.4615,-3.7399,-3.7399,-3.7266,-3.6646,-3.7,-3.7301,-3.674,-3.7083,-3.7499,-3.7464,-3.7988,-3.8437,-3.8437,-3.8975,-3.9388,-3.9388,-3.9388,-3.9388,-3.9388,-3.9388,-3.9388,-3.9388,-3.9388,-3.9409,-3.9409,-3.9424,-3.9409,-3.9409,-3.9424,-3.9388,-3.9388,-3.9388,-3.9388,-3.9388,-3.9388,-3.9388,-3.9388,-3.9388,-3.9388,-3.9388,-3.9388,-3.9388,-3.9388,-3.9388,-3.9388,-3.9388,-3.9388,-3.9388,-3.9388,-3.9388,-3.9424,-3.9409,-3.9409,-3.9424,-3.9409,-3.9409,-3.9424,-3.9409,-3.9388,-3.9424,-3.9424,-3.9424,-3.9424,-3.9445,-3.9646,-3.9717,-3.9768,-3.996,-4.0011,-4.0011,-4.0011,-4.0031,-4.0226,-4.0839,-4.1042,-4.1494,-4.3106,-4.341,-4.3621,-4.444,-4.444,-4.431,-4.431,-4.431,-4.431,-4.431,-4.4468,-4.4615,-4.4615,-4.4615,-4.4615,-4.4615,-4.4615,-4.4615,-4.4615,-4.4615,-4.4615,-4.4615,-4.4615,-4.4615,-4.4615,-4.4615,-4.4615,-4.4615,-4.4615,-4.4615,-4.4615,-4.4615,-4.4615,-4.4615,-4.4615,-4.4615,-3.6179,-3.6179,-3.6116,-3.5878,-3.5995,-3.6112,-3.5914,-3.6357,-3.6821,-3.6821,-3.7315,-3.7883,-3.8317,-3.896,-3.9388,-3.9388,-3.9388,-3.9388,-3.9388,-3.9388,-3.9388,-3.9388,-3.9388,-3.9388,-3.9388,-3.9388,-3.9388,-3.9388,-3.9388,-3.9388,-3.9388,-3.9388,-3.9388,-3.9388,-3.9388,-3.9388,-3.9388,-3.9388,-3.9388,-3.9388,-3.9388,-3.9388,-3.9388,-3.9388,-3.9388,-3.9388,-3.9388,-3.9388,-3.9388,-3.9388,-3.9388,-3.9388,-3.9388,-3.9388,-3.9388,-3.9388,-3.9388,-3.9388,-3.9388,-3.9388,-3.9388,-3.9388,-3.9388,-3.9409,-3.9496,-3.9589,-3.9732,-3.9803,-3.9803,-3.9803,-3.9803,-3.9803,-3.991,-4.0281,-4.0266,-4.0462,-4.1657,-4.2205,-4.2707,-4.3591,-4.3588,-4.3647,-4.4207,-4.4224,-4.4196,-4.4281,-4.4367,-4.4468,-4.457,-4.4615,-4.4615,-4.4615,-4.4615,-4.4615,-4.4615,-4.4615,-4.4615,-4.4615,-4.4615,-4.4615,-4.4615,-4.4615,-4.4615,-4.4615,-4.4615,-4.4615,-4.4615,-4.4615,-4.4615,-4.4615,-4.4615,-4.4615,-3.5504,-3.5504,-3.5504,-3.5504,-3.5504,-3.5504,-3.5504,-3.5848,-3.6148,-3.6148,-3.6656,-3.7225,-3.7674,-3.8482,-3.9155,-3.9343,-3.9388,-3.9388,-3.9388,-3.9388,-3.9388,-3.9388,-3.9388,-3.9388,-3.9388,-3.9388,-3.9388,-3.9388,-3.9388,-3.9388,-3.9388,-3.9388,-3.9388,-3.9388,-3.9388,-3.9388,-3.9388,-3.9388,-3.9388,-3.9388,-3.9388,-3.9388,-3.9388,-3.9388,-3.9388,-3.9388,-3.9388,-3.9388,-3.9388,-3.9388,-3.9388,-3.9388,-3.9388,-3.9388,-3.9388,-3.9388,-3.9388,-3.9388,-3.9388,-3.9388,-3.9388,-3.9388,-3.9388,-3.9388,-3.9388,-3.9481,-3.9589,-3.9589,-3.9589,-3.9589,-3.9589,-3.9589,-3.9625,-3.9783,-3.9711,-3.9753,-4.0339,-4.1044,-4.1836,-4.2676,-4.2691,-4.2845,-4.3663,-4.3726,-4.3772,-4.4126,-4.4196,-4.4298,-4.4485,-4.4497,-4.4542,-4.4598,-4.4615,-4.4615,-4.4615,-4.4615,-4.4615,-4.4615,-4.4615,-4.4615,-4.4615,-4.4615,-4.4615,-4.4615,-4.4615,-4.4615,-4.4615,-4.4615,-4.4615,-4.4615,-4.4615,-4.4615,0.0,0.0,0.0,-3.5504,-3.5504,-3.5504,-3.5504,-3.5504,-3.5504,-3.5504,-3.6013,-3.6462,-3.6492,-3.7494,-3.8556,-3.9245,-3.9358,-3.9388,-3.9388,-3.9388,-3.9388,-3.9388,-3.9388,-3.9388,-3.9388,-3.9388,-3.9388,-3.9388,-3.9388,-3.9388,-3.9388,-3.9388,-3.9388,-3.9388,-3.9388,-3.9388,-3.9388,-3.9388,-3.9388,-3.9388,-3.9388,-3.9388,-3.9388,-3.9388,-3.9388,-3.9388,-3.9388,-3.9388,-3.9388,-3.9388,-3.9388,-3.9388,-3.9388,-3.9388,-3.9388,-3.9388,-3.9388,-3.9388,-3.9388,-3.9388,-3.9388,-3.9388,-3.9388,-3.9388,-3.9388,-3.9388,-3.9388,-3.9388,-3.9388,-3.9388,-3.9388,-3.9388,-3.9388,-3.9388,-3.9388,-3.9388,-3.9388,-4.0045,-4.0912,-4.1804,-4.1788,-4.1901,-4.2645,-4.2754,-4.3017,-4.3763,-4.3998,-4.4126,-4.4281,-4.431,-4.4367,-4.457,-4.4615,-4.4615,-4.4615,-4.4615,-4.4615,-4.4615,-4.4615,-4.4615,-4.4615,-4.4615,-4.4615,-4.4615,-4.4615,-4.4615,-4.4615,-4.4615,-4.4615,-4.4615,-4.4615,-4.4615,-3.5504,0.0,0.0,0.0,0.0,0.0,-3.5504,-3.5504,-3.5504,-3.5504,-3.5654,-3.5923,-3.6402,-3.6776,-3.7225,-3.7853,-3.8781,-3.9388,-3.9388,-3.9388,-3.9388,-3.9388,-3.9388,-3.9388,-3.9388,-3.9388,-3.9388,-3.9388,-3.9388,-3.9388,-3.9388,-3.9388,-3.9388,-3.9388,-3.9388,-3.9388,-3.9388,-3.9388,-3.9388,-3.9388,-3.9388,-3.9388,-3.9388,-3.9388,-3.9388,-3.9388,-3.9388,-3.9388,-3.9388,-3.9388,-3.9388,-3.9388,-3.9388,-3.9388,-3.9388,-3.9388,-3.9388,-3.9388,-3.9388,-3.9388,-3.9388,-3.9388,-3.9388,-3.9388,-3.9388,-3.9388,-3.9388,-3.9388,-3.9388,-3.9388,-3.9388,-3.9388,-3.9388,-3.9388,-3.9388,-3.9388,-3.9388,-3.9574,-4.0025,-4.0894,-4.0943,-4.1078,-4.1869,-4.1917,-4.2126,-4.2972,-4.3125,-4.3413,-4.408,-4.4253,-4.4338,-4.4367,-4.4514,-4.4615,-4.4615,-4.4615,-4.4615,-4.4615,-4.4615,-4.4615,-4.4615,-4.4615,-4.4615,-4.4615,-4.4615,-4.4615,-4.4615,-4.4615,-4.4615,-4.4615,-4.4615,-4.4615,-3.5504,-3.5504,-3.5504,-3.5504,0.0,0.0,-3.5504,-3.5504,-3.5504,-3.5504,-3.5504,-3.5624,-3.6013,-3.6297,-3.6611,-3.6971,-3.7898,-3.8676,-3.8945,-3.899,-3.9095,-3.9394,-3.9388,-3.9388,-3.9388,-3.9388,-3.9388,-3.9388,-3.9388,-3.9388,-3.9388,-3.9388,-3.9388,-3.9388,-3.9388,-3.9388,-3.9388,-3.9388,-3.9388,-3.9388,-3.9388,-3.9388,-3.9388,-3.9388,-3.9388,-3.9388,-3.9388,-3.9388,-3.9388,-3.9388,-3.9388,-3.9388,-3.9388,-3.9388,-3.9388,-3.9388,-3.9388,-3.9388,-3.9388,-3.9388,-3.9388,-3.9388,-3.9388,-3.9388,-3.9388,-3.9388,-3.9388,-3.9388,-3.9388,-3.9388,-3.9388,-3.9388,-3.9388,-3.9388,-3.9388,-3.9388,-3.9388,-3.9388,-3.9538,-4.006,-4.0095,-4.027,-4.1078,-4.1111,-4.136,-4.2157,-4.2253,-4.2568,-4.3443,-4.3621,-4.3798,-4.4167,-4.4384,-4.4468,-4.4468,-4.4542,-4.4615,-4.4615,-4.4615,-4.4615,-4.4615,-4.4615,-4.4615,-4.4615,-4.4615,-4.4615,-4.4615,-4.4615,-4.4615,-4.4615,-4.4615,-4.4615,-3.5504,-3.5504,-3.5504,-3.5504,-3.5504,0.0,-3.5504,-3.5504,-3.5504,-3.5504,-3.5504,-3.5504,-3.5504,-3.5983,-3.6372,-3.6372,-3.6836,-3.7449,-3.8182,-3.8347,-3.8616,-3.923,-3.9328,-3.9388,-3.9388,-3.9388,-3.9388,-3.9388,-3.9388,-3.9388,-3.9388,-3.9388,-3.9388,-3.9388,-3.9388,-3.9388,-3.9388,-3.9388,-3.9388,-3.9388,-3.9388,-3.9388,-3.9388,-3.9388,-3.9388,-3.9388,-3.9388,-3.9388,-3.9388,-3.9388,-3.9388,-3.9388,-3.9388,-3.9388,-3.9388,-3.9388,-3.9388,-3.9388,-3.9388,-3.9388,-3.9388,-3.9388,-3.9388,-3.9388,-3.9388,-3.9388,-3.9388,-3.9388,-3.9388,-3.9388,-3.9388,-3.9388,-3.9388,-3.9388,-3.9388,-3.9388,-3.9388,-3.9388,-3.9388,-3.9388,-3.9388,-3.9625,-4.025,-4.0389,-4.0615,-4.1294,-4.1393,-4.1706,-4.2537,-4.2661,-4.3017,-4.386,-4.4109,-4.4207,-4.4293,-4.4468,-4.457,-4.4615,-4.457,-4.457,-4.4615,-4.4615,-4.4615,-4.4615,-4.4615,-4.4615,-4.4615,-4.4615,-4.4615,-4.4615,-4.4615,-4.4615,-3.5504,-3.5504,-3.5504,-3.5504,-3.5504,0.0,-3.5504,-3.5504,-3.5504,-3.5504,-3.5504,-3.5504,-3.5504,-3.5609,-3.5699,-3.5699,-3.5789,-3.6282,-3.7434,-3.8063,-3.8437,-3.8571,-3.908,-3.9388,-3.9388,-3.9388,-3.9388,-3.9388,-3.9388,-3.9388,-3.9388,-3.9388,-3.9388,-3.9388,-3.9388,-3.9388,-3.9388,-3.9388,-3.9388,-3.9388,-3.9388,-3.9388,-3.9388,-3.9388,-3.9388,-3.9388,-3.9388,-3.9388,-3.9388,-3.9388,-3.9388,-3.9388,-3.9388,-3.9388,-3.9388,-3.9388,-3.9388,-3.9388,-3.9388,-3.9388,-3.9388,-3.9388,-3.9388,-3.9388,-3.9388,-3.9388,-3.9388,-3.9388,-3.9388,-3.9388,-3.9388,-3.9388,-3.9388,-3.9388,-3.9388,-3.9388,-3.9388,-3.9388,-3.9388,-3.9388,-3.9388,-3.946,-3.9589,-3.961,-3.9844,-4.0581,-4.0718,-4.0959,-4.1641,-4.1852,-4.2221,-4.2986,-4.3336,-4.371,-4.4236,-4.4338,-4.444,-4.4598,-4.444,-4.444,-4.4598,-4.4615,-4.4615,-4.4615,-4.4615,-4.4615,-4.4615,-4.4615,-4.4615,-4.4615,-4.4615,-4.4615,-3.5504,-3.5504,-3.5504,-3.5504,-3.5504,0.0,0.0,-3.5504,-3.5504,-3.5504,-3.5504,-3.5504,-3.5504,-3.5504,-3.5504,-3.5504,-3.5504,-3.5729,-3.6372,-3.7285,-3.8018,-3.8347,-3.899,-3.9388,-3.9388,-3.9388,-3.9388,-3.9388,-3.9388,-3.9388,-3.9388,-3.9388,-3.9388,-3.9388,-3.9388,-3.9388,-3.9388,-3.9388,-3.9388,-3.9388,-3.9388,-3.9388,-3.9388,-3.9388,-3.9388,-3.9388,-3.9388,-3.9388,-3.9388,-3.9388,-3.9388,-3.9388,-3.9388,-3.9388,-3.9388,-3.9388,-3.9388,-3.9388,-3.9388,-3.9388,-3.9388,-3.9388,-3.9388,-3.9388,-3.9388,-3.9388,-3.9388,-3.9388,-3.9388,-3.9388,-3.9388,-3.9388,-3.9388,-3.9388,-3.9388,-3.9388,-3.9388,-3.9388,-3.9388,-3.9388,-3.9388,-3.9388,-3.9388,-3.9388,-3.9517,-3.9879,-3.995,-4.0216,-4.0907,-4.1044,-4.1362,-4.2094,-4.2693,-4.3229,-4.3617,-4.4047,-4.4338,-4.444,-4.444,-4.444,-4.444,-4.4542,-4.4615,-4.4615,-4.4497,-4.4497,-4.4615,-4.4615,-4.4615,-4.4615,-4.4615,-4.4615,-3.5729,-3.5684,-3.5669,-3.5534,-3.5504,-3.5504,0.0,0.0,0.0,-3.5504,-3.5504,-3.5504,-3.5504,-3.5504,-3.5504,-3.5504,-3.5504,-3.5504,-3.5504,-3.6507,-3.7464,-3.8123,-3.8811,-3.9275,-3.9373,-3.9388,-3.9388,-3.9388,-3.9388,-3.9388,-3.9388,-3.9388,-3.9388,-3.9388,-3.9388,-3.9388,-3.9388,-3.9388,-3.9388,-3.9388,-3.9388,-3.9388,-3.9388,-3.9388,-3.9388,-3.9388,-3.9388,-3.9388,-3.9388,-3.9388,-3.9388,-3.9388,-3.9388,-3.9388,-3.9388,-3.9388,-3.9388,-3.9388,-3.9388,-3.9388,-3.9388,-3.9388,-3.9388,-3.9388,-3.9388,-3.9388,-3.9388,-3.9388,-3.9388,-3.9388,-3.9388,-3.9388,-3.9388,-3.9388,-3.9388,-3.9388,-3.9388,-3.9388,-3.9388,-3.9388,-3.9388,-3.9388,-3.9388,-3.9388,-3.9388,-3.9388,-3.9388,-3.9625,-4.0216,-4.0285,-4.0547,-4.1227,-4.1949,-4.2552,-4.2937,-4.3617,-4.4105,-4.4253,-4.4412,-4.444,-4.431,-4.4468,-4.457,-4.4615,-4.4395,-4.4412,-4.4615,-4.4615,-4.4615,-4.4615,-4.4615,-4.4615,-3.6522,-3.6372,-3.6237,-3.5654,-3.5504,-3.5504,-3.5504,0.0,-3.5504,-3.5504,0.0,-3.5504,-3.5504,0.0,0.0,-3.5504,-3.5504,-3.5504,-3.5504,-3.6133,-3.6821,-3.7449,-3.8108,-3.8751,-3.9328,-3.9388,-3.9388,-3.9388,-3.9388,-3.9388,-3.9388,-3.9388,-3.9388,-3.9388,-3.9388,-3.9388,-3.9388,-3.9388,-3.9388,-3.9388,-3.9388,-3.9388,-3.9388,-3.9388,-3.9388,-3.9388,-3.9388,-3.9388,-3.9388,-3.9388,-3.9388,-3.9388,-3.9388,-3.9388,-3.9388,-3.9388,-3.9388,-3.9388,-3.9388,-3.9388,-3.9388,-3.9388,-3.9388,-3.9388,-3.9388,-3.9388,-3.9388,-3.9388,-3.9388,-3.9388,-3.9388,-3.9388,-3.9388,-3.9388,-3.9388,-3.9388,-3.9388,-3.9388,-3.9388,-3.9388,-3.9388,-3.9388,-3.9388,-3.9388,-3.9388,-3.9388,-3.9388,-3.9424,-3.9517,-3.9517,-3.9809,-4.0547,-4.0808,-4.1445,-4.2707,-4.3015,-4.3439,-4.4097,-4.4126,-4.4212,-4.431,-4.4338,-4.4412,-4.4615,-4.4395,-4.4412,-4.4615,-4.4615,-4.4615,-4.4615,-4.4615,-4.4615,-3.709,-3.7015,-3.6956,-3.6671,-3.6611,-3.6611,-3.6611,-3.6611,-3.6611,-3.6611,0.0,0.0,0.0,0.0,0.0,0.0,-3.5504,-3.5504,-3.5504,-3.5744,-3.6148,-3.6791,-3.7764,-3.8661,-3.9313,-3.9388,-3.9388,-3.9388,-3.9388,-3.9388,-3.9388,-3.9388,-3.9388,-3.9388,-3.9388,-3.9388,-3.9388,-3.9388,-3.9388,-3.9388,-3.9388,-3.9388,-3.9388,-3.9388,-3.9388,-3.9388,-3.9388,-3.9388,-3.9388,-3.9388,-3.9388,-3.9388,-3.9388,-3.9388,-3.9388,-3.9388,-3.9388,-3.9388,-3.9388,-3.9388,-3.9388,-3.9388,-3.9388,-3.9388,-3.9388,-3.9388,-3.9388,-3.9388,-3.9388,-3.9388,-3.9388,-3.9388,-3.9388,-3.9388,-3.9388,-3.9388,-3.9388,-3.9388,-3.9388,-3.9388,-3.9388,-3.9388,-3.9388,-3.9388,-3.9388,-3.9388,-3.9388,-3.9388,-3.9388,-3.9388,-3.9517,-3.9824,-4.0305,-4.0842,-4.1511,-4.2379,-4.3031,-4.3353,-4.3759,-4.4039,-4.4184,-4.4097,-4.4126,-4.4315,-4.4143,-4.4143,-4.4315,-4.4384,-4.444,-4.444,-4.4542,-4.4615,-3.7719,-3.7674,-3.7629,-3.7464,-3.7404,-3.7404,-3.7404,-3.7404,-3.7404,-3.7404,-3.7045,0.0,0.0,0.0,-3.5968,-3.5804,0.0,-3.5714,-3.5534,-3.5504,-3.5744,-3.6417,-3.7614,-3.8586,-3.9095,-3.9305,-3.9388,-3.9388,-3.9388,-3.9388,-3.9388,-3.9388,-3.9388,-3.9388,-3.9388,-3.9388,-3.9388,-3.9388,-3.9388,-3.9388,-3.9388,-3.9388,-3.9388,-3.9388,-3.9388,-3.9388,-3.9388,-3.9388,-3.9388,-3.9388,-3.9388,-3.9388,-3.9388,-3.9388,-3.9388,-3.9388,-3.9388,-3.9388,-3.9388,-3.9388,-3.9388,-3.9388,-3.9388,-3.9388,-3.9388,-3.9388,-3.9388,-3.9388,-3.9388,-3.9388,-3.9388,-3.9388,-3.9388,-3.9388,-3.9388,-3.9388,-3.9388,-3.9388,-3.9388,-3.9388,-3.9388,-3.9388,-3.9388,-3.9388,-3.9388,-3.9388,-3.9388,-3.9388,-3.9388,-3.9388,-3.9388,-3.9388,-3.9879,-4.0339,-4.0603,-4.1609,-4.2395,-4.2785,-4.3309,-4.3641,-4.3743,-4.3835,-4.3881,-4.3785,-4.3881,-4.3985,-4.4097,-4.4196,-4.4253,-4.4293,-4.4514,-4.4615,-3.8542,-3.8362,-3.8197,-3.7569,-3.7404,-3.7404,-3.7404,-3.7404,-3.7404,-3.7404,-3.7389,-3.7375,-3.7375,-3.736,-3.715,-3.6552,-3.6447,0.0,0.0,-3.5504,-3.5744,-3.6417,-3.7614,-3.8407,-3.8422,-3.9035,-3.9388,-3.9388,-3.9388,-3.9388,-3.9388,-3.9388,-3.9388,-3.9388,-3.9388,-3.9388,-3.9388,-3.9388,-3.9388,-3.9388,-3.9388,-3.9388,-3.9388,-3.9388,-3.9388,-3.9388,-3.9388,-3.9388,-3.9388,-3.9388,-3.9388,-3.9388,-3.9388,-3.9388,-3.9388,-3.9388,-3.9388,-3.9388,-3.9388,-3.9388,-3.9388,-3.9388,-3.9388,-3.9388,-3.9388,-3.9388,-3.9388,-3.9388,-3.9388,-3.9388,-3.9388,-3.9388,-3.9388,-3.9388,-3.9388,-3.9388,-3.9388,-3.9388,-3.9388,-3.9388,-3.9388,-3.9388,-3.9388,-3.9388,-3.9388,-3.9388,-3.9388,-3.9388,-3.9388,-3.9388,-3.9388,-3.9388,-3.9409,-3.9717,-4.0443,-4.0672,-4.1346,-4.2724,-4.2816,-4.2847,-4.2847,-4.3522,-4.3625,-4.3059,-4.3595,-4.3985,-4.4097,-4.4097,-4.4167,-4.4293,-4.4514,-4.4615,0.0,0.0,-3.8341,-3.8639,-3.8328,-3.8061,-3.8594,-3.8701,-3.8701,-3.8701,-3.8377,-3.8063,-3.8063,-3.7704,-3.7345,-3.7135,-3.6746,-3.6417,0.0,-3.5774,-3.5594,-3.5804,-3.6971,-3.7913,-3.8347,-3.902,-3.9388,-3.9388,-3.9388,-3.9156,-3.8612,-3.9119,-3.9156,-3.8612,-3.9119,-3.9388,-3.9388,-3.9388,-3.9388,-3.9388,-3.9388,-3.9388,-3.9388,-3.9388,-3.9388,-3.9388,-3.9388,-3.9388,-3.9388,-3.9388,-3.9388,-3.9388,-3.9388,-3.9388,-3.9388,-3.9388,-3.9388,-3.9388,-3.9388,-3.9388,-3.9388,-3.9388,-3.9388,-3.9388,-3.9388,-3.9388,-3.9388,-3.9388,-3.9388,-3.9388,-3.9388,-3.9388,-3.9388,-3.9388,-3.9388,-3.9388,-3.9388,-3.9388,-3.9388,-3.9388,-3.9388,-3.9388,-3.9388,-3.9388,-3.9388,-3.9388,-3.9388,-3.9388,-3.9388,-3.9388,-3.9388,-3.9388,-3.9388,-3.9517,-3.9753,-4.027,-4.0959,-4.1868,-4.1933,-4.1933,-4.1933,-4.2173,-4.2443,-4.274,-4.2943,-4.3265,-4.3776,-4.391,-4.3998,-4.4056,-4.42,-4.44,-3.842,-3.8008,0.0,-3.8271,-3.8008,0.0,-3.876,-3.8958,-3.8958,-3.8958,-3.885,-3.8558,-3.7886,-3.7952,-3.7893,-3.731,-3.7198,-3.7075,0.0,-3.6447,-3.6193,-3.6193,-3.6911,-3.7584,-3.8003,-3.862,-3.8958,-3.8958,-3.8671,-3.8271,-3.7758,-3.8234,-3.8412,-3.8202,-3.8701,-3.9119,-3.9388,-3.9388,-3.9388,-3.9388,-3.9388,-3.9388,-3.9388,-3.9388,-3.9388,-3.9388,-3.9388,-3.9388,-3.9388,-3.9388,-3.9388,-3.9388,-3.9388,-3.9388,-3.9388,-3.9388,-3.9388,-3.9388,-3.9388,-3.9388,-3.9388,-3.9388,-3.9388,-3.9388,-3.9388,-3.9388,-3.9388,-3.9388,-3.9388,-3.9388,-3.9388,-3.9388,-3.9388,-3.9388,-3.9388,-3.9388,-3.9388,-3.9388,-3.9388,-3.9388,-3.9388,-3.9388,-3.9388,-3.9388,-3.9388,-3.9388,-3.9388,-3.9388,-3.9388,-3.9388,-3.9388,-3.9388,-3.9388,-3.9388,-3.9388,-3.9859,-4.0409,-4.1093,-4.1127,-4.1127,-4.1127,-4.136,-4.1624,-4.1868,-4.2349,-4.2679,-4.2834,-4.3492,-4.3687,-4.3522,-4.3864,-4.4172]},{"header":{"parameterUnit":"m.s-1","parameterCategory":1,"la1":30.6,"la2":29.2853,"lo1":-89.7004,"lo2":-87.6739,"dy":0.0162,"dx":0.0183,"nx":112,"ny":82,"refTime":"2024-04-27T06:00:00:Z","depth":0,"parameterNumber":3,"parameterNumberName":"V-component_of_WINDS"},"data":[0.0,0.0,0.0,0.0,0.0,0.0,0.0,0.0,0.0,0.0,0.0,0.0,0.0,0.0,0.0,0.0,0.0,0.0,0.0,0.0,0.0,0.0,0.0,0.0,0.0,0.0,0.0,0.0,0.0,0.0,0.0,0.0,0.0,0.0,0.0,0.0,0.0,0.0,0.0,0.0,0.0,0.0,0.0,0.0,0.0,0.0,0.0,0.0,0.0,0.0,0.0,0.0,0.0,0.0,0.0,0.0,0.0,0.0,0.0,0.0,0.0,0.0,0.0,0.0,0.0,0.0,0.0,0.0,0.0,0.0,0.0,0.0,0.0,0.0,0.0,0.0,0.0,0.0,0.0,0.0,0.0,0.0,0.0,0.0,0.0,0.0,0.0,0.0,0.0,0.0,0.313,0.1793,0.148,0.1391,0.1391,0.1391,0.1391,0.1391,0.0,0.0,0.0,0.0,0.0,0.0,0.0,0.0,0.0,0.0,0.0,0.0,0.0,0.0,0.0,0.0,0.0,0.0,0.0,0.0,0.0,0.0,0.0,0.0,0.0,0.0,0.0,0.0,0.0,0.0,0.0,0.0,0.0,0.0,0.0,0.0,0.0,0.0,0.0,0.0,0.0,0.0,0.0,0.0,0.0,0.0,0.0,0.0,0.0,0.0,0.0,0.0,0.0,0.0,0.0,0.0,0.0,0.0,0.0,0.0,0.0,0.0,0.0,0.0,0.0,0.0,0.0,0.0,0.0,0.0,0.0,0.0,0.0,0.0,0.0,0.0,0.0,0.0,0.0,0.0,0.0,0.0,0.0,0.0,0.0,0.0,0.0,0.0,0.0,0.0,0.0,0.0,0.0,0.0,0.0,0.0,0.0,0.0,0.0,0.0,0.0,0.0,0.0,0.0,0.4912,0.2867,0.1928,0.1391,0.1391,0.1391,0.1391,0.1391,0.0,0.0,0.0,0.0,0.0,0.0,0.0,0.0,0.0,0.0,0.0,0.0,0.0,0.0,0.0,0.0,0.0,0.0,0.0,0.0,0.0,0.0,0.0,0.0,0.0,0.0,0.0,0.0,0.0,0.0,0.0,0.0,0.0,0.0,0.0,0.0,0.0,0.0,0.0,0.0,0.0,0.0,0.0,0.0,0.0,0.0,0.0,0.0,0.0,0.0,0.0,0.0,0.0,0.0,0.0,0.0,0.0,0.0,0.0,0.0,0.0,0.0,0.0,0.0,0.0,0.0,0.0,0.0,0.0,0.0,0.0,0.0,0.0,0.0,0.0,0.0,0.0,0.0,0.0,0.0,0.0,0.0,0.0,0.0,0.0,0.0,0.0,0.0,0.0,0.0,0.0,0.0,0.0,0.0,0.0,0.0,0.0,0.0,0.0,0.0,0.0,0.0,0.0,0.5575,0.4734,0.3757,0.2776,0.2196,0.2196,0.1704,0.1391,0.1391,0.1391,0.0,0.0,0.0,0.0,0.0,0.0,0.0,0.0,0.0,0.0,0.0,0.0,0.0,0.0,0.0,0.0,0.0,0.0,0.0,0.0,0.0,0.0,0.0,0.0,0.0,0.0,0.0,0.0,0.0,0.0,0.0,0.0,0.0,0.0,0.0,0.0,0.0,0.0,0.0,0.0,0.0,0.0,0.0,0.0,0.0,0.0,0.0,0.0,0.0,0.0,0.0,0.0,0.0,0.0,0.0,0.0,0.0,0.0,0.0,0.0,0.0,0.0,0.0,0.0,0.0,0.0,0.0,0.0,0.0,0.0,0.0,0.0,0.0,0.0,0.0,0.0,0.0,0.0,0.0,0.0,0.0,0.0,0.0,0.0,0.0,0.0,0.0,0.0,0.0,0.0,0.0,0.0,0.0,0.0,0.0,0.0,0.0,0.0,0.0,0.0,0.0,0.0,0.5575,0.4732,0.4732,0.3846,0.3223,0.3223,0.233,0.1749,0.1749,0.1524,0.0,0.0,0.0,0.0,0.0,0.0,0.0,0.0,0.0,0.0,0.0,0.0,0.0,0.0,0.0,0.0,0.0,0.0,0.0,0.0,0.0,0.0,0.0,0.0,0.0,0.0,0.0,0.0,0.0,0.0,0.0,0.0,0.0,0.0,0.0,0.0,0.0,0.0,0.0,0.0,0.0,0.0,0.0,0.0,0.0,0.0,0.0,0.0,0.0,0.0,0.0,0.0,0.0,0.0,0.0,0.0,0.0,0.0,0.0,0.0,0.0,0.0,0.0,0.0,0.0,0.0,0.0,0.0,0.0,0.0,0.0,0.0,0.0,0.0,0.0,0.0,0.0,0.0,0.0,0.0,0.0,0.0,0.0,0.0,0.0,0.0,0.0,0.0,0.0,0.0,0.0,0.0,0.0,0.0,0.0,0.0,0.0,0.0,0.0,0.0,0.0,0.0,0.6864,0.598,0.598,0.491,0.42,0.42,0.3357,0.2778,0.2778,0.1928,0.0,0.0,0.0,0.0,0.0,0.0,0.0,0.0,0.0,0.0,0.0,0.0,0.0,0.0,0.0,0.0,0.0,0.0,0.0,0.0,0.0,0.0,0.0,0.0,0.0,0.0,0.0,0.0,0.0,0.0,0.0,0.0,0.0,0.0,0.0,0.0,0.0,0.0,0.0,0.0,0.0,0.0,0.0,0.0,0.0,0.0,0.0,0.0,0.0,0.0,0.0,0.0,0.0,0.0,0.0,0.0,0.0,0.0,0.0,0.0,0.0,0.0,0.0,0.0,0.0,0.0,0.0,0.0,0.0,0.0,0.0,0.0,0.0,0.0,0.0,0.0,0.0,0.0,0.0,0.0,0.0,0.0,0.0,0.0,0.0,0.0,0.0,0.0,0.0,0.0,0.0,0.0,0.0,0.0,0.0,0.0,0.0,0.0,0.0,0.0,0.0,0.0,0.7625,0.7139,0.701,0.6027,0.5356,0.5181,0.4425,0.3669,0.2956,0.0,0.0,0.0,0.0,0.0,0.0,0.0,0.0,0.0,0.0,0.0,0.0,0.0,0.0,0.0,0.0,0.0,0.0,0.0,0.0,0.0,0.0,0.0,0.0,0.0,0.0,0.0,0.0,0.0,0.0,0.0,0.0,0.0,0.0,0.0,0.0,0.0,0.0,0.0,0.0,0.0,0.0,0.0,0.0,0.0,0.0,0.0,0.0,0.0,0.0,0.0,0.0,0.0,0.0,0.0,0.0,0.0,0.0,0.0,0.0,0.0,0.0,0.0,0.0,0.0,0.0,0.0,0.0,0.0,0.0,0.0,0.0,0.0,0.0,0.0,0.0,0.0,0.0,0.0,0.0,0.0,0.0,0.0,0.0,0.0,0.0,0.0,0.0,0.0,0.0,0.0,0.0,0.0,0.0,0.0,0.0,0.0,0.0,0.0,0.0,0.0,0.0,0.8336,0.8116,0.794,0.7724,0.7095,0.6561,0.6299,0.5539,0.4736,0.3979,0.0,0.0,0.0,0.0,0.0,0.0,0.0,0.0,0.0,0.0,0.0,0.0,0.0,0.0,0.0,0.0,0.0,0.0,0.0,0.0,0.0,0.0,0.0,0.0,0.0,0.0,0.0,0.0,0.0,0.0,0.0,0.0,0.0,0.0,0.0,0.0,0.0,0.0,0.0,0.0,0.0,0.0,0.0,0.0,0.0,0.0,0.0,0.0,0.0,0.0,0.0,0.0,0.0,0.0,0.0,0.0,0.0,0.0,0.0,0.0,0.0,0.0,0.0,0.0,0.0,0.0,0.0,0.0,0.0,0.0,0.0,0.0,0.0,0.0,0.0,0.0,0.0,0.0,0.0,0.0,0.0,0.0,0.0,0.0,0.0,0.0,0.0,0.0,0.0,0.0,0.0,0.0,0.0,0.0,0.0,0.0,0.0,0.0,0.0,0.0,0.0,0.0,0.8612,0.838,0.8201,0.8201,0.8028,0.7812,0.7507,0.665,0.6113,0.0,0.0,0.0,0.0,0.0,0.0,0.0,0.0,0.0,0.0,0.0,0.0,0.0,0.0,0.0,0.0,0.0,0.0,0.0,0.0,0.0,0.0,0.0,0.0,0.0,0.0,0.0,0.0,0.0,0.0,0.0,0.0,0.0,0.0,0.0,0.0,0.0,0.0,0.0,0.0,0.0,0.0,0.0,0.0,0.0,0.0,0.0,0.0,0.0,0.0,0.0,0.0,0.0,0.0,0.0,0.0,0.0,0.0,0.0,0.0,0.0,0.0,0.0,0.0,0.0,0.0,0.0,0.0,0.0,0.0,0.0,0.0,0.0,0.0,0.0,0.0,0.0,0.0,0.0,0.0,0.0,0.0,0.0,0.0,0.0,0.0,0.0,0.0,0.0,0.0,0.0,0.0,0.0,0.0,0.0,0.0,0.0,0.0,0.0,0.0,0.0,0.0,0.0,0.8612,0.852,0.8428,0.8201,0.8157,0.8028,0.7812,0.7669,0.7221,0.6372,0.0,0.0,0.0,0.0,0.0,0.0,0.0,0.0,0.0,0.0,0.0,0.0,0.0,0.0,0.0,0.0,0.0,0.0,0.0,0.0,0.0,0.0,0.0,0.0,0.0,0.0,0.0,0.0,0.0,0.0,0.0,0.0,0.0,0.0,0.0,0.0,0.0,0.0,0.0,0.0,0.0,0.0,0.0,0.0,0.0,0.0,0.0,0.0,0.0,0.0,0.0,0.0,0.0,0.0,0.0,0.0,0.0,0.0,0.0,0.0,0.0,0.0,0.0,0.0,0.0,0.0,0.0,0.0,0.0,0.0,0.0,0.0,0.0,0.0,0.0,0.0,0.0,0.0,0.0,0.0,0.0,0.0,0.0,0.0,0.0,0.0,0.0,0.0,0.0,0.0,0.0,0.0,0.0,0.0,0.0,0.0,0.0,0.0,0.0,0.0,0.0,0.0,0.8612,0.8612,0.852,0.838,0.838,0.8248,0.8028,0.8113,0.7885,0.7173,0.0,0.0,0.0,0.0,0.0,0.0,0.0,0.0,0.0,0.0,0.0,0.0,0.0,0.0,0.0,0.0,0.0,0.0,0.0,0.0,0.0,0.0,0.0,0.0,0.0,0.0,0.0,0.0,0.0,0.0,0.0,0.0,0.0,0.0,0.0,0.0,0.0,0.0,0.0,0.0,0.0,0.0,0.0,0.0,0.0,0.0,0.0,0.0,0.0,0.0,0.0,0.0,0.0,0.0,0.0,0.0,0.0,0.0,0.0,0.0,0.0,0.0,0.0,0.0,0.0,0.0,0.0,0.0,0.0,0.0,0.0,0.0,0.0,0.0,0.0,0.0,0.0,0.0,0.0,0.0,0.0,0.0,0.0,0.0,0.0,0.0,0.0,0.0,0.0,0.0,0.0,0.0,0.0,0.0,0.0,0.0,0.0,0.0,0.0,0.0,0.0,0.0,0.8612,0.8612,0.8612,0.8612,0.8612,0.852,0.8245,0.8245,0.8245,0.8245,0.0,0.0,0.0,0.0,0.0,0.0,0.0,0.0,0.0,0.0,0.0,0.0,0.0,0.0,0.0,0.0,0.0,0.0,0.0,0.0,0.0,0.0,0.0,0.0,0.0,0.0,0.0,0.0,0.0,0.0,0.0,0.0,0.0,0.0,0.0,0.0,0.0,0.0,0.0,0.0,0.0,0.0,0.0,0.0,0.0,0.0,0.0,0.0,0.0,0.0,0.0,0.0,0.0,0.0,0.0,0.0,0.0,0.0,0.0,0.0,1.5921,1.5811,0.0,0.0,0.0,0.0,0.0,0.0,0.0,0.0,0.0,0.0,0.0,0.0,0.0,0.0,0.0,0.0,0.0,0.0,0.0,0.0,0.0,0.0,0.0,0.0,0.0,0.0,0.0,0.0,0.0,0.0,0.0,0.0,0.0,0.0,0.0,0.0,0.0,0.0,0.0,0.0,0.8612,0.8612,0.8612,0.8612,0.8612,0.8568,0.852,0.852,0.852,0.852,0.8476,0.0,0.0,0.0,0.0,0.0,0.0,0.0,0.0,0.0,0.0,0.0,0.0,0.0,0.0,0.0,0.0,0.0,0.0,0.0,0.0,0.0,0.0,0.0,0.0,0.0,0.0,0.0,0.0,0.0,0.0,0.0,0.0,0.0,0.0,0.0,0.0,0.0,0.0,0.0,0.0,0.0,0.0,0.0,0.0,0.0,0.0,0.0,0.0,0.0,0.0,0.0,0.0,0.0,0.0,0.0,0.0,0.0,0.0,0.0,1.6551,1.6133,0.0,0.0,0.0,0.0,0.0,0.0,0.0,0.0,0.0,0.0,0.0,0.0,0.0,0.0,0.0,0.0,0.0,0.0,0.0,0.0,0.0,0.0,0.0,0.0,0.0,0.0,0.0,0.0,0.0,0.0,0.0,0.0,0.0,0.0,0.0,0.0,0.0,0.0,0.0,0.0,0.8652,0.8955,0.9043,0.8656,0.8612,0.8612,0.8612,0.8612,0.8612,0.8612,0.8612,0.0,0.0,0.0,0.0,0.0,0.0,0.0,0.0,0.0,0.0,0.0,0.0,0.0,0.0,0.0,0.0,0.0,0.0,0.0,0.0,0.0,0.0,0.0,0.0,0.0,0.0,0.0,0.0,0.0,0.0,0.0,0.0,0.0,0.0,0.0,0.0,0.0,0.0,0.0,0.0,0.0,0.0,0.0,0.0,0.0,0.0,0.0,0.0,0.0,0.0,0.0,0.0,0.0,2.0702,2.0702,2.0657,2.0292,1.9695,1.8892,1.7379,1.6653,1.6492,1.6433,0.0,0.0,0.0,0.0,0.0,0.0,0.0,0.0,0.0,0.0,0.0,0.0,0.0,0.0,0.0,0.0,0.0,0.0,0.0,0.0,0.0,0.0,1.3695,0.0,1.2357,1.2747,1.1972,0.0,0.0,0.0,0.0,0.0,0.0,0.0,0.0,0.0,0.0,0.0,0.9174,0.9689,0.9859,0.913,0.9087,0.9087,0.9087,0.9087,0.8999,0.8828,0.8828,0.8669,0.0,0.0,0.0,0.0,0.0,0.0,0.0,0.0,0.0,0.0,0.0,0.0,0.0,0.0,0.0,0.0,0.0,0.0,0.0,0.0,0.0,0.0,0.0,0.0,0.0,0.0,0.0,0.0,0.0,0.0,0.0,0.0,2.3091,2.3091,0.0,0.0,0.0,0.0,0.0,0.0,0.0,0.0,0.0,0.0,0.0,0.0,0.0,2.2494,2.2017,2.2907,2.3096,2.2637,2.2637,2.2637,2.2591,2.0741,1.9878,1.9685,1.8559,0.0,1.6815,1.6529,0.0,0.0,0.0,0.0,0.0,0.0,0.0,0.0,0.0,0.0,0.0,0.0,0.0,0.0,0.0,0.0,0.0,0.0,0.0,0.0,0.0,0.0,1.4046,1.3786,1.3828,1.387,0.0,1.2443,1.1278,1.1154,1.1106,1.0809,0.0,0.0,0.0,0.0,0.0,0.0,1.0982,1.102,1.1068,1.0982,1.0939,1.0939,1.0939,1.0939,1.0593,0.9772,0.9728,0.9375,0.8575,0.8353,0.0,0.0,0.0,0.0,0.0,0.0,0.0,0.0,0.0,0.0,0.0,0.0,0.0,0.0,0.0,0.0,0.0,0.0,0.0,0.0,0.0,0.0,0.0,0.0,0.0,0.0,0.0,0.0,0.0,2.3091,2.3091,2.3091,2.3091,2.3091,0.0,0.0,0.0,0.0,0.0,0.0,0.0,0.0,0.0,2.3803,2.3812,2.3709,2.3471,2.3902,2.3999,2.3802,2.3802,2.3802,2.3746,2.284,2.2123,2.1601,2.1123,2.0044,1.8518,1.7591,1.7077,1.6887,0.0,0.0,0.0,0.0,1.6411,1.6389,1.6213,1.617,1.6148,1.6001,0.0,0.0,0.0,0.0,0.0,0.0,0.0,1.474,0.0,0.0,1.4289,1.4128,1.4088,1.4088,1.4088,1.3434,1.2705,1.2186,1.21,1.18,1.0852,1.1025,0.0,0.0,0.0,1.1886,1.137,1.1757,1.1886,1.1365,1.1284,1.1284,1.1284,1.1284,1.1106,1.0722,1.0679,1.0506,1.012,0.9334,0.9083,0.0,0.0,0.0,0.0,0.0,0.0,0.0,0.0,0.0,0.0,0.0,0.0,0.0,0.0,0.0,0.0,0.0,0.0,0.0,0.0,0.0,0.0,0.0,0.0,0.0,0.0,0.0,0.0,2.3091,2.3091,2.3091,2.3091,2.314,0.0,0.0,0.0,0.0,0.0,0.0,2.3935,2.3945,2.4092,2.4404,2.4414,2.4473,2.458,2.458,2.4639,2.4709,2.4709,2.4709,2.4709,2.4455,2.3919,2.3246,2.3008,2.1931,2.0322,1.8924,1.7982,1.7428,1.7194,1.7094,1.6991,1.6704,1.6616,1.6601,1.6565,1.6536,1.6521,1.6441,1.6411,1.6367,1.633,0.0,0.0,0.0,0.0,1.5209,1.5027,1.4805,1.4583,1.4362,1.4309,1.4309,1.4309,1.4249,1.3962,1.3192,1.3052,1.2747,1.1843,1.1843,0.0,1.1671,1.2448,1.279,1.21,1.2619,1.279,1.21,1.2015,1.2015,1.2015,1.2015,1.1929,1.1666,1.1671,1.1515,1.1193,1.031,1.0004,1.0388,0.0,0.0,0.0,0.0,0.0,0.0,0.0,0.0,0.0,0.0,0.0,0.0,0.0,0.0,0.0,0.0,0.0,0.0,0.0,0.0,0.0,0.0,0.0,0.0,0.0,0.0,0.0,0.0,0.0,2.3091,2.3091,0.0,0.0,0.0,0.0,2.4326,2.4355,2.4365,2.4385,2.4385,2.4394,2.4414,2.4414,2.4619,2.5077,2.5077,2.5254,2.5615,2.5615,2.5615,2.5625,2.4592,2.4082,2.3974,2.2982,2.2276,2.181,2.0378,1.898,1.7786,1.7772,1.7574,1.7304,1.7235,1.7235,1.7238,1.6976,1.6873,1.6822,1.6514,1.6411,1.6367,1.6116,1.5894,0.0,0.0,1.5359,1.5053,1.5212,1.5122,1.4981,1.4968,1.4961,1.4961,1.4961,1.4696,1.4372,0.0,1.4046,1.3743,1.279,0.0,1.3659,1.2747,1.344,1.3997,1.3962,1.4004,1.4004,1.3955,1.3955,1.3955,1.3955,1.3955,1.3568,1.2705,1.2619,1.2124,1.0962,1.0846,1.0552,0.9943,0.9857,0.0,0.0,0.0,0.0,0.0,0.0,0.0,0.0,0.0,0.0,0.0,0.0,0.0,0.0,0.0,0.0,0.0,0.0,0.0,0.0,0.0,0.0,0.0,0.0,0.0,0.0,0.0,0.0,2.3555,2.3799,0.0,2.418,2.4199,2.4258,2.4404,2.4414,2.4541,2.4814,2.4834,2.4971,2.5206,2.5216,2.5342,2.5498,2.5498,2.5586,2.5693,2.5693,2.5693,2.5693,2.5323,2.5118,2.5118,2.4716,2.4122,2.3319,2.2823,2.1664,2.011,1.9405,1.9093,1.8866,1.7952,1.764,1.7596,1.7274,1.7157,1.7135,1.7026,1.6904,1.6774,1.6689,1.6451,1.6306,1.6306,1.6035,1.5769,1.567,1.5427,1.5197,1.5055,1.5008,1.5008,1.5008,1.4921,1.4776,1.4713,1.4392,1.3997,1.3659,1.387,1.3997,1.3652,1.387,1.4088,1.4088,1.4088,1.4088,1.4088,1.4088,1.4088,1.4088,1.4088,1.3955,1.361,1.3394,1.308,1.2649,1.1773,1.1459,1.1746,1.1039,1.0601,0.0,0.0,0.0,0.0,0.0,0.0,0.0,0.0,0.0,0.0,0.0,0.0,0.0,0.0,0.0,0.0,0.0,0.0,0.0,0.0,0.0,0.0,0.0,0.0,0.0,2.4161,2.3838,2.3984,2.4248,2.4473,2.4619,2.4639,2.4697,2.4853,2.4816,2.5049,2.5488,2.5566,2.5713,2.6103,2.6122,2.6122,2.6122,2.6122,2.6122,2.6122,2.6025,2.5957,2.5947,2.5752,2.5693,2.5693,2.5693,2.5274,2.4648,2.4648,2.398,2.2745,2.0825,1.998,1.9756,1.8432,1.7977,1.7933,1.7604,1.7494,1.7425,1.7315,1.7192,1.7113,1.7113,1.6925,1.673,1.6636,1.6407,1.6129,1.5885,1.5684,1.5491,1.5304,1.5257,1.5257,1.5257,1.5177,1.511,1.511,1.4636,1.4229,1.4229,1.4155,1.4088,1.4088,1.4088,1.4088,1.4088,1.4088,1.4088,1.4088,1.4088,1.4088,1.4088,1.4088,1.4088,1.4088,1.3808,1.356,1.346,1.2498,1.2152,1.2636,1.1877,1.1372,1.1111,0.0,0.0,0.0,0.0,0.0,0.0,0.0,0.0,0.0,0.0,0.0,0.0,0.0,0.0,0.0,0.0,0.0,0.0,0.0,0.0,0.0,0.0,0.0,2.5336,2.446,2.402,2.4431,2.4443,2.4619,2.5049,2.5145,2.5293,2.5674,2.5723,2.5967,2.6387,2.6406,2.6592,2.7002,2.7012,2.7012,2.7012,2.7012,2.7012,2.7012,2.6602,2.6396,2.6377,2.5947,2.5703,2.5693,2.5693,2.5693,2.5693,2.5693,2.5693,2.5343,2.1892,2.031,1.9909,1.8799,1.8363,1.8255,1.794,1.783,1.7779,1.7465,1.7301,1.7301,1.7301,1.716,1.6932,1.6636,1.64,1.613,1.5879,1.5784,1.5784,1.5784,1.5784,1.5784,1.5784,1.5611,1.5411,1.5411,1.4943,1.4543,1.4536,1.4295,1.4102,1.4102,1.4095,0.0,1.4088,1.4088,1.4088,1.4088,1.4088,1.4088,1.4088,1.4088,1.4088,1.4088,1.3801,1.346,1.322,1.2945,1.2636,1.2311,1.2305,1.1929,1.1149,0.0,0.0,0.0,0.0,0.0,0.0,0.0,0.0,0.0,0.0,0.0,0.0,0.0,0.0,0.0,0.0,0.0,0.0,0.0,0.0,0.0,2.8897,2.7895,2.7278,2.64,2.5885,2.5962,2.5593,2.5372,2.5537,2.584,2.6074,2.6201,2.6494,2.6719,2.6836,2.6846,2.6894,2.7012,2.7012,2.7012,2.7012,2.7012,2.7012,2.7012,2.6894,2.668,2.6387,2.6269,2.6035,2.5693,2.5693,2.5693,2.5693,2.5693,2.5693,2.5518,2.3781,2.3014,2.2684,2.0595,1.9186,1.8291,1.8196,1.8167,1.8152,1.8064,1.7633,1.7158,1.7158,1.6668,1.6116,1.6015,1.5974,1.5879,1.5832,1.5784,1.5784,1.5784,1.5784,1.5784,1.5784,1.5718,1.5712,1.5712,1.5411,1.509,1.4877,1.4596,1.4402,1.4402,1.4222,0.0,1.4088,1.4088,1.4088,1.4088,1.4088,1.4088,1.4088,1.4088,1.4088,1.4088,1.3614,1.3293,1.3213,1.2705,1.2385,1.2305,1.2305,1.2194,0.0,0.0,0.0,0.0,0.0,0.0,0.0,0.0,0.0,0.0,0.0,0.0,0.0,0.0,0.0,0.0,0.0,0.0,0.0,0.0,0.0,0.0,2.996,2.9542,2.9261,2.8077,2.7144,2.6869,2.6716,2.6486,2.6006,2.6396,2.665,2.665,2.6875,2.709,2.7275,2.7285,2.7363,2.7549,2.7549,2.7549,2.7549,2.7549,2.7549,2.7549,2.7373,2.7158,2.6914,2.6553,2.625,2.5996,2.5771,2.5693,2.5693,2.5693,2.5693,0.0,0.0,0.0,0.0,0.0,2.0498,1.9375,1.9089,1.8795,1.8489,1.8201,1.7887,1.756,1.7425,1.6973,1.6423,1.6198,1.6069,1.5927,1.5832,1.5784,1.5784,1.5784,1.5784,1.5784,1.5784,1.5784,1.5784,1.5784,1.5691,0.0,1.5357,1.4983,1.4703,1.4703,1.4456,1.4269,1.4269,1.4162,1.4088,1.4088,1.4088,1.4088,1.4088,1.4088,0.0,0.0,0.0,1.328,1.3026,1.2559,0.0,0.0,0.0,1.2305,1.2305,0.0,0.0,0.0,0.9696,0.879,0.0,0.0,0.0,0.0,0.0,0.0,0.0,0.0,0.0,0.0,0.0,0.0,0.0,0.0,0.0,0.0,3.1007,3.1007,3.1007,2.9606,2.8344,2.7683,2.7896,2.7701,2.6744,2.7038,2.7233,2.709,2.7129,2.7324,2.7767,2.7787,0.0,0.0,0.0,2.8291,2.8291,2.8291,2.8291,2.8291,2.792,2.7767,2.7689,2.6826,2.6435,2.6367,2.5879,2.5693,2.5693,2.5693,2.5693,2.5586,2.4658,2.4196,2.3989,2.3035,2.1988,2.099,2.0477,0.0,0.0,1.8411,1.8294,1.8256,1.7965,1.764,1.7284,1.6809,1.6482,1.617,1.5927,1.5832,1.5832,1.5832,1.5784,1.5784,1.5784,1.5784,1.5784,1.5784,1.5784,1.5784,1.5784,1.5378,1.5062,1.5062,1.4763,1.4556,1.4479,1.4295,1.4122,1.4088,0.0,0.0,1.4088,1.4088,1.4088,1.4088,1.3808,1.3373,1.2811,1.2529,1.2338,1.2305,1.2305,1.2305,1.2305,1.2305,1.2285,1.2208,1.0366,0.9248,0.0,0.0,0.0,0.0,0.0,0.0,0.0,0.0,0.0,0.0,0.0,0.0,0.0,0.0,0.0,3.156,3.156,3.156,3.156,3.1621,3.1317,3.0372,2.9617,2.8914,2.8212,2.8614,2.8481,2.7643,2.7851,2.8086,2.8164,2.8174,2.8203,2.8291,2.8291,2.8291,2.8291,2.8291,2.8291,2.8291,2.8213,0.0,2.7699,2.7129,2.6709,2.6367,2.5879,2.5693,2.5693,2.5693,2.5693,2.5684,2.5479,2.4864,2.4088,2.389,2.3085,2.2181,2.2055,2.1332,2.0468,2.0354,1.9451,1.839,1.8275,1.7754,0.0,1.7029,1.6777,1.6447,1.617,1.6123,1.6076,1.5832,1.5784,1.5784,1.5784,1.5784,1.5784,1.5784,1.5784,1.5784,1.5784,1.5538,1.5311,1.5311,1.5064,1.479,1.4549,1.4469,1.4349,1.4115,1.4088,1.4088,1.4088,1.4088,1.4088,1.4088,1.3808,1.3373,1.2811,1.273,1.2583,1.2305,1.2305,1.2305,1.2305,1.2305,1.2184,1.1957,1.1614,1.0998,0.0,0.0,0.0,0.0,0.0,0.0,0.0,0.0,0.0,0.0,0.0,3.1705,3.1705,0.0,3.1705,3.1705,3.1705,3.1801,3.2046,3.2322,3.1932,3.0343,3.0149,2.9603,2.831,2.8528,2.858,2.8031,2.8174,2.8291,2.8291,2.8291,2.8291,2.8291,2.8291,2.8291,2.8291,2.8291,2.8291,2.8291,2.8291,2.8184,2.7969,2.7539,2.7109,2.668,2.625,2.5937,2.5693,2.5693,2.5693,2.5693,2.5693,2.5372,2.4913,2.4913,2.4205,2.3285,2.3144,2.2492,2.1684,2.154,2.1012,2.0338,1.9628,1.889,1.8162,1.7329,1.6897,1.66,1.6265,1.6224,1.6177,1.6028,1.5879,1.5784,1.5784,1.5784,1.5784,1.5784,1.5784,1.5784,1.5784,1.5712,1.5611,1.5611,1.5364,1.513,1.4977,1.4703,1.4469,1.4315,1.4175,1.4088,1.4088,1.4088,1.4088,1.4088,1.3808,1.3467,1.3206,1.3053,1.2878,1.2569,1.2563,1.2489,1.2305,1.2305,1.2225,1.2091,1.2311,1.1838,0.0,0.0,0.0,0.0,0.0,0.0,0.0,3.1705,3.1705,3.1705,3.1705,3.1705,3.1705,3.1705,3.1705,3.1705,3.1801,3.203,3.2442,3.2671,3.2065,3.0127,3.064,3.0396,2.864,2.8552,2.8495,2.8291,2.8291,2.8291,2.8291,2.8291,2.8291,2.8291,2.8291,2.8291,2.8291,2.8291,2.8291,2.8291,2.8291,2.8291,2.8281,2.7861,2.7471,2.7109,2.6602,2.6143,2.5693,2.5693,2.5693,2.5693,2.5693,2.5693,2.5693,2.5693,2.5167,2.4402,2.4146,2.3543,2.2785,2.2534,2.2484,2.2282,2.1137,2.0442,1.9721,1.8138,1.7433,1.705,1.647,1.6265,1.6265,1.617,1.5981,1.5879,1.5832,1.5784,1.5784,1.5784,1.5784,1.5784,1.5784,1.5784,1.5784,1.5784,1.5631,1.5464,1.5404,1.4983,1.4649,1.4529,1.4309,1.4148,1.4088,1.4088,1.4088,1.4088,1.3861,1.366,1.3606,1.338,1.3153,1.2878,1.2878,1.2757,1.2478,1.2478,1.2478,1.2485,1.2764,1.2388,2.916,2.9989,3.0843,3.1476,3.1669,3.1705,0.0,3.1705,3.1705,3.1705,3.1705,3.1705,3.1705,3.1705,3.1705,3.1705,3.2082,3.243,3.2491,3.3296,3.3375,3.2185,3.2131,3.1926,3.1251,3.0307,2.9313,2.8398,2.8291,2.8291,2.8291,2.8291,2.8291,2.8291,2.8291,2.8291,2.8291,2.8291,2.8291,2.8291,2.8291,2.8291,2.8281,2.7861,2.7689,2.7601,2.6738,2.6143,2.5693,2.5693,2.5693,2.5693,2.5693,2.5693,2.5693,2.5693,2.5635,2.5528,2.5489,2.4805,2.3939,2.389,2.3235,2.2475,2.2332,2.2035,2.1459,2.0066,1.9269,1.8512,1.7015,1.6614,1.6447,1.5974,1.5981,1.6076,1.5832,1.5784,1.5784,1.5784,1.5784,1.5784,1.5784,1.5784,1.5784,1.5784,1.5751,1.5691,1.5431,1.5337,1.5097,1.4576,1.4489,1.4369,1.4108,1.4088,1.4088,1.4088,1.4055,1.3921,1.3613,1.3573,1.3413,1.3166,1.316,1.314,1.3106,1.3106,1.3106,1.3106,1.314,1.2888,2.8775,2.9617,3.047,3.0687,3.1247,3.1705,3.1705,3.1705,3.1705,3.1705,3.1705,3.1705,3.1705,3.1705,3.1813,3.2094,3.2346,3.2707,3.3308,3.3718,3.3707,3.2955,3.2334,3.1609,3.068,2.9618,2.8804,2.8344,2.8291,2.8291,2.8291,2.8291,2.8291,2.8291,2.8291,2.8291,2.8291,2.8291,2.8291,2.8291,2.8291,2.8291,2.8281,2.8115,2.7754,2.7256,2.665,2.6143,2.5693,2.5693,2.5693,2.5693,2.5693,2.5693,2.5693,2.5693,2.5693,2.5693,2.5693,2.543,2.502,2.502,2.4716,2.4264,2.3642,2.3219,2.2696,2.1296,2.0294,1.9396,1.8367,1.7507,1.6814,1.6429,1.6252,1.613,1.5879,1.5927,1.5981,1.5832,1.5784,1.5784,1.5784,1.5784,1.5784,1.5784,1.5784,1.5738,1.5665,1.5504,1.517,1.4583,1.4522,1.4402,1.4115,1.4088,1.4088,1.4088,1.4088,1.4035,1.3908,1.3901,1.3761,1.3427,1.342,1.334,1.3213,1.3213,1.3213,1.3213,1.3347,1.3313,2.8907,2.9617,3.0338,3.0482,3.1139,3.1705,3.1705,3.1705,3.1705,3.1705,3.1705,3.1705,3.1705,3.1705,3.1898,3.2406,3.2623,3.3032,3.3874,3.4114,3.4102,3.3674,3.2689,3.1626,3.0494,2.9112,2.8291,2.8291,2.8291,2.8291,2.8291,2.8291,2.8291,2.8291,2.8291,2.8291,2.8291,2.8291,2.8291,2.8291,2.8291,2.8291,2.8291,2.8291,2.7891,2.7168,2.6748,2.6318,2.5859,2.5732,2.5693,2.5693,2.5693,2.5693,2.5693,2.5693,2.5693,2.5693,2.5693,2.5693,2.5693,2.5693,2.5693,2.5586,2.4756,2.4402,2.3943,2.2554,2.156,2.0736,1.9864,1.8885,1.7981,1.7364,1.7057,1.6752,1.6169,1.6156,1.615,1.6,1.5838,1.5784,1.5784,1.5784,1.5784,1.5784,1.5784,1.5784,1.5784,1.5578,1.5231,1.481,1.4616,1.4436,1.4222,1.4135,1.4088,1.4088,1.4088,1.4088,1.4088,1.4088,1.3988,1.3726,1.3726,1.362,1.3454,1.3454,1.3454,1.346,1.3667,1.3726,2.9893,3.0434,3.1019,3.1536,3.1681,3.1705,3.1705,3.1705,3.1705,3.1705,3.1705,3.1705,3.1705,3.1705,3.1898,3.2406,3.2935,3.3452,3.3922,3.4438,3.4763,3.4726,3.3808,3.2739,3.1626,2.9576,2.8291,2.8291,2.8291,2.8291,2.8291,2.8291,2.8291,2.8291,2.8291,2.8291,2.8291,2.8291,2.8291,2.8291,2.8291,2.8291,2.8291,2.8291,2.8057,2.7679,2.7187,2.6758,2.6338,2.5908,2.5693,2.5693,2.5693,2.5693,2.5693,2.5693,2.5693,2.5693,2.5693,2.5693,2.5693,2.5693,2.5693,2.5684,2.5635,2.5635,2.5382,2.4029,2.3452,2.2903,2.1483,2.0931,2.0345,1.8976,1.8648,1.8262,1.6973,1.646,1.6308,1.6308,1.6025,1.5784,1.5784,1.5784,1.5784,1.5784,1.5784,1.5784,1.5784,1.5578,1.5391,1.5371,1.4856,1.4516,1.4509,1.4249,1.4088,1.4088,1.4088,1.4088,1.4088,1.4088,1.4082,1.4075,1.4075,1.4068,1.4062,1.4062,1.4062,1.4062,1.4068,1.4075,2.952,3.0206,3.0958,3.1139,3.1452,3.1705,3.1705,3.1705,3.1705,3.1705,3.1705,3.1705,3.1705,3.1705,3.2006,3.2875,3.3176,3.3585,3.439,3.4667,3.4531,3.3808,3.3411,3.2488,3.0639,2.9828,2.9059,2.8344,2.8291,2.8291,2.8291,2.8291,2.8291,2.8291,2.8291,2.8291,2.8291,2.8291,2.8291,2.8291,2.8291,2.8291,2.8291,2.8291,2.8066,2.7689,2.7207,2.6777,2.6357,2.5869,2.5693,2.5693,2.5693,2.5693,2.5693,2.5693,2.5693,2.5693,2.5693,2.5693,2.5693,2.5693,2.5693,2.5693,2.5693,2.5693,2.5586,2.5177,2.4457,2.369,2.3031,2.2111,2.0949,1.9426,1.9011,1.8607,1.7256,1.7032,1.7344,1.8059,1.7238,1.6608,1.7347,1.6517,1.5784,1.5784,1.5784,1.5784,1.5784,1.5745,1.5611,1.5418,1.5224,1.4943,1.4506,1.4429,1.4295,1.4095,1.4088,1.4088,1.4088,1.4088,1.4088,1.4088,1.4088,1.4088,1.4088,1.4088,1.4088,1.4088,1.4088,1.4088,2.9809,3.0494,3.1199,3.1199,3.1452,3.1705,3.1705,3.1705,3.1705,3.1705,3.1705,3.1705,3.1705,3.1705,3.2066,3.3116,3.3284,3.3645,3.4679,3.4775,3.4531,3.3857,3.3758,3.2889,3.0742,3.0494,2.988,2.8388,2.8654,2.8698,2.8291,2.8291,2.8291,2.8291,2.8291,2.8291,2.8291,2.8291,2.8291,2.8291,2.8291,2.8291,2.8291,2.8291,2.8144,2.7861,2.7266,2.6865,2.6572,2.5927,2.5693,2.5693,2.5693,2.5693,2.5693,2.5693,2.5693,2.5693,2.5693,2.5693,2.5693,2.5693,2.5693,2.5693,2.5693,2.5693,2.5693,2.5693,2.5226,2.4609,2.4461,2.3659,2.2568,2.1171,2.0693,2.0128,1.8369,1.8132,1.8353,1.8602,1.7999,1.7546,1.7824,1.6801,1.5952,1.5798,1.5784,1.5784,1.5784,1.5784,1.5711,1.5571,1.5458,1.5244,1.4863,1.4643,1.4442,1.4255,1.4142,1.4088,1.4088,1.4088,1.4088,1.4088,1.4088,1.4088,1.4088,1.4088,1.4088,1.4088,1.4088,1.4088,3.0735,3.1308,3.1705,3.1705,3.1705,3.1705,3.1705,3.1705,3.1705,3.1705,3.1705,3.1705,3.1705,3.1705,3.2066,3.3116,3.3284,3.3645,3.4679,3.4775,3.4775,3.4775,3.4726,3.3918,3.1779,3.1626,3.0753,2.8451,2.926,2.9365,2.8344,2.8291,2.8291,2.8291,2.8291,2.8291,2.8291,2.8291,2.8291,2.8291,2.8291,2.8291,2.8291,2.8291,2.8291,2.8242,2.7412,2.7031,2.6953,2.6064,2.5703,2.5693,2.5693,2.5693,2.5693,2.5693,2.5693,2.5693,2.5693,2.5693,2.5693,2.5693,2.5693,2.5693,2.5693,2.5693,2.5693,2.5693,2.5693,2.5693,2.5693,2.5489,2.503,2.3949,2.3493,2.2676,2.0238,1.9687,1.9323,1.8142,1.8525,1.8636,1.7413,1.6713,1.6269,1.5892,1.5791,1.5784,1.5784,1.5784,1.5784,1.5784,1.5585,1.5411,1.5398,1.4883,1.4563,1.4543,1.4269,1.4108,1.4108,1.4095,1.4088,1.4088,1.4102,1.4108,1.4108,1.4122,1.4135,1.4135,1.4135,1.4135,3.0874,3.1308,3.1705,3.1705,3.1705,3.1705,3.1705,3.1705,3.1705,3.1705,3.1705,3.1705,3.1705,3.1705,3.2066,3.3116,3.3284,3.3645,3.4679,3.4775,3.4775,3.4775,3.4066,3.3101,3.1728,3.2336,3.1513,2.8548,2.8548,2.8601,2.8291,2.8291,2.8291,2.8291,2.8291,2.8291,2.8291,2.8291,2.8291,2.8291,2.8291,2.8291,2.8291,2.8291,2.8291,2.8262,2.7734,2.7314,2.6973,2.6445,2.6035,2.5693,2.5693,2.5693,2.5693,2.5693,2.5693,2.5693,2.5693,2.5693,2.5693,2.5693,2.5693,2.5693,2.5693,2.5693,2.5693,2.5693,2.5693,2.5693,2.5693,2.5645,2.5274,2.3989,2.3642,2.3185,2.1777,2.0856,2.0691,2.218,2.2128,2.1103,1.8701,1.786,1.7202,1.6311,1.5972,1.5784,1.5784,1.5784,1.5784,1.5784,1.5718,1.5631,1.5418,1.5257,1.5084,1.4908,1.4576,1.4409,1.4409,1.4202,1.4088,1.4088,1.4302,1.4409,1.4409,1.4636,1.4787,1.4787,1.4787,1.4787,3.1199,3.1476,3.1705,3.1705,3.1705,3.1705,3.1705,3.1705,3.1705,3.1705,3.1705,3.1705,3.1705,3.1705,3.1982,3.2803,3.314,3.3573,3.4318,3.4631,3.4775,3.4775,3.4274,3.3392,3.2024,3.2256,3.1395,2.876,2.9328,2.9323,2.8344,2.8291,2.8291,2.8291,2.8291,2.8291,2.8291,2.8291,2.8291,2.8291,2.8291,2.8291,2.8291,2.8291,2.8291,2.8271,2.7851,2.7412,2.6982,2.6562,2.6133,2.5693,2.5693,2.5693,2.5693,2.5693,2.5693,2.5693,2.5693,2.5693,2.5693,2.5693,2.5693,2.5693,2.5693,2.5693,2.5693,2.5693,2.5693,2.5693,2.5693,2.5693,2.5489,2.4766,2.4559,2.4254,2.3044,2.2433,2.2442,2.3651,2.3175,2.2105,2.0647,1.9689,1.8701,1.7217,1.7299,1.7276,1.6548,1.6062,1.5967,1.6393,1.6062,1.5718,1.5605,1.5471,1.5331,1.5209,1.4877,1.4716,1.4716,1.4556,1.4469,1.4469,1.4629,1.4716,1.4716,1.4928,1.5008,1.5008,1.5008,1.5008,3.1585,3.1705,3.1705,3.1705,3.1705,3.1705,3.1705,3.1705,3.1705,3.1705,3.1705,3.1705,3.1705,3.1705,3.1898,3.2406,3.2947,3.3464,3.3922,3.445,3.4775,3.4775,3.4737,3.4088,3.2594,3.202,3.1052,2.9347,3.0643,3.0568,2.8398,2.8291,2.8291,2.8291,2.8291,2.8291,2.8291,2.8291,2.8291,2.8291,2.8291,2.8291,2.8291,2.8291,2.8291,2.8271,2.791,2.7471,2.6982,2.6621,2.6182,2.5693,2.5693,2.5693,2.5693,2.5693,2.5693,2.5693,2.5693,2.5693,2.5693,2.5693,2.5693,2.5693,2.5693,2.5693,2.5693,2.5693,2.5693,2.5693,2.5693,2.5693,2.5693,2.5693,2.5693,2.5382,2.4205,2.4146,2.4205,2.3818,2.3103,2.254,2.2654,2.1765,2.0434,1.858,1.9114,1.9271,1.7976,1.6878,1.6527,1.7232,1.6534,1.5967,1.5832,1.5598,1.5451,1.5451,1.5177,1.5068,1.5068,1.5028,1.5008,1.5008,1.5042,1.5068,1.5068,1.5109,1.5122,1.5122,1.5122,1.5122,3.1681,3.1705,3.1705,3.1705,3.1705,3.1705,3.1705,3.1705,3.1705,3.1705,3.1705,3.1705,3.1705,3.1705,3.1898,3.2406,3.2947,3.3464,3.3922,3.445,3.4775,3.4775,3.4393,3.4019,3.3731,3.3146,3.2255,3.1055,3.0857,3.0071,2.8364,2.8291,2.8291,2.8291,2.8291,2.8291,2.8291,2.8291,2.8291,2.8291,2.8291,2.8291,2.8291,2.8291,2.8291,2.8291,2.8213,0.0,2.7012,2.6934,2.6395,2.5693,2.5693,2.5693,2.5693,2.5693,2.5693,2.5693,2.5693,2.5693,2.5693,2.5693,2.5693,2.5693,2.5693,2.5693,2.5693,2.5693,2.5693,2.5693,2.5693,2.5693,2.5693,2.5693,2.5693,2.5635,2.5382,2.5382,2.5177,2.4196,2.4412,2.4492,2.366,2.2979,2.2031,2.0531,2.0134,2.0149,2.0488,1.9372,1.8226,1.7372,1.7138,1.6716,1.5872,1.5785,1.5752,1.5752,1.5484,1.5317,1.5317,1.5135,1.5008,1.5008,1.5197,1.5317,1.5317,1.5565,1.5678,1.5678,1.5678,1.5678,3.0913,3.1294,3.1705,3.1705,3.1705,3.1705,3.1705,3.1705,3.1705,3.1705,3.1705,3.1705,3.1705,3.1705,3.1801,3.2022,3.2755,3.3368,3.3609,3.433,3.4775,3.4775,3.4823,3.4684,3.4366,3.4075,3.3307,3.1829,3.1042,3.0041,2.8687,2.8408,2.8291,2.8291,2.8291,2.8291,2.8291,2.8291,2.8291,2.8291,2.8291,2.8291,2.8291,2.8291,2.8291,2.8291,2.8291,2.7803,2.7012,2.7012,2.6514,2.5693,2.5693,2.5693,2.5693,2.5693,2.5693,2.5693,2.5693,2.5693,2.5693,2.5693,2.5693,2.5693,2.5693,2.5693,2.5693,2.5693,2.5693,2.5693,2.5693,2.5693,2.5693,2.5693,2.5693,2.5693,2.5693,2.5693,2.5538,2.502,2.5226,2.5284,2.4667,2.4303,2.3651,2.2109,2.2254,2.2243,2.1525,2.1387,2.0537,1.8481,1.7777,1.7044,1.592,1.5784,1.5784,1.5784,1.5698,1.5618,1.5618,1.5484,1.5418,1.5418,1.5551,1.5618,1.5625,1.5758,1.5784,1.5784,1.5784,1.5784,3.0181,3.0913,3.1705,3.1705,3.1705,3.1705,3.1705,3.1705,3.1705,3.1705,3.1705,3.1705,3.1705,3.1705,3.1705,3.1705,3.2575,3.3284,3.3284,3.4174,3.4775,3.4775,3.5292,3.5458,3.5022,3.4953,3.4361,3.3,3.1638,3.0237,2.8843,2.8467,2.8291,2.8291,2.8291,2.8291,2.8291,2.8291,2.8291,2.8291,2.8291,2.8291,2.8291,2.8291,2.8291,2.8291,2.8291,2.7803,2.7012,2.7012,2.6514,2.5693,2.5693,2.5693,2.5693,2.5693,2.5693,2.5693,2.5693,2.5693,2.5693,2.5693,2.5693,2.5693,2.5693,2.5693,2.5693,2.5693,2.5693,2.5693,2.5693,2.5693,2.5693,2.5693,2.5693,2.5693,2.5693,2.5693,2.5693,2.5693,2.5693,2.5635,2.544,2.5391,2.4916,2.3587,2.421,2.4174,2.2462,2.2969,2.2544,1.9966,1.8866,1.777,1.6339,1.6157,1.6015,1.5825,1.6015,1.6015,1.5832,1.6015,1.6015,1.5784,1.5784,1.5784,1.5784,1.5784,1.5784,1.5784,1.5784,1.5784,3.0089,3.0913,3.1705,3.1705,3.1705,3.1705,3.1705,3.1705,3.1705,3.1705,3.1705,3.1705,3.1705,3.1705,3.1705,3.1705,3.2575,3.3284,3.3284,3.4174,3.4775,3.4775,3.5292,3.5771,3.6198,3.5695,3.5482,3.579,3.3051,3.0442,2.8442,2.831,2.8291,2.8291,2.8291,2.8291,2.8291,2.8291,2.8291,2.8291,2.8291,2.8291,2.8291,2.8291,2.8291,2.8291,2.8291,2.7803,0.0,2.7012,2.6514,2.5693,2.5693,2.5693,2.5693,2.5693,2.5693,2.5693,2.5693,2.5693,2.5693,2.5693,2.5693,2.5693,2.5693,2.5693,2.5693,2.5693,2.5693,2.5693,2.5693,2.5693,2.5693,2.5693,2.5693,2.5693,2.5693,2.5693,2.5693,2.5693,2.5693,2.5684,2.5693,2.5635,2.5518,2.5129,2.5083,2.4907,2.4459,2.4048,2.3264,2.1879,2.0902,1.955,1.7684,1.7279,1.6763,1.5879,1.6676,1.6763,1.5825,1.6676,1.6723,1.5825,1.5784,1.5784,1.5784,1.5784,1.5784,1.5784,1.5784,1.5784,2.8711,2.985,3.0958,3.1572,3.1705,3.1705,3.1705,3.1705,3.1705,3.1705,3.1705,3.1705,3.1705,3.1705,3.1705,3.1705,3.231,3.2923,3.3236,3.3909,3.4426,3.4739,3.5292,3.5821,3.635,3.6454,3.5893,3.4513,3.2522,3.0472,2.8393,2.8291,2.8291,2.8291,2.8291,2.8291,2.8291,2.8291,2.8291,2.8291,2.8291,2.8291,2.8291,2.8291,2.8291,2.8291,2.8291,2.7959,0.0,2.7119,2.666,2.6103,2.5791,2.5693,2.5693,2.5693,2.5693,2.5693,2.5693,2.5693,2.5693,2.5693,2.5693,2.5693,2.5693,2.5693,2.5693,2.5693,2.5693,2.5693,2.5693,2.5693,2.5693,2.5693,2.5693,2.5693,2.5693,2.5693,2.5693,2.5693,2.5693,2.5693,2.5693,2.5693,2.5635,2.5538,2.5489,2.5333,2.4975,2.4729,2.4217,2.3195,2.1825,2.035,1.868,1.7917,1.7318,1.6716,1.6534,1.648,1.6669,1.6534,1.648,1.6716,1.6109,1.5784,1.5784,1.5784,1.5784,1.5784,1.5784,1.5784,2.7551,2.878,3.0036,3.1165,3.1476,3.1512,3.1669,3.1705,3.1705,3.1705,3.1705,3.1705,3.1705,3.1705,3.1705,3.1705,3.213,3.2683,3.3212,3.3717,3.4186,3.4715,3.5111,3.5593,3.6122,3.6651,3.6048,3.3835,3.2768,3.1168,2.8897,2.8751,2.8644,2.8291,2.8291,2.8291,2.8291,2.8291,2.8291,2.8291,2.8291,2.8291,2.8291,2.8291,2.8291,2.8291,2.8291,2.8057,0.0,2.7197,2.6768,2.6348,2.5859,2.5693,2.5693,2.5693,2.5693,2.5693,2.5693,2.5693,2.5693,2.5693,2.5693,2.5693,2.5693,2.5693,2.5693,2.5693,2.5693,2.5693,2.5693,2.5693,2.5693,2.5693,2.5693,2.5693,2.5693,2.5693,2.5693,2.5693,2.5693,2.5693,2.5693,2.5693,2.5693,2.5693,2.5693,2.5577,2.5303,2.5146,2.4881,2.4228,2.2905,2.1383,1.9778,1.8726,1.787,1.7326,1.6629,1.644,1.6857,1.644,1.644,1.6857,1.6157,1.5784,1.5784,1.5784,1.5784,1.5784,1.5784,1.5784,2.6975,2.8017,2.9063,3.052,3.0922,3.1067,3.1585,3.1705,3.1705,3.1705,3.1705,3.1705,3.1705,3.1705,3.1705,3.1705,3.213,3.2683,3.3212,3.3717,3.4186,3.4715,3.4787,3.504,3.5581,3.6098,3.5939,3.4872,3.4297,3.28,3.0047,2.9869,2.9418,2.8344,2.8291,2.8291,2.8291,2.8291,2.8291,2.8291,2.8291,2.8291,2.8291,2.8291,2.8291,2.8291,2.8291,2.8057,0.0,2.7197,2.6768,2.6348,2.5859,2.5693,2.5693,2.5693,2.5693,2.5693,2.5693,2.5693,2.5693,2.5693,2.5693,2.5693,2.5693,2.5693,2.5693,2.5693,2.5693,2.5693,2.5693,2.5693,2.5693,2.5693,2.5693,2.5693,2.5693,2.5693,2.5693,2.5693,2.5693,2.5693,2.5693,2.5693,2.5693,2.5693,2.5693,2.5693,2.5684,2.5342,2.5106,2.5106,2.4287,2.3002,2.1123,1.9815,1.8588,1.7372,1.7279,1.6857,1.5879,1.677,1.681,1.5832,1.5832,1.5784,1.5784,1.5784,1.5784,1.5784,1.5784,1.5784,2.5612,2.6834,2.8007,2.9187,2.9889,3.047,3.1043,3.1163,3.1271,3.1633,3.1705,3.1705,3.1705,3.1705,3.1705,3.1705,3.1862,3.225,3.3152,3.3428,3.3849,3.4679,3.5148,3.5437,3.5605,3.6098,3.5785,3.4376,3.4101,3.3158,3.1187,3.0338,2.9418,2.8344,2.8291,2.8291,2.8291,2.8291,2.8291,2.8291,2.8291,2.8291,2.8291,2.8291,2.8291,2.8291,2.8291,2.8057,2.7679,2.7197,2.6768,2.6348,2.5859,2.5693,2.5693,2.5693,2.5693,2.5693,2.5693,2.5693,2.5693,2.5693,2.5693,2.5693,2.5693,2.5693,2.5693,2.5693,2.5693,2.5693,2.5693,2.5693,2.5693,2.5693,2.5693,2.5693,2.5693,2.5693,2.5693,2.5693,2.5693,2.5693,2.5693,2.5693,2.5693,2.5693,2.5693,2.5693,2.5693,2.5567,2.541,2.5145,2.4871,2.4125,2.2761,2.1248,2.0141,1.9596,1.8141,1.7458,1.7824,1.685,1.644,1.681,1.6157,1.5784,1.5784,1.5784,1.5784,1.5784,1.5784,1.5784,2.4748,2.56,2.6596,2.8131,2.8923,2.954,3.0416,3.0621,3.0766,3.1296,3.1404,3.1476,3.1669,3.1705,3.1705,3.1705,3.1705,3.2018,3.2863,3.3164,3.3669,3.4655,3.5063,3.54,3.5605,3.5737,3.5449,3.4641,3.4404,3.3684,3.2258,3.1154,3.0026,2.8953,2.8495,2.8291,2.8291,2.8291,2.8291,2.8291,2.8291,2.8291,2.8291,2.8291,2.8291,2.8291,2.8291,2.8057,0.0,2.7197,2.6768,2.6348,2.5859,2.5693,2.5693,2.5693,2.5693,2.5693,2.5693,2.5693,2.5693,2.5693,2.5693,2.5693,2.5693,2.5693,2.5693,2.5693,2.5693,2.5693,2.5693,2.5693,2.5693,2.5693,2.5693,2.5693,2.5693,2.5693,2.5693,2.5693,2.5693,2.5693,2.5693,2.5693,2.5693,2.5693,2.5693,2.5693,2.5693,2.5693,2.5586,2.5352,2.5166,2.4797,2.4077,2.2557,2.138,2.0883,1.8847,1.7819,1.8203,1.6662,1.6109,1.6716,1.6109,1.5784,1.5784,1.5784,1.5784,1.5784,1.5784,1.5784,0.0,2.4456,2.5019,2.7287,2.7874,2.8317,2.9738,3.0025,0.0,3.0711,3.0855,3.1067,3.156,3.1681,3.1705,3.1705,3.1705,3.191,3.2418,3.2984,3.3717,3.4667,3.4775,3.5016,3.5509,3.5063,3.504,3.5521,3.51,3.4372,3.3362,3.2286,3.1216,3.0078,2.8953,2.8398,2.8291,2.8291,2.8291,2.8291,2.8291,2.8291,2.8291,2.8291,2.8291,2.8291,2.8291,2.8037,2.764,2.7178,2.6748,2.6299,2.5849,2.5693,2.5693,2.5693,2.5693,2.5693,2.5693,2.5693,2.5693,2.5693,2.5693,2.5693,2.5693,2.5693,2.5693,2.5693,2.5693,2.5693,2.5693,2.5693,2.5693,2.5693,2.5693,2.5693,2.5693,2.5693,2.5693,2.5693,2.5693,2.5693,2.5693,2.5693,2.5693,2.5693,2.5693,2.5693,2.5693,2.5693,2.5693,2.5693,2.5361,2.5117,2.5117,2.3626,2.2366,2.1552,1.9628,1.8255,1.7547,1.655,1.5939,1.5892,1.5872,1.5804,1.5784,1.5784,1.5784,1.5784,1.5784,1.5784,2.3353,0.0,2.4775,2.6014,2.6851,2.7742,0.0,2.9484,2.9641,3.017,3.0591,3.0958,3.1079,3.1428,3.1705,3.1705,3.1705,3.191,3.2418,3.3284,3.4054,3.4703,3.4775,3.4823,3.5004,3.4847,3.4835,3.5004,3.4847,3.4677,3.4421,3.3411,3.2336,3.1216,3.013,2.9112,2.8291,2.8291,2.8291,2.8291,2.8291,2.8291,2.8291,2.8291,2.8291,2.8291,2.8291,2.7861,2.7168,2.706,2.6572,2.583,2.5732,2.5693,2.5693,2.5693,2.5693,2.5693,2.5693,2.5693,2.5693,2.5693,2.5693,2.5693,2.5693,2.5693,2.5693,2.5693,2.5693,2.5693,2.5693,2.5693,2.5693,2.5693,2.5693,2.5693,2.5693,2.5693,2.5693,2.5693,2.5693,2.5693,2.5693,2.5693,2.5693,2.5693,2.5693,2.5693,2.5693,2.5693,2.5693,2.5693,2.5644,2.5586,2.5586,2.4439,2.3681,2.3447,2.1961,2.0573,1.9566,1.8432,1.7373,1.65,1.6279,1.6059,1.5784,1.5784,1.5784,1.5784,1.5784,1.5784,2.3091,2.3777,2.4701,2.5568,2.6505,2.7499,2.8669,2.8931,2.9088,2.9617,3.0146,3.0591,3.0874,3.1356,3.1705,3.1705,3.1705,3.1982,3.2755,3.3344,3.3982,3.4691,3.4775,3.4775,3.4775,3.4775,3.4775,3.4775,3.4775,3.4775,3.4775,3.3758,3.2939,3.2336,3.1257,3.013,2.9059,2.8548,2.8548,2.9006,2.8548,2.8291,2.8291,2.8291,2.8291,2.8291,2.8291,2.7803,2.7012,2.7012,2.6514,2.5693,2.5693,2.5693,2.5693,2.5693,2.5693,2.5693,2.5693,2.5693,2.5693,2.5693,2.5693,2.5693,2.5693,2.5693,2.5693,2.5693,2.5693,2.5693,2.5693,2.5693,2.5693,2.5693,2.5693,2.5693,2.5693,2.5693,2.5693,2.5693,2.5693,2.5693,2.5693,2.5693,2.5693,2.5693,2.5693,2.5693,2.5693,2.5693,2.5693,2.5693,2.5693,2.5693,2.5693,2.5159,2.4705,2.4399,2.3228,2.2088,2.1035,1.939,1.8178,1.7491,1.7478,1.7309,1.6994,1.6994,1.6711,1.6226,1.6092,1.6032,2.3091,2.3777,2.4659,2.5411,2.6287,2.7226,2.8087,2.8391,2.8655,2.9184,2.9725,3.0242,3.0783,3.1356,3.1705,3.1705,3.1705,3.209,3.314,3.3284,3.3669,3.4655,3.4775,3.4775,3.4775,3.4775,3.4775,3.4775,3.4775,3.4775,3.4775,3.3967,3.335,3.3201,3.2336,3.1359,3.0432,2.9313,2.927,3.013,2.9059,2.8548,2.8548,2.8548,2.8548,2.8548,2.8479,0.0,2.7257,2.6994,2.6455,2.5693,2.5693,2.5693,2.5693,2.5693,2.5693,2.5693,2.5693,2.5693,2.5693,2.5693,2.5693,2.5693,2.5693,2.5693,2.5693,2.5693,2.5693,2.5693,2.5693,2.5693,2.5693,2.5693,2.5693,2.5693,2.5693,2.5693,2.5693,2.5693,2.5693,2.5693,2.5693,2.5693,2.5693,2.5693,2.5693,2.5693,2.5693,2.5693,2.5693,2.5693,2.5693,2.5693,2.5693,2.5693,2.5479,2.4899,2.4094,2.3157,2.2144,2.002,1.8783,1.8597,1.8787,1.8617,1.8185,1.8333,1.7789,1.67,1.6453,1.6339,2.3091,2.3777,2.4541,2.4659,2.5368,2.6246,2.7174,2.7966,2.8655,2.9184,2.9725,3.0242,3.0783,3.1356,3.1705,3.1705,3.1705,3.209,3.314,3.3284,3.3669,3.4655,3.4775,3.4775,3.4775,3.4775,3.4775,3.4775,3.4775,3.4775,3.4775,3.4628,3.4115,3.325,3.3051,3.2889,3.2689,3.1626,3.1165,3.1319,3.0182,2.967,2.967,2.967,2.967,2.965,0.0,2.8859,2.8246,2.7012,2.6191,2.5693,2.5693,2.5693,2.5693,2.5693,2.5693,2.5693,2.5693,2.5693,2.5693,2.5693,2.5693,2.5693,2.5693,2.5693,2.5693,2.5693,2.5693,2.5693,2.5693,2.5693,2.5693,2.5693,2.5693,2.5693,2.5693,2.5693,2.5693,2.5693,2.5693,2.5693,2.5693,2.5693,2.5693,2.5693,2.5693,2.5693,2.5693,2.5693,2.5693,2.5693,2.5693,2.5693,2.5693,2.5693,2.5664,2.5538,2.5188,2.4398,2.3116,2.099,1.9699,1.9418,1.9217,1.8547,1.7313,1.8044,1.7789,1.6707,1.666,1.664,2.3091,2.3396,2.3734,2.3734,2.5158,2.667,2.7092,2.7886,2.8655,2.9184,2.9725,3.0242,3.0783,3.1356,3.1705,3.1705,3.1705,3.209,3.314,3.3284,3.3669,3.4655,3.4775,3.4775,3.4775,3.4775,3.4775,3.4775,3.4775,3.4775,3.4775,3.4775,3.458,3.4066,3.4066,3.4066,3.4066,3.356,3.3051,3.2437,3.1359,3.0494,2.9922,3.0546,3.0494,2.9901,0.0,2.9041,2.8485,2.6993,2.6133,2.5693,2.5693,2.5693,2.5693,2.5693,2.5693,2.5693,2.5693,2.5693,2.5693,2.5693,2.5693,2.5693,2.5693,2.5693,2.5693,2.5693,2.5693,2.5693,2.5693,2.5693,2.5693,2.5693,2.5693,2.5693,2.5693,2.5693,2.5693,2.5693,2.5693,2.5693,2.5693,2.5693,2.5693,2.5693,2.5693,2.5693,2.5693,2.5693,2.5693,2.5693,2.5693,2.5693,2.5693,2.5693,2.5693,2.5693,2.544,2.4775,2.3592,2.2534,2.1593,2.0724,2.0774,2.0299,1.9353,1.9209,1.8753,1.8025,1.732,1.6947,2.3232,2.3188,2.3188,2.3135,2.4872,2.6629,2.6846,2.7644,2.8593,2.9335,2.9905,3.0434,3.1007,3.1428,3.1705,3.1705,3.1705,3.2042,3.2971,3.3212,3.3633,3.4486,3.4703,3.4775,3.4775,3.4775,3.4775,3.4775,3.4775,3.4775,3.4775,3.4775,3.4775,3.4775,3.4775,3.4775,3.4775,3.4775,3.4372,3.356,3.2488,3.1524,3.0691,3.1575,3.1458,3.0448,3.0043,2.9486,2.8726,2.722,2.6222,2.5693,2.5693,2.5693,2.5693,2.5693,2.5693,2.5693,2.5693,2.5693,2.5693,2.5693,2.5693,2.5693,2.5693,2.5693,2.5693,2.5693,2.5693,2.5693,2.5693,2.5693,2.5693,2.5693,2.5693,2.5693,2.5693,2.5693,2.5693,2.5693,2.5693,2.5693,2.5693,2.5693,2.5693,2.5693,2.5693,2.5693,2.5693,2.5693,2.5693,2.5693,2.5693,2.5693,2.5693,2.5693,2.5693,2.5693,2.5489,2.502,2.4196,2.3908,2.3311,2.2291,2.2139,2.1887,2.1387,2.0483,1.9916,1.9583,1.8274,1.7654,2.3503,2.346,2.3406,2.3144,2.3897,2.4914,2.5704,2.702,2.84,2.975,3.0446,3.1019,3.1548,3.1681,3.1705,3.1705,3.1705,3.191,3.2478,3.2984,3.3489,3.3982,3.4486,3.4775,3.4775,3.4775,3.4775,3.4775,3.4775,3.4775,3.4775,3.4775,3.4775,3.4775,3.4775,3.4775,3.4775,3.4775,3.4775,3.4677,3.361,3.3051,3.2951,3.3051,3.275,3.2184,3.178,3.0802,2.9313,2.7762,2.6582,2.5693,2.5693,2.5693,2.5693,2.5693,2.5693,2.5693,2.5693,2.5693,2.5693,2.5693,2.5693,2.5693,2.5693,2.5693,2.5693,2.5693,2.5693,2.5693,2.5693,2.5693,2.5693,2.5693,2.5693,2.5693,2.5693,2.5693,2.5693,2.5693,2.5693,2.5693,2.5693,2.5693,2.5693,2.5693,2.5693,2.5693,2.5693,2.5693,2.5693,2.5693,2.5693,2.5693,2.5693,2.5693,2.5693,2.5693,2.5684,2.5635,2.5586,2.4609,2.4038,2.3939,2.2735,2.1937,2.1684,2.1336,2.103,2.0731,1.9568,1.9036,2.3667,2.345,2.3276,2.3319,2.3692,2.4442,2.5969,2.7184,2.851,3.0228,3.0778,3.1079,3.1609,3.1705,3.1705,3.1705,3.1705,3.191,3.2418,3.2671,3.3104,3.3886,3.4162,3.4414,3.4751,3.4775,3.4775,3.4775,3.4775,3.4775,3.4775,3.4775,3.4775,3.4775,3.4775,3.4775,3.4775,3.4775,3.4775,3.4775,3.4372,3.3869,3.3189,3.3529,3.3235,3.236,3.1605,3.0618,2.939,2.7862,2.66,2.5693,2.5693,2.5693,2.5693,2.5693,2.5693,2.5693,2.5693,2.5693,2.5693,2.5693,2.5693,2.5693,2.5693,2.5693,2.5693,2.5693,2.5693,2.5693,2.5693,2.5693,2.5693,2.5693,2.5693,2.5693,2.5693,2.5693,2.5693,2.5693,2.5693,2.5693,2.5693,2.5693,2.5693,2.5693,2.5693,2.5693,2.5693,2.5693,2.5693,2.5693,2.5693,2.5693,2.5693,2.5693,2.5693,2.5693,2.5693,2.5693,2.5693,2.5323,2.4756,2.4088,2.2944,2.224,2.1937,2.1183,2.0936,2.1132,2.0143,1.9531,2.3894,2.3624,2.3363,2.3537,2.3688,2.4346,2.6476,2.7506,2.8597,3.0496,3.1055,3.1284,3.1645,3.1705,3.1705,3.1705,3.1705,3.1849,3.2178,3.2382,3.2767,3.3418,3.3658,3.3958,3.4486,3.4534,3.4595,3.4763,3.4775,3.4775,3.4775,3.4619,3.4534,3.4534,3.4378,3.4342,3.4342,3.4342,3.4342,3.4342,3.4342,3.4017,3.3452,3.3696,3.3268,3.2391,3.174,3.0824,2.9642,2.8589,2.7389,2.6149,2.583,2.5693,2.5693,2.5693,2.5693,2.5693,2.5693,2.5693,2.5693,2.5693,2.5693,2.5693,2.5693,2.5693,2.5693,2.5693,2.5693,2.5693,2.5693,2.5693,2.5693,2.5693,2.5693,2.5693,2.5693,2.5693,2.5693,2.5693,2.5693,2.5693,2.5693,2.5693,2.5693,2.5693,2.5693,2.5693,2.5693,2.5693,2.5693,2.5693,2.5693,2.5693,2.5693,2.5693,2.5693,2.5693,2.5693,2.5693,2.5693,2.5693,2.5323,2.4599,2.3543,2.3044,2.3103,2.2047,2.1853,2.24,2.1464,2.0649,2.4249,2.4024,2.3797,2.3797,2.383,2.4516,2.7173,2.7955,2.8612,3.0521,3.1344,3.1705,3.1705,3.1705,3.1705,3.1705,3.1705,3.1705,3.1705,3.2142,3.2491,3.2503,3.2959,3.3477,3.3934,3.3982,3.4198,3.4727,3.4763,3.4763,3.4763,3.427,3.3982,3.3982,3.3549,3.3284,3.3284,3.3284,3.3284,3.3284,3.3284,3.3549,3.397,3.3513,3.2996,3.2503,3.2491,3.1612,3.0215,3.017,2.9004,2.7094,2.61,2.5684,2.5693,2.5684,2.5684,2.5693,2.5693,2.5693,2.5684,2.5693,2.5693,2.5684,2.5693,2.5693,2.5693,2.5693,2.5693,2.5693,2.5693,2.5693,2.5693,2.5693,2.5693,2.5693,2.5693,2.5693,2.5693,2.5693,2.5693,2.5693,2.5693,2.5693,2.5693,2.5693,2.5693,2.5693,2.5693,2.5693,2.5693,2.5693,2.5693,2.5693,2.5693,2.5693,2.5693,2.5693,2.5693,2.5693,2.5693,2.5693,2.5693,2.5693,2.4658,2.4501,2.5284,2.4233,2.4125,2.4883,2.38,2.2735,2.4368,2.411,2.3841,2.4024,2.4424,2.5314,2.7338,2.7955,2.8757,3.0985,3.1597,3.1705,3.1705,3.1705,3.1705,3.1705,3.1705,3.1705,3.1705,3.1849,3.2058,3.2454,3.2647,3.2935,3.3464,3.3513,3.3573,3.3729,3.3741,3.3741,3.3741,3.3597,3.3513,3.3513,3.3368,3.3284,3.3284,3.3284,3.3284,3.3284,3.2911,3.3008,3.3489,3.2971,3.2647,3.2478,3.2082,3.1303,3.0068,2.868,2.7746,2.7189,2.6867,2.6322,2.5781,2.6504,2.6322,2.5693,2.5693,2.6139,2.6648,2.5917,2.6187,2.6648,2.5917,2.5693,2.5693,2.5693,2.5693,2.5693,2.5693,2.5693,2.5693,2.5693,2.5693,2.5693,2.5693,2.5693,2.5693,2.5693,2.5693,2.5693,2.5693,2.5693,2.5693,2.5693,2.5693,2.5693,2.5693,2.5693,2.5693,2.5693,2.5693,2.5693,2.5693,2.5693,2.5693,2.5693,2.5693,2.5693,2.5693,2.5693,2.5693,2.5693,2.4658,2.4245,2.4452,2.4156,2.4016,2.4026,2.3899,2.3484,2.4454,2.4239,2.4024,2.4239,2.4747,2.5762,2.7931,2.9003,2.9948,3.1412,3.1705,3.1705,3.1705,3.1705,3.1705,3.1705,3.1705,3.1705,3.1705,3.1705,3.1837,3.213,3.2166,3.2382,3.2923,3.2971,3.3056,3.3272,3.3284,3.3284,3.3284,3.3092,3.2971,3.2971,3.2767,3.2647,3.2647,3.2647,3.2647,3.2635,3.2322,3.2379,3.2771,3.2355,3.2166,3.2154,3.1849,3.1383,3.0678,2.905,2.8402,2.8355,2.7934,2.7426,2.6935,2.7105,2.6829,2.6284,2.6284,2.6686,2.7189,2.6972,2.702,2.7094,2.6466,2.6014,2.5693,2.5693,2.5693,2.5693,2.5693,2.5693,2.5693,2.5693,2.5693,2.5693,2.5693,2.5693,2.5693,2.5693,2.5693,2.5693,2.5693,2.5693,2.5693,2.5693,2.5693,2.5693,2.5693,2.5693,2.5693,2.5693,2.5693,2.5693,2.5693,2.5693,2.5693,2.5693,2.5693,2.5693,2.5693,2.5693,2.5693,2.5693,2.5069,2.4756,2.4756,2.4756,2.4667,2.448,2.4667,2.4353,2.4497,2.4378,2.4282,2.4454,2.4924,2.6067,2.8829,3.0576,3.1617,3.1705,3.1705,3.1705,3.1705,3.1705,3.1705,3.1705,3.1705,3.1705,3.1705,3.1705,3.1717,3.1705,3.1705,3.191,3.2427,3.243,3.2623,3.3104,3.3186,3.3186,3.314,3.2729,3.2476,3.2476,3.2026,3.1749,3.1749,3.1749,3.1749,3.1749,3.1749,3.1849,3.2038,3.1805,3.1705,3.1705,3.1705,3.1705,3.1617,3.0633,3.0215,3.0125,2.9189,2.8773,2.8634,2.7793,2.7426,2.7369,2.7321,2.7426,2.7605,2.8448,2.8121,2.7416,2.7284,2.6552,2.583,2.5732,2.5781,2.583,2.5732,2.5781,2.583,2.5732,2.5693,2.5693,2.5693,2.5693,2.5693,2.5693,2.5693,2.5693,2.5693,2.5693,2.5693,2.5693,2.5693,2.5693,2.5693,2.5693,2.5693,2.5693,2.5693,2.5693,2.5693,2.5693,2.5693,2.5693,2.5693,2.5693,2.5693,2.5693,2.5693,2.5693,2.5693,2.5693,2.5693,2.5693,2.5693,2.5693,2.5693,2.5177,2.4497,2.4454,2.4464,2.4497,2.5574,2.7153,2.9262,3.0283,3.1026,3.1761,3.1805,3.1705,3.1705,3.1849,3.1937,3.1937,3.1937,3.1937,3.1937,3.1805,3.1761,3.1906,3.1805,3.1809,3.2063,3.1974,3.1934,3.2054,3.22,3.22,3.2054,3.2269,3.2308,3.2119,3.2186,3.2257,3.2257,3.2257,3.2257,3.2257,3.2257,3.2257,3.23,3.2038,3.1937,3.195,3.1749,3.1705,3.1617,3.0633,3.0215,3.017,2.9977,2.9464,2.9004,2.9418,2.9143,2.8588,2.8448,2.8912,2.9464,2.8912,2.9096,2.9235,2.7699,2.7047,2.6686,2.5917,2.6284,2.6686,2.5917,2.6284,2.6686,2.5868,2.5693,2.5693,2.5693,2.5693,2.5693,2.5693,2.5693,2.5693,2.5693,2.5693,2.5693,2.5693,2.5693,2.5693,2.5693,2.5693,2.5693,2.5693,2.5693,2.5693,2.5693,2.5693,2.5693,2.5693,2.5693,2.5693,2.5693,2.5693,2.5693,2.5693,2.5693,2.5693,2.5693,2.5693,2.5693,2.5693,2.5693,2.5586,2.4497,2.4497,2.46,2.5078,2.5711,2.6928,2.9444,2.9988,3.0453,3.2013,3.2069,3.1893,3.2025,3.2125,3.2169,3.2169,3.2169,3.2169,3.2169,3.2081,3.2069,3.2169,3.2081,3.2025,3.1994,3.2038,3.1981,3.1849,3.2081,3.2169,3.2025,3.2257,3.2356,3.2213,3.2344,3.24,3.24,3.24,3.24,3.24,3.24,3.2431,3.2562,3.23,3.2169,3.2169,3.2069,3.2025,3.1981,3.1472,3.1193,3.1059,3.1193,3.0913,3.0453,3.0486,3.0215,2.9704,2.9738,3.0022,3.0351,3.0306,3.0306,3.0125,2.9004,2.8308,2.7793,2.7295,2.7521,2.7793,2.7247,2.7152,2.7057,2.6552,2.6052,2.5693,2.5693,2.5693,2.5693,2.5693,2.5693,2.5693,2.5693,2.5693,2.5693,2.5693,2.5693,2.5693,2.5693,2.5693,2.5693,2.5693,2.5693,2.5693,2.5693,2.5693,2.5693,2.5693,2.5693,2.5693,2.5693,2.5693,2.5693,2.5693,2.5693,2.5693,2.5693,2.5693,2.5693,2.5693,2.5693,2.5693,2.4497,2.4497,2.4736,2.5766,2.5913,2.6591,2.9601,2.9999,3.0328,3.2351,3.2376,3.2125,3.2344,3.2431,3.2431,3.2431,3.2431,3.2431,3.2431,3.2431,3.2388,3.2431,3.2431,3.2344,3.2157,3.23,3.23,3.2081,3.23,3.2431,3.24,3.2475,3.2519,3.2431,3.2519,3.2519,3.2519,3.2519,3.2519,3.2519,3.2519,3.2605,3.2754,3.2605,3.2487,3.2431,3.2431,3.24,3.24,3.24,3.2257,3.2081,3.23,3.23,3.2025,3.1415,3.1036,3.0902,3.108,3.1003,3.0958,3.1805,3.1516,3.0767,3.0351,2.9658,2.8958,2.8773,2.8819,2.8912,2.8773,2.8215,2.7652,2.7274,2.6552,2.5917,2.5732,2.5693,2.5693,2.5693,2.5693,2.5693,2.5693,2.5693,2.5693,2.5693,2.5693,2.5693,2.5693,2.5693,2.5693,2.5693,2.5693,2.5693,2.5693,2.5693,2.5693,2.5693,2.5693,2.5693,2.5693,2.5693,2.5693,2.5693,2.5693,2.5693,2.5693,2.5693,2.5693,2.5693,2.5693,2.5693,2.4497,2.4497,2.4826,2.6098,2.6802,2.7778,3.019,3.0882,3.1436,3.2754,3.2692,3.2344,3.2388,3.2562,3.268,3.268,3.268,3.268,3.268,3.2519,3.2475,3.2636,3.2519,3.2431,3.2581,3.2475,3.24,3.2356,3.255,3.2593,3.2388,3.2779,3.2896,3.268,3.2896,3.2995,3.2995,3.2995,3.2995,3.2995,3.2995,3.3038,3.3038,3.3038,3.2865,3.2636,3.2475,3.24,3.24,3.24,3.24,3.2356,3.24,3.2475,3.2593,3.2288,3.2288,3.2394,3.2245,3.2157,3.2169,3.23,3.2257,3.1937,3.0812,3.0351,3.0034,2.9004,2.9326,2.9795,2.8912,2.9235,2.9372,2.7605,2.7105,2.6781,2.5868,2.5693,2.5693,2.5693,2.5693,2.5693,2.5693,2.5693,2.5693,2.5693,2.5693,2.5693,2.5693,2.5693,2.5693,2.5693,2.5693,2.5693,2.5693,2.5693,2.5693,2.5693,2.5693,2.5693,2.5693,2.5693,2.5693,2.5693,2.5693,2.5693,2.5693,2.5693,2.5693,2.5693,2.5693,2.5693,2.5799,2.5966,2.6159,2.7026,2.7444,2.808,2.9927,3.0709,3.131,3.2366,3.2684,3.2779,3.2779,3.2853,3.2939,3.2939,3.2939,3.2939,3.2939,3.2865,3.2822,3.2896,3.2865,3.2766,3.2723,3.2779,3.2736,3.2593,3.2766,3.2896,3.2779,3.2995,3.3038,3.2939,3.3038,3.3124,3.3124,3.3124,3.3124,3.3124,3.3124,3.3124,3.3124,3.3124,3.3038,3.2896,3.2822,3.2779,3.2779,3.2779,3.2692,3.2593,3.2736,3.2766,3.2723,3.2766,3.2766,3.2723,3.2766,3.2692,3.255,3.255,3.255,3.2463,3.1781,3.1472,3.1238,3.0678,3.0869,3.1104,3.0678,3.0453,3.017,2.9235,2.8541,2.7934,2.7626,2.6572,2.5693,2.5693,2.5693,2.5693,2.5693,2.5693,2.5693,2.5693,2.5693,2.5693,2.5693,2.5693,2.5693,2.5693,2.5693,2.5693,2.5693,2.5693,2.5693,2.5693,2.5693,2.5693,2.5693,2.5693,2.5693,2.5693,2.5693,2.5693,2.5693,2.5693,2.5693,2.5693,2.5693,2.5693,2.6935,2.711,2.7242,2.7828,2.8066,2.8514,2.9844,3.0561,3.1149,3.1834,3.2453,3.2855,3.2855,3.298,3.3124,3.3124,3.3124,3.3124,3.3124,3.3124,3.3124,3.3124,3.3124,3.3025,3.281,3.2982,3.3025,3.281,3.2982,3.3124,3.3124,3.3124,3.3124,3.3124,3.3124,3.3124,3.3124,3.3124,3.3124,3.3124,3.3124,3.3124,3.3124,3.3124,3.3124,3.3124,3.3124,3.3124,3.3124,3.3124,3.2982,3.281,3.3025,3.2982,3.281,3.3038,3.2982,3.2853,3.3025,3.2982,3.2797,3.2797,3.2797,3.2766,3.2562,3.2344,3.2169,3.2125,3.2081,3.2081,3.2081,3.156,3.0913,3.0678,2.9932,2.9143,2.8634,2.7305,2.611,2.5781,2.5781,2.5781,2.5781,2.5781,2.5781,2.5781,2.5732,2.5693,2.5693,2.5693,2.5693,2.5693,2.5693,2.5693,2.5693,2.5693,2.5693,2.5693,2.5693,2.5693,2.5693,2.5693,2.5693,2.5693,2.5693,2.5693,2.5693,2.5693,2.5693,2.5693,2.5693,2.5693,2.711,2.711,2.7325,2.8247,2.8843,2.9472,3.0353,3.0979,3.1395,3.1436,3.1876,3.2252,3.2252,3.2704,3.3124,3.3124,3.3124,3.3124,3.3124,3.3124,3.3124,3.3124,3.3124,3.3068,3.3068,3.3081,3.3068,3.3068,3.3081,3.3124,3.3124,3.3124,3.3124,3.3124,3.3124,3.3124,3.3124,3.3124,3.3124,3.3124,3.3124,3.3124,3.3124,3.3124,3.3124,3.3124,3.3124,3.3124,3.3124,3.3124,3.3081,3.3068,3.3068,3.3081,3.3068,3.3068,3.3081,3.3068,3.3124,3.3081,3.3081,3.3081,3.3081,3.3025,3.2754,3.2667,3.2636,3.2431,3.24,3.24,3.24,3.2344,3.2069,3.1125,3.0857,3.0147,2.7793,2.7389,2.7125,2.5917,2.5917,2.61,2.61,2.61,2.61,2.61,2.5868,2.5693,2.5693,2.5693,2.5693,2.5693,2.5693,2.5693,2.5693,2.5693,2.5693,2.5693,2.5693,2.5693,2.5693,2.5693,2.5693,2.5693,2.5693,2.5693,2.5693,2.5693,2.5693,2.5693,2.5693,2.5693,2.8843,2.8843,2.8922,2.9248,2.9475,2.9702,3.0002,3.0507,3.0896,3.0896,3.1311,3.1788,3.2152,3.2692,3.3124,3.3124,3.3124,3.3124,3.3124,3.3124,3.3124,3.3124,3.3124,3.3124,3.3124,3.3124,3.3124,3.3124,3.3124,3.3124,3.3124,3.3124,3.3124,3.3124,3.3124,3.3124,3.3124,3.3124,3.3124,3.3124,3.3124,3.3124,3.3124,3.3124,3.3124,3.3124,3.3124,3.3124,3.3124,3.3124,3.3124,3.3124,3.3124,3.3124,3.3124,3.3124,3.3124,3.3124,3.3124,3.3124,3.3124,3.3124,3.3124,3.3068,3.2995,3.2853,3.268,3.2593,3.2593,3.2593,3.2593,3.2593,3.2463,3.1969,3.1957,3.1613,2.992,2.9143,2.8402,2.7173,2.7105,2.701,2.6235,2.6245,2.6294,2.6149,2.6004,2.5868,2.5732,2.5693,2.5693,2.5693,2.5693,2.5693,2.5693,2.5693,2.5693,2.5693,2.5693,2.5693,2.5693,2.5693,2.5693,2.5693,2.5693,2.5693,2.5693,2.5693,2.5693,2.5693,2.5693,2.5693,2.9792,2.9792,2.9792,2.9792,2.9792,2.9792,2.9792,3.008,3.0331,3.0331,3.0758,3.1235,3.1612,3.229,3.2855,3.3086,3.3124,3.3124,3.3124,3.3124,3.3124,3.3124,3.3124,3.3124,3.3124,3.3124,3.3124,3.3124,3.3124,3.3124,3.3124,3.3124,3.3124,3.3124,3.3124,3.3124,3.3124,3.3124,3.3124,3.3124,3.3124,3.3124,3.3124,3.3124,3.3124,3.3124,3.3124,3.3124,3.3124,3.3124,3.3124,3.3124,3.3124,3.3124,3.3124,3.3124,3.3124,3.3124,3.3124,3.3124,3.3124,3.3124,3.3124,3.3124,3.3124,3.2982,3.2853,3.2853,3.2853,3.2853,3.2853,3.2853,3.281,3.2649,3.2736,3.2624,3.1801,3.0789,2.9636,2.8448,2.8391,2.8157,2.702,2.6993,2.6955,2.6448,2.6294,2.6159,2.5878,2.582,2.5781,2.5684,2.5693,2.5693,2.5693,2.5693,2.5693,2.5693,2.5693,2.5693,2.5693,2.5693,2.5693,2.5693,2.5693,2.5693,2.5693,2.5693,2.5693,2.5693,2.5693,2.5693,0.0,0.0,0.0,2.9792,2.9792,2.9792,2.9792,2.9792,2.9792,2.9792,3.0218,3.0595,3.062,3.1461,3.2353,3.293,3.3099,3.3124,3.3124,3.3124,3.3124,3.3124,3.3124,3.3124,3.3124,3.3124,3.3124,3.3124,3.3124,3.3124,3.3124,3.3124,3.3124,3.3124,3.3124,3.3124,3.3124,3.3124,3.3124,3.3124,3.3124,3.3124,3.3124,3.3124,3.3124,3.3124,3.3124,3.3124,3.3124,3.3124,3.3124,3.3124,3.3124,3.3124,3.3124,3.3124,3.3124,3.3124,3.3124,3.3124,3.3124,3.3124,3.3124,3.3124,3.3124,3.3124,3.3124,3.3124,3.3124,3.3124,3.3124,3.3124,3.3124,3.3124,3.3124,3.3124,3.3124,3.214,3.0899,2.9681,2.967,2.9544,2.8495,2.8366,2.8002,2.7081,2.6699,2.6448,2.6149,2.61,2.6004,2.5732,2.5693,2.5693,2.5693,2.5693,2.5693,2.5693,2.5693,2.5693,2.5693,2.5693,2.5693,2.5693,2.5693,2.5693,2.5693,2.5693,2.5693,2.5693,2.5693,2.5693,2.9792,0.0,0.0,0.0,0.0,0.0,2.9792,2.9792,2.9792,2.9792,2.9917,3.0143,3.0545,3.0859,3.1235,3.1763,3.2541,3.3124,3.3124,3.3124,3.3124,3.3124,3.3124,3.3124,3.3124,3.3124,3.3124,3.3124,3.3124,3.3124,3.3124,3.3124,3.3124,3.3124,3.3124,3.3124,3.3124,3.3124,3.3124,3.3124,3.3124,3.3124,3.3124,3.3124,3.3124,3.3124,3.3124,3.3124,3.3124,3.3124,3.3124,3.3124,3.3124,3.3124,3.3124,3.3124,3.3124,3.3124,3.3124,3.3124,3.3124,3.3124,3.3124,3.3124,3.3124,3.3124,3.3124,3.3124,3.3124,3.3124,3.3124,3.3124,3.3124,3.3124,3.3124,3.3124,3.3124,3.284,3.2196,3.0956,3.0923,3.0744,2.959,2.9555,2.9292,2.8107,2.7872,2.7458,2.6486,2.6197,2.6052,2.6004,2.583,2.5693,2.5693,2.5693,2.5693,2.5693,2.5693,2.5693,2.5693,2.5693,2.5693,2.5693,2.5693,2.5693,2.5693,2.5693,2.5693,2.5693,2.5693,2.5693,2.9792,2.9792,2.9792,2.9792,0.0,0.0,2.9792,2.9792,2.9792,2.9792,2.9792,2.9892,3.0218,3.0457,3.0721,3.1022,3.18,3.2453,3.2679,3.2717,3.2805,3.3056,3.3124,3.3124,3.3124,3.3124,3.3124,3.3124,3.3124,3.3124,3.3124,3.3124,3.3124,3.3124,3.3124,3.3124,3.3124,3.3124,3.3124,3.3124,3.3124,3.3124,3.3124,3.3124,3.3124,3.3124,3.3124,3.3124,3.3124,3.3124,3.3124,3.3124,3.3124,3.3124,3.3124,3.3124,3.3124,3.3124,3.3124,3.3124,3.3124,3.3124,3.3124,3.3124,3.3124,3.3124,3.3124,3.3124,3.3124,3.3124,3.3124,3.3124,3.3124,3.3124,3.3124,3.3124,3.3124,3.3124,3.2884,3.2152,3.2108,3.1889,3.0744,3.0699,3.0396,2.9246,2.9108,2.8645,2.741,2.7125,2.6839,2.6342,2.6014,2.5868,2.5868,2.5781,2.5693,2.5693,2.5693,2.5693,2.5693,2.5693,2.5693,2.5693,2.5693,2.5693,2.5693,2.5693,2.5693,2.5693,2.5693,2.5693,2.9792,2.9792,2.9792,2.9792,2.9792,0.0,2.9792,2.9792,2.9792,2.9792,2.9792,2.9792,2.9792,3.0193,3.052,3.052,3.0909,3.1424,3.2039,3.2177,3.2403,3.2918,3.3074,3.3124,3.3124,3.3124,3.3124,3.3124,3.3124,3.3124,3.3124,3.3124,3.3124,3.3124,3.3124,3.3124,3.3124,3.3124,3.3124,3.3124,3.3124,3.3124,3.3124,3.3124,3.3124,3.3124,3.3124,3.3124,3.3124,3.3124,3.3124,3.3124,3.3124,3.3124,3.3124,3.3124,3.3124,3.3124,3.3124,3.3124,3.3124,3.3124,3.3124,3.3124,3.3124,3.3124,3.3124,3.3124,3.3124,3.3124,3.3124,3.3124,3.3124,3.3124,3.3124,3.3124,3.3124,3.3124,3.3124,3.3124,3.3124,3.281,3.1945,3.1769,3.1448,3.0486,3.0351,2.9886,2.8691,2.8505,2.8002,2.6812,2.6438,2.6235,2.6091,2.5868,2.5732,2.5693,2.5732,2.5732,2.5693,2.5693,2.5693,2.5693,2.5693,2.5693,2.5693,2.5693,2.5693,2.5693,2.5693,2.5693,2.9792,2.9792,2.9792,2.9792,2.9792,0.0,2.9792,2.9792,2.9792,2.9792,2.9792,2.9792,2.9792,2.988,2.9955,2.9955,3.003,3.0444,3.1411,3.1938,3.2252,3.2365,3.2792,3.3124,3.3124,3.3124,3.3124,3.3124,3.3124,3.3124,3.3124,3.3124,3.3124,3.3124,3.3124,3.3124,3.3124,3.3124,3.3124,3.3124,3.3124,3.3124,3.3124,3.3124,3.3124,3.3124,3.3124,3.3124,3.3124,3.3124,3.3124,3.3124,3.3124,3.3124,3.3124,3.3124,3.3124,3.3124,3.3124,3.3124,3.3124,3.3124,3.3124,3.3124,3.3124,3.3124,3.3124,3.3124,3.3124,3.3124,3.3124,3.3124,3.3124,3.3124,3.3124,3.3124,3.3124,3.3124,3.3124,3.3124,3.3124,3.3038,3.2853,3.2797,3.2481,3.1492,3.1315,3.0935,2.9977,2.9647,2.9085,2.8049,2.7542,2.6982,2.6187,2.6052,2.5917,2.5684,2.5917,2.5917,2.5684,2.5693,2.5693,2.5693,2.5693,2.5693,2.5693,2.5693,2.5693,2.5693,2.5693,2.5693,2.9792,2.9792,2.9792,2.9792,2.9792,0.0,0.0,2.9792,2.9792,2.9792,2.9792,2.9792,2.9792,2.9792,2.9792,2.9792,2.9792,2.998,3.052,3.1286,3.1901,3.2177,3.2717,3.3124,3.3124,3.3124,3.3124,3.3124,3.3124,3.3124,3.3124,3.3124,3.3124,3.3124,3.3124,3.3124,3.3124,3.3124,3.3124,3.3124,3.3124,3.3124,3.3124,3.3124,3.3124,3.3124,3.3124,3.3124,3.3124,3.3124,3.3124,3.3124,3.3124,3.3124,3.3124,3.3124,3.3124,3.3124,3.3124,3.3124,3.3124,3.3124,3.3124,3.3124,3.3124,3.3124,3.3124,3.3124,3.3124,3.3124,3.3124,3.3124,3.3124,3.3124,3.3124,3.3124,3.3124,3.3124,3.3124,3.3124,3.3124,3.3124,3.3124,3.3124,3.2939,3.2438,3.2351,3.1989,3.1036,3.0789,3.0328,2.9338,2.8459,2.7673,2.7057,2.6466,2.6052,2.5917,2.5917,2.5917,2.5917,2.5781,2.5693,2.5693,2.582,2.582,2.5693,2.5693,2.5693,2.5693,2.5693,2.5693,2.998,2.9942,2.993,2.9817,2.9792,2.9792,0.0,0.0,0.0,2.9792,2.9792,2.9792,2.9792,2.9792,2.9792,2.9792,2.9792,2.9792,2.9792,3.0633,3.1436,3.1989,3.2566,3.2955,3.3111,3.3124,3.3124,3.3124,3.3124,3.3124,3.3124,3.3124,3.3124,3.3124,3.3124,3.3124,3.3124,3.3124,3.3124,3.3124,3.3124,3.3124,3.3124,3.3124,3.3124,3.3124,3.3124,3.3124,3.3124,3.3124,3.3124,3.3124,3.3124,3.3124,3.3124,3.3124,3.3124,3.3124,3.3124,3.3124,3.3124,3.3124,3.3124,3.3124,3.3124,3.3124,3.3124,3.3124,3.3124,3.3124,3.3124,3.3124,3.3124,3.3124,3.3124,3.3124,3.3124,3.3124,3.3124,3.3124,3.3124,3.3124,3.3124,3.3124,3.3124,3.3124,3.3124,3.281,3.1989,3.1901,3.1536,3.0576,2.951,2.8634,2.8017,2.7057,2.637,2.6197,2.5965,2.5917,2.61,2.5868,2.5732,2.5693,2.5955,2.5965,2.5693,2.5693,2.5693,2.5693,2.5693,2.5693,3.0645,3.052,3.0407,2.9917,2.9792,2.9792,2.9792,0.0,2.9792,2.9792,0.0,2.9792,2.9792,0.0,0.0,2.9792,2.9792,2.9792,2.9792,3.0319,3.0896,3.1424,3.1976,3.2516,3.3074,3.3124,3.3124,3.3124,3.3124,3.3124,3.3124,3.3124,3.3124,3.3124,3.3124,3.3124,3.3124,3.3124,3.3124,3.3124,3.3124,3.3124,3.3124,3.3124,3.3124,3.3124,3.3124,3.3124,3.3124,3.3124,3.3124,3.3124,3.3124,3.3124,3.3124,3.3124,3.3124,3.3124,3.3124,3.3124,3.3124,3.3124,3.3124,3.3124,3.3124,3.3124,3.3124,3.3124,3.3124,3.3124,3.3124,3.3124,3.3124,3.3124,3.3124,3.3124,3.3124,3.3124,3.3124,3.3124,3.3124,3.3124,3.3124,3.3124,3.3124,3.3124,3.3124,3.3081,3.2939,3.2939,3.2525,3.1536,3.1101,3.0181,2.8402,2.7934,2.7342,2.6496,2.6448,2.6304,2.61,2.6052,2.5965,2.5693,2.5955,2.5965,2.5693,2.5693,2.5693,2.5693,2.5693,2.5693,3.1122,3.106,3.1009,3.0771,3.0721,3.0721,3.0721,3.0721,3.0721,3.0721,0.0,0.0,0.0,0.0,0.0,0.0,2.9792,2.9792,2.9792,2.9993,3.0331,3.0871,3.1687,3.2441,3.3061,3.3124,3.3124,3.3124,3.3124,3.3124,3.3124,3.3124,3.3124,3.3124,3.3124,3.3124,3.3124,3.3124,3.3124,3.3124,3.3124,3.3124,3.3124,3.3124,3.3124,3.3124,3.3124,3.3124,3.3124,3.3124,3.3124,3.3124,3.3124,3.3124,3.3124,3.3124,3.3124,3.3124,3.3124,3.3124,3.3124,3.3124,3.3124,3.3124,3.3124,3.3124,3.3124,3.3124,3.3124,3.3124,3.3124,3.3124,3.3124,3.3124,3.3124,3.3124,3.3124,3.3124,3.3124,3.3124,3.3124,3.3124,3.3124,3.3124,3.3124,3.3124,3.3124,3.3124,3.3124,3.3124,3.2939,3.2537,3.1845,3.1057,3.009,2.8855,2.7945,2.7552,2.7013,2.6592,2.6352,2.6496,2.6448,2.6169,2.6458,2.6458,2.6169,2.6014,2.5917,2.5917,2.5781,2.5693,3.165,3.1612,3.1574,3.1436,3.1386,3.1386,3.1386,3.1386,3.1386,3.1386,3.1085,0.0,0.0,0.0,3.0181,3.0043,0.0,2.9967,2.9817,2.9792,2.9993,3.0557,3.1562,3.2378,3.2805,3.298,3.3124,3.3124,3.3124,3.3124,3.3124,3.3124,3.3124,3.3124,3.3124,3.3124,3.3124,3.3124,3.3124,3.3124,3.3124,3.3124,3.3124,3.3124,3.3124,3.3124,3.3124,3.3124,3.3124,3.3124,3.3124,3.3124,3.3124,3.3124,3.3124,3.3124,3.3124,3.3124,3.3124,3.3124,3.3124,3.3124,3.3124,3.3124,3.3124,3.3124,3.3124,3.3124,3.3124,3.3124,3.3124,3.3124,3.3124,3.3124,3.3124,3.3124,3.3124,3.3124,3.3124,3.3124,3.3124,3.3124,3.3124,3.3124,3.3124,3.3124,3.3124,3.3124,3.3124,3.3124,3.3124,3.3124,3.2438,3.1801,3.1368,2.9954,2.8866,2.8319,2.7657,2.7204,2.7003,2.6928,2.689,2.6897,2.689,2.6757,2.6496,2.6294,2.6197,2.6091,2.583,2.5693,3.234,3.219,3.2051,3.1524,3.1386,3.1386,3.1386,3.1386,3.1386,3.1386,3.1373,3.1361,3.1361,3.1348,3.1173,3.067,3.0583,0.0,0.0,2.9792,2.9993,3.0557,3.1562,3.2227,3.224,3.2754,3.3124,3.3124,3.3124,3.3124,3.3124,3.3124,3.3124,3.3124,3.3124,3.3124,3.3124,3.3124,3.3124,3.3124,3.3124,3.3124,3.3124,3.3124,3.3124,3.3124,3.3124,3.3124,3.3124,3.3124,3.3124,3.3124,3.3124,3.3124,3.3124,3.3124,3.3124,3.3124,3.3124,3.3124,3.3124,3.3124,3.3124,3.3124,3.3124,3.3124,3.3124,3.3124,3.3124,3.3124,3.3124,3.3124,3.3124,3.3124,3.3124,3.3124,3.3124,3.3124,3.3124,3.3124,3.3124,3.3124,3.3124,3.3124,3.3124,3.3124,3.3124,3.3124,3.3124,3.3124,3.3124,3.3124,3.3068,3.2667,3.1669,3.1279,3.0316,2.8412,2.8272,2.8226,2.8226,2.7394,2.7194,2.7829,2.7241,2.6757,2.6496,2.6496,2.6342,2.6091,2.583,2.5693,0.0,0.0,3.3476,3.271,3.2953,3.3232,3.2672,3.2546,3.2546,3.2546,3.2202,3.1938,3.1938,3.1637,3.1336,3.116,3.0834,3.0557,0.0,3.0018,2.9867,3.0043,3.1022,3.1813,3.2177,3.2742,3.3124,3.3124,3.3124,3.3368,3.3937,3.3411,3.3368,3.3937,3.3411,3.3124,3.3124,3.3124,3.3124,3.3124,3.3124,3.3124,3.3124,3.3124,3.3124,3.3124,3.3124,3.3124,3.3124,3.3124,3.3124,3.3124,3.3124,3.3124,3.3124,3.3124,3.3124,3.3124,3.3124,3.3124,3.3124,3.3124,3.3124,3.3124,3.3124,3.3124,3.3124,3.3124,3.3124,3.3124,3.3124,3.3124,3.3124,3.3124,3.3124,3.3124,3.3124,3.3124,3.3124,3.3124,3.3124,3.3124,3.3124,3.3124,3.3124,3.3124,3.3124,3.3124,3.3124,3.3124,3.3124,3.3124,3.3124,3.2939,3.2624,3.1889,3.0935,2.9658,2.9567,2.9567,2.9567,2.9257,2.8899,2.8423,2.8222,2.7762,2.7023,2.6842,2.6699,2.6602,2.6362,2.6024,3.4066,3.4524,0.0,3.4233,3.4524,0.0,3.3768,3.3569,3.3569,3.3569,3.3035,3.2714,3.3372,3.2702,3.2079,3.222,3.163,3.111,0.0,3.0583,3.0369,3.0369,3.0972,3.1537,3.1888,3.2912,3.3569,3.3569,3.3839,3.4233,3.4827,3.4275,3.4134,3.4397,3.3865,3.3411,3.3124,3.3124,3.3124,3.3124,3.3124,3.3124,3.3124,3.3124,3.3124,3.3124,3.3124,3.3124,3.3124,3.3124,3.3124,3.3124,3.3124,3.3124,3.3124,3.3124,3.3124,3.3124,3.3124,3.3124,3.3124,3.3124,3.3124,3.3124,3.3124,3.3124,3.3124,3.3124,3.3124,3.3124,3.3124,3.3124,3.3124,3.3124,3.3124,3.3124,3.3124,3.3124,3.3124,3.3124,3.3124,3.3124,3.3124,3.3124,3.3124,3.3124,3.3124,3.3124,3.3124,3.3124,3.3124,3.3124,3.3124,3.3124,3.3124,3.2494,3.1713,3.0756,3.0711,3.0711,3.0711,3.0396,3.0034,2.9726,2.9037,2.8585,2.8351,2.7441,2.7167,2.7394,2.688,2.641]}]]